Date StartTime U_cm/s V_cm/s W_cm/s Ustd_cm/s Vstd_cm/s Wstd_cm/s Uvar_(cm/s)^2 Vvar_(cm/s)^2 Wvar_(cm/s)^2 KE_(m/s)^2 TurbulentKE_(m/s)^2 HorizWindSpeed_cm/s FrictionSpeec_cm/s DragCoef SpeedOfSound_m/s SonicTemperature_C Pressure_mb 
05/29/2013  00:00:00     -319.664      -46.835      -10.861      158.797      113.303       68.850    25216.620    12837.531     4740.360        7.364        2.140      323.076       76.050        0.055      340.376       14.351      857.233
05/29/2013  00:01:00     -300.667      -53.198      -10.819      155.158      144.909       70.455    24074.000    20998.491     4963.845        7.168        2.502      305.337       76.670        0.063      340.372       14.344      857.257
05/29/2013  00:02:00     -393.850     -116.597      -18.039      128.094      130.329       67.385    16407.957    16985.556     4540.748       10.348        1.897      410.747       60.645        0.022      340.416       14.420      857.270
05/29/2013  00:03:00     -401.042     -123.102      -26.248      122.022      107.749       65.876    14889.427    11609.805     4339.639       10.375        1.542      419.510       59.114        0.020      340.456       14.486      857.262
05/29/2013  00:04:00     -276.614      -57.009      -25.139      114.222      106.807       58.168    13046.582    11407.815     3383.497        5.411        1.392      282.427       58.726        0.043      340.442       14.461      857.277
05/29/2013  00:05:00     -187.908       -2.868      -22.015       82.289      100.647       52.429     6771.532    10129.855     2748.760        2.772        0.983      187.929       45.833        0.059      340.442       14.463      857.262
05/29/2013  00:06:00     -100.731       57.816        0.734       85.426       75.807       51.143     7297.680     5746.756     2615.630        1.457        0.783      116.144       53.604        0.213      340.394       14.384      857.248
05/29/2013  00:07:00      -70.791      123.436      -10.223       62.023       97.557       49.876     3846.825     9517.271     2487.600        1.810        0.793      142.294       46.808        0.108      340.366       14.335      857.234
05/29/2013  00:08:00     -172.871      137.207      -21.924       91.560       99.427       52.592     8383.256     9885.765     2765.918        3.511        1.052      220.703       55.066        0.062      340.373       14.347      857.201
05/29/2013  00:09:00     -157.080      192.029      -33.370       78.848       80.566       42.443     6217.066     6490.961     1801.432        3.858        0.725      248.091       42.381        0.029      340.325       14.264      857.181
05/29/2013  00:10:00     -205.833       16.681      -19.409       83.553      115.370       45.997     6981.132    13310.295     2115.681        3.271        1.120      206.507       33.970        0.027      340.307       14.234      857.215
05/29/2013  00:11:00     -108.392      -40.147        0.887       86.030       71.649       43.064     7401.102     5133.649     1854.469        1.387        0.719      115.588       40.514        0.123      340.258       14.152      857.249
05/29/2013  00:12:00     -194.482       25.579      -14.187       96.401      112.400       48.806     9293.193    12633.679     2382.058        3.149        1.215      196.157       42.817        0.048      340.249       14.135      857.238
05/29/2013  00:13:00     -146.923       13.773       -8.994       95.668       81.371       38.995     9152.304     6621.307     1520.579        1.957        0.865      147.567       43.563        0.087      340.210       14.071      857.223
05/29/2013  00:14:00     -295.142      -70.158      -10.227       82.913      121.615       60.744     6874.629    14790.209     3689.807        5.874        1.268      303.366       49.356        0.026      340.203       14.057      857.217
05/29/2013  00:15:00     -224.887      -46.453      -18.064      105.314       80.884       45.460    11091.127     6542.192     2066.597        3.638        0.985      229.634       29.361        0.016      340.190       14.037      857.157
05/29/2013  00:16:00     -160.249      -19.553       -0.223      127.475      100.397       71.538    16249.889    10079.595     5117.644        2.875        1.572      161.438       68.793        0.182      340.216       14.081      857.119
05/29/2013  00:17:00     -334.805      -73.473       -1.963      248.065      169.567       76.114    61536.175    28752.938     5793.405       10.677        4.804      342.772       95.635        0.078      340.279       14.186      857.082
05/29/2013  00:18:00     -329.171      -65.072      -10.062      139.417      147.520       69.974    19436.990    21762.189     4896.375        7.938        2.305      335.541       69.407        0.043      340.288       14.203      857.060
05/29/2013  00:19:00     -474.308     -105.959      -32.527      179.632      142.902       77.511    32267.635    20421.040     6007.942       14.797        2.935      485.999       87.916        0.033      340.368       14.337      857.027
05/29/2013  00:20:00     -404.250     -123.843      -19.926      165.948      132.132       77.449    27538.837    17458.873     5998.416       11.507        2.550      422.795       78.936        0.035      340.408       14.403      856.985
05/29/2013  00:21:00     -315.534     -126.312        7.830      173.009      172.231       78.828    29932.146    29663.402     6213.869        9.068        3.290      339.877       75.005        0.049      340.442       14.461      856.986
05/29/2013  00:22:00     -309.836     -111.411       -3.491      211.632      172.543       89.463    44788.248    29771.043     8003.658        9.548        4.128      329.258       98.582        0.090      340.420       14.426      856.973
05/29/2013  00:23:00     -395.284      -66.814      -41.878      129.179      166.564       69.776    16687.124    27743.707     4868.621       10.587        2.465      400.891       55.440        0.019      340.425       14.434      856.967
05/29/2013  00:24:00     -407.483     -119.287      -30.802      179.854      193.797       90.472    32347.433    37557.183     8185.208       12.964        3.904      424.584       90.373        0.045      340.431       14.443      856.959
05/29/2013  00:25:00     -423.433      -42.827      -23.123      279.526      134.623       94.532    78134.701    18123.367     8936.368       14.341        5.260      425.594      127.474        0.090      340.433       14.447      856.954
05/29/2013  00:26:00     -357.940     -118.929      -11.490      210.740      159.372       81.088    44411.194    25399.470     6575.223       10.938        3.819      377.181       65.826        0.030      340.414       14.416      856.966
05/29/2013  00:27:00     -471.522     -110.143      -15.774      206.983      150.824       92.425    42841.899    22747.807     8542.373       15.441        3.707      484.215      104.627        0.047      340.417       14.420      856.972
05/29/2013  00:28:00     -416.185     -142.415       -0.511      203.127      149.456       76.515    41260.745    22336.984     5854.587       13.146        3.473      439.878       86.408        0.039      340.385       14.365      856.978
05/29/2013  00:29:00     -404.889      -88.786       -7.061      234.623      149.614       74.298    55048.104    22384.236     5520.247       12.740        4.148      414.509       90.112        0.047      340.368       14.337      856.985
05/29/2013  00:30:00     -604.898      -58.130      -74.070      210.281      178.553       82.251    44217.926    31881.255     6765.173       22.880        4.143      607.685       83.693        0.019      340.419       14.425      856.969
05/29/2013  00:31:00     -397.902      -85.664      -28.089      175.437      127.240       69.185    30778.295    16190.122     4786.596       10.910        2.588      407.019       62.492        0.024      340.393       14.379      856.976
05/29/2013  00:32:00     -516.937     -214.148      -27.238      177.413      155.636       79.408    31475.262    24222.414     6305.637       18.790        3.100      559.538       67.957        0.015      340.421       14.426      856.992
05/29/2013  00:33:00     -401.708      -56.707      -36.078      178.796      156.230       79.120    31968.183    24407.846     6260.004       11.425        3.132      405.691       78.859        0.038      340.385       14.365      857.006
05/29/2013  00:34:00     -442.259      -27.546      -36.858      204.837      107.650       83.837    41958.019    11588.628     7028.605       12.913        3.029      443.116      106.033        0.057      340.376       14.351      856.995
05/29/2013  00:35:00     -490.603     -110.819      -16.494      142.064      171.270       79.895    20182.273    29333.581     6383.238       15.456        2.795      502.964       73.031        0.021      340.380       14.358      856.952
05/29/2013  00:36:00     -519.581      -39.466      -49.365      169.967      145.170       76.414    28888.799    21074.398     5839.031       16.487        2.790      521.078       72.775        0.020      340.389       14.373      856.925
05/29/2013  00:37:00     -469.230     -105.740      -26.256      157.167      149.272       78.922    24701.613    22282.072     6228.608       14.262        2.661      480.996       82.007        0.029      340.386       14.368      856.897
05/29/2013  00:38:00     -455.724      -63.143      -40.154      145.613      136.224       79.036    21203.288    18556.866     6246.729       12.964        2.300      460.077       68.370        0.022      340.384       14.366      856.879
05/29/2013  00:39:00     -432.621      -45.571      -43.721      150.959      144.820       72.893    22788.545    20972.887     5313.393       12.010        2.454      435.014       64.816        0.022      340.397       14.387      856.823
05/29/2013  00:40:00     -449.843     -127.732      -45.581      132.724      124.667       64.659    17615.711    15541.759     4180.744       12.904        1.867      467.626       47.685        0.010      340.406       14.401      856.781
05/29/2013  00:41:00     -484.991      -53.035      -49.407      132.900      132.502       74.179    17662.477    17556.688     5502.510       14.059        2.036      487.882       56.424        0.013      340.381       14.359      856.756
05/29/2013  00:42:00     -543.793      -43.621      -47.811      180.361      148.111       73.929    32530.023    21936.807     5465.495       17.991        2.997      545.540       70.006        0.016      340.421       14.427      856.733
05/29/2013  00:43:00     -524.869      -44.955      -43.163      191.671      132.506       73.062    36737.938    17557.784     5338.106       16.949        2.982      526.791       87.841        0.028      340.416       14.417      856.693
05/29/2013  00:44:00     -439.579        0.531      -23.358      191.516      160.020       78.047    36678.290    25606.470     6091.328       13.106        3.419      439.580       92.763        0.045      340.381       14.360      856.641
05/29/2013  00:45:00     -422.335      -78.514      -17.095      198.501      132.027       78.425    39402.800    17431.117     6150.434       12.389        3.149      429.571       84.986        0.039      340.352       14.311      856.606
05/29/2013  00:46:00     -356.499      -86.654      -37.722      174.936      143.849       77.297    30602.550    20692.652     5974.772        9.664        2.863      366.879       81.375        0.049      340.374       14.346      856.605
05/29/2013  00:47:00     -462.948     -145.250      -34.577      215.862      176.289       86.544    46596.269    31077.850     7489.877       16.087        4.258      485.199       90.718        0.035      340.396       14.384      856.611
05/29/2013  00:48:00     -508.797     -154.809      -21.152      197.789      168.661       87.327    39120.553    28446.460     7625.993       17.923        3.760      531.827       91.877        0.030      340.449       14.473      856.622
05/29/2013  00:49:00     -385.894     -116.089      -32.476      156.827      127.254       70.070    24594.836    16193.607     4909.814       10.456        2.285      402.978       62.601        0.024      340.423       14.430      856.648
05/29/2013  00:50:00     -455.673      -64.991      -20.798      162.118      135.545       76.376    26282.339    18372.561     5833.295       13.138        2.524      460.284       79.167        0.030      340.394       14.381      856.660
05/29/2013  00:51:00     -469.686      -86.585      -27.782      185.101      120.681       72.228    34262.351    14563.783     5216.933       14.145        2.702      477.600       74.729        0.024      340.371       14.342      856.657
05/29/2013  00:52:00     -609.133     -131.740      -35.491      176.147      113.176       75.909    31027.686    12808.887     5762.225       21.962        2.480      623.216       86.673        0.019      340.439       14.456      856.663
05/29/2013  00:53:00     -479.084      -85.442      -20.715      201.177      157.938       90.155    40472.004    24944.288     8127.979       15.539        3.677      486.643       93.546        0.037      340.555       14.653      856.692
05/29/2013  00:54:00     -555.317     -129.771      -37.676      171.940      125.618       79.113    29563.433    15779.897     6258.819       18.911        2.580      570.279       82.568        0.021      340.542       14.633      856.703
05/29/2013  00:55:00     -376.826      -56.545      -29.203      132.209      129.535       70.452    17479.123    16779.319     4963.441        9.263        1.961      381.044       65.636        0.030      340.435       14.451      856.728
05/29/2013  00:56:00     -494.063      -70.509      -20.925      204.158      154.486       88.012    41680.520    23866.033     7746.103       16.139        3.665      499.069       92.553        0.034      340.403       14.395      856.771
05/29/2013  00:57:00     -379.535      -62.107        1.311      198.710      142.414       85.888    39485.660    20281.675     7376.776       10.751        3.357      384.583      104.674        0.074      340.384       14.364      856.779
05/29/2013  00:58:00     -397.132     -103.979      -13.694      191.992      167.930       83.763    36861.073    28200.392     7016.251       12.038        3.604      410.518       96.324        0.055      340.419       14.423      856.802
05/29/2013  00:59:00     -303.133     -184.908      -12.755      180.507      167.789       85.764    32582.615    28152.990     7355.430        9.716        3.405      355.078      108.457        0.093      340.451       14.477      856.812
05/29/2013  01:00:00     -468.546        1.320      -17.759      173.314      134.753       84.077    30037.715    18158.451     7069.008       13.755        2.763      468.548       84.190        0.032      340.455       14.483      856.832
05/29/2013  01:01:00     -548.163      -57.752      -33.202      200.934      117.242       83.474    40374.517    13745.609     6967.941       18.299        3.054      551.197       87.078        0.025      340.473       14.515      856.836
05/29/2013  01:02:00     -454.486      -87.453      -10.397      180.514      135.906       78.276    32585.436    18470.349     6127.137       13.574        2.859      462.824       86.763        0.035      340.439       14.455      856.862
05/29/2013  01:03:00     -350.412      -73.432        4.587      190.442      123.113       74.313    36267.997    15156.848     5522.427        9.257        2.847      358.024       91.149        0.065      340.409       14.407      856.893
05/29/2013  01:04:00     -490.583      -86.047      -14.669      174.782      115.921       73.678    30548.823    13437.748     5428.474       14.884        2.471      498.072       80.883        0.026      340.490       14.544      856.908
05/29/2013  01:05:00     -329.969     -182.655       -5.210      164.831      139.616       86.898    27169.394    19492.730     7551.294        9.823        2.711      377.150       86.835        0.053      340.514       14.584      856.949
05/29/2013  01:06:00     -225.692      -99.433       -7.805      163.935      111.941       62.613    26874.770    12530.898     3920.371        5.210        2.166      246.625       72.440        0.086      340.505       14.570      856.959
05/29/2013  01:07:00     -232.996     -182.144       -4.460      138.849       96.898       60.122    19279.178     9389.171     3614.637        5.988        1.614      295.743       57.818        0.038      340.538       14.623      856.975
05/29/2013  01:08:00     -207.247     -116.503       -7.265      102.783       72.230       42.707    10564.404     5217.228     1823.852        3.709        0.880      237.748       44.085        0.034      340.528       14.608      856.984
05/29/2013  01:09:00     -233.939     -159.868       -8.613      104.231       75.222       53.285    10864.201     5658.328     2839.325        4.986        0.968      283.347       50.451        0.032      340.489       14.542      856.985
05/29/2013  01:10:00     -133.641      -24.512       -4.313       86.433       62.323       32.933     7470.622     3884.113     1084.592        1.546        0.622      135.870       39.317        0.084      340.425       14.434      857.008
05/29/2013  01:11:00     -243.795      -87.213      -10.534       99.244       55.678       43.009     9849.419     3100.033     1849.759        4.097        0.740      258.925       37.944        0.021      340.416       14.417      857.008
05/29/2013  01:12:00     -149.250      -86.385        3.929       94.534       76.179       47.839     8936.680     5803.259     2288.554        2.339        0.851      172.447       45.231        0.069      340.397       14.386      857.010
05/29/2013  01:13:00     -192.818      -34.933       -4.375       59.920       74.100       36.611     3590.373     5490.782     1340.382        2.442        0.521      195.956       34.750        0.031      340.353       14.312      857.008
05/29/2013  01:14:00     -124.166        1.413       -1.733       54.703       37.763       28.814     2992.452     1426.073      830.226        1.033        0.262      124.174       26.777        0.047      340.308       14.238      856.991
05/29/2013  01:15:00     -147.246      -30.404        0.803       59.323       49.003       29.872     3519.219     2401.261      892.331        1.471        0.341      150.352       32.248        0.046      340.217       14.084      856.990
05/29/2013  01:16:00     -156.793      -52.803        2.789       93.675       50.816       31.748     8774.948     2582.288     1007.908        1.987        0.618      165.445       38.303        0.054      340.194       14.045      857.000
05/29/2013  01:17:00     -169.730       -6.409       -7.121       52.634       35.630       25.742     2770.318     1269.504      662.653        1.680        0.235      169.851       23.921        0.020      340.184       14.028      856.987
05/29/2013  01:18:00     -208.739      -19.097       -2.913      111.520       58.378       39.828    12436.799     3408.033     1586.233        3.069        0.872      209.611       44.767        0.046      340.241       14.122      856.967
05/29/2013  01:19:00     -160.609      -30.278       -4.074       88.404       63.373       39.247     7815.342     4016.189     1540.320        2.005        0.669      163.438       39.690        0.059      340.229       14.104      856.955
05/29/2013  01:20:00      -80.409      -62.518       10.224       68.773       49.098       34.491     4729.767     2410.659     1189.620        0.940        0.417      101.854       35.877        0.124      340.203       14.060      856.935
05/29/2013  01:21:00     -139.394      -77.706       -2.041       42.375       34.557       30.133     1795.654     1194.213      907.968        1.468        0.195      159.590       26.849        0.028      340.135       13.947      856.913
05/29/2013  01:22:00     -255.705      -40.246      -16.783      122.298       78.042       42.553    14956.834     6090.575     1810.757        4.507        1.143      258.853       45.057        0.030      340.169       14.001      856.889
05/29/2013  01:23:00     -240.778      -67.922       -6.248      121.960       93.838       50.704    14874.219     8805.524     2570.938        4.443        1.313      250.174       48.802        0.038      340.152       13.973      856.885
05/29/2013  01:24:00     -213.098      -62.975       -6.859       79.243       63.525       42.797     6279.423     4035.392     1831.623        3.078        0.607      222.208       45.031        0.041      340.117       13.914      856.890
05/29/2013  01:25:00     -202.918      -68.169       -4.039       93.081       78.660       40.455     8663.994     6187.459     1636.627        3.116        0.824      214.062       43.262        0.041      340.090       13.869      856.878
05/29/2013  01:26:00     -225.006      -66.449        6.003      131.738       94.513       52.671    17354.846     8932.614     2774.198        4.207        1.453      234.612       57.670        0.060      340.129       13.934      856.869
05/29/2013  01:27:00     -229.289      -61.668        2.406      118.858      102.875       57.619    14127.124    10583.290     3319.950        4.220        1.402      237.437       59.316        0.062      340.187       14.030      856.862
05/29/2013  01:28:00     -284.135      -71.113        0.647      110.869       89.652       54.050    12291.977     8037.404     2921.441        5.452        1.163      292.899       47.153        0.026      340.219       14.086      856.852
05/29/2013  01:29:00     -204.302      -57.491       -5.908      148.207       69.921       39.693    21965.389     4888.958     1575.537        3.675        1.421      212.237       58.980        0.077      340.248       14.136      856.836
05/29/2013  01:30:00     -121.417      -65.711        9.239       94.896       75.778       45.036     9005.336     5742.298     2028.228        1.796        0.839      138.058       54.310        0.155      340.175       14.013      856.814
05/29/2013  01:31:00     -245.082      -72.626       -2.991      122.404       77.978       45.154    14982.766     6080.531     2038.927        4.422        1.155      255.616       47.782        0.035      340.218       14.084      856.800
05/29/2013  01:32:00     -223.167     -100.537       -5.627       67.061       63.355       39.506     4497.202     4013.915     1560.759        3.501        0.504      244.768       32.612        0.018      340.204       14.058      856.807
05/29/2013  01:33:00     -210.046      -58.410       -5.248       96.814       90.714       52.738     9372.913     8229.022     2781.296        3.397        1.019      218.016       59.192        0.074      340.160       13.985      856.820
05/29/2013  01:34:00     -218.699      -64.546       -9.123       68.184       52.461       30.435     4648.997     2752.172      926.288        3.020        0.416      228.025       25.366        0.012      340.118       13.916      856.826
05/29/2013  01:35:00     -195.842      -32.855      -14.517       84.583       65.233       40.525     7154.261     4255.372     1642.315        2.635        0.653      198.579       45.102        0.052      340.073       13.839      856.821
05/29/2013  01:36:00     -161.249      -96.579        7.131       49.693       78.630       38.081     2469.398     6182.686     1450.162        2.274        0.505      187.960       33.628        0.032      340.075       13.844      856.816
05/29/2013  01:37:00     -196.838      -46.384       -8.149       63.615       60.108       31.974     4046.873     3612.924     1022.323        2.482        0.434      202.229       30.295        0.022      340.073       13.840      856.800
05/29/2013  01:38:00     -180.884      -60.410        1.495       86.101       78.525       41.538     7413.347     6166.154     1725.446        2.584        0.765      190.705       43.656        0.052      340.061       13.820      856.795
05/29/2013  01:39:00     -208.894      -47.072       -6.081       80.372       50.173       37.972     6459.595     2517.289     1441.888        2.815        0.521      214.132       37.739        0.031      340.058       13.815      856.766
05/29/2013  01:40:00     -214.299      -80.045      -10.192      105.436      108.196       48.016    11116.701    11706.422     2305.525        3.878        1.256      228.761       51.296        0.050      340.103       13.891      856.720
05/29/2013  01:41:00     -314.448     -102.030      -10.562      138.231       77.329       55.068    19107.810     5979.761     3032.530        6.875        1.406      330.587       51.557        0.024      340.136       13.945      856.683
05/29/2013  01:42:00     -324.968      -17.854      -13.487      133.477      115.084       59.890    17816.120    13244.260     3586.780        7.037        1.732      325.458       61.569        0.036      340.159       13.984      856.655
05/29/2013  01:43:00     -262.011       12.302      -21.449      121.351       79.171       46.827    14726.041     6268.000     2192.725        4.622        1.159      262.300       55.819        0.045      340.161       13.985      856.618
05/29/2013  01:44:00     -318.984      -41.883      -15.064      114.740       83.622       48.565    13165.354     6992.643     2358.605        6.312        1.126      321.722       55.613        0.030      340.205       14.060      856.591
05/29/2013  01:45:00     -236.291      -17.306       -4.892      130.566       75.270       63.729    17047.476     5665.596     4061.411        4.146        1.339      236.924       72.094        0.093      340.181       14.021      856.559
05/29/2013  01:46:00     -252.539      -47.953       -9.050      118.282      106.026       63.620    13990.599    11241.507     4047.524        4.771        1.464      257.052       62.414        0.059      340.195       14.045      856.532
05/29/2013  01:47:00     -299.900      -30.183      -19.491      125.028      113.510       55.954    15632.102    12884.566     3130.806        6.143        1.582      301.415       53.434        0.031      340.186       14.029      856.523
05/29/2013  01:48:00     -353.783       -2.584      -24.950      103.415      109.402       57.901    10694.664    11968.694     3352.471        7.590        1.301      353.793       48.377        0.019      340.181       14.020      856.530
05/29/2013  01:49:00     -335.441      -18.161      -17.722      114.507       81.381       51.554    13111.886     6622.938     2657.850        6.777        1.120      335.932       41.066        0.015      340.196       14.045      856.544
05/29/2013  01:50:00     -245.834      -48.043       -1.629      105.312       80.356       48.905    11090.634     6457.076     2391.674        4.134        0.997      250.484       53.430        0.045      340.143       13.957      856.541
05/29/2013  01:51:00     -223.026      -47.733       -3.470       79.651       71.498       46.565     6344.354     5111.957     2168.326        3.283        0.681      228.077       37.293        0.027      340.120       13.918      856.552
05/29/2013  01:52:00     -259.538       -9.645      -10.801      149.490       71.902       52.046    22347.224     5169.838     2708.754        4.889        1.511      259.717       66.307        0.065      340.141       13.953      856.541
05/29/2013  01:53:00     -215.321      -32.437       -1.960      153.599      108.956       64.508    23592.710    11871.465     4161.218        4.352        1.981      217.750       78.106        0.129      340.134       13.942      856.503
05/29/2013  01:54:00     -338.911      -72.817      -19.161      136.292       87.783       57.293    18575.644     7705.894     3282.498        7.504        1.478      346.645       62.318        0.032      340.182       14.023      856.464
05/29/2013  01:55:00     -397.330      -11.417      -32.792      115.074      114.221       54.079    13242.010    13046.404     2924.565        9.414        1.461      397.494       39.768        0.010      340.209       14.067      856.418
05/29/2013  01:56:00     -502.640      -73.447      -33.311      135.318      163.230       68.480    18310.963    26644.180     4689.503       15.439        2.482      507.978       67.410        0.018      340.220       14.086      856.371
05/29/2013  01:57:00     -392.018      -19.022      -37.799      147.901      101.914       56.916    21874.659    10386.470     3239.427        9.548        1.775      392.479       65.575        0.028      340.205       14.060      856.351
05/29/2013  01:58:00     -295.165      -56.327        1.834      151.669      112.986       66.108    23003.573    12765.836     4370.237        6.521        2.007      300.492       74.926        0.062      340.193       14.041      856.321
05/29/2013  01:59:00     -324.190      -74.818      -11.026      128.629      107.441       66.744    16545.399    11543.476     4454.816        7.168        1.627      332.712       69.864        0.044      340.215       14.077      856.291
05/29/2013  02:00:00     -376.277     -106.325      -12.899      157.457      148.892       67.241    24792.559    22168.777     4521.356       10.226        2.574      391.011       77.376        0.039      340.246       14.131      856.279
05/29/2013  02:01:00     -374.895      -57.843      -20.601      138.318      111.340       64.582    19131.871    12396.593     4170.778        9.000        1.785      379.331       64.699        0.029      340.256       14.148      856.273
05/29/2013  02:02:00     -160.412      -51.293       11.435      144.884      122.382       64.045    20991.291    14977.341     4101.801        3.428        2.004      168.413       62.072        0.136      340.252       14.140      856.291
05/29/2013  02:03:00     -468.149      -85.115       -4.843      282.076      150.853       87.232    79567.039    22756.588     7609.335       16.816        5.497      475.823      116.151        0.060      340.293       14.210      856.295
05/29/2013  02:04:00     -355.708     -123.461       -1.100      227.944      168.385       97.555    51958.291    28353.418     9517.036       11.579        4.491      376.525      117.548        0.097      340.294       14.212      856.293
05/29/2013  02:05:00     -367.441      -72.897      -13.975      151.929      104.743       70.530    23082.549    10971.012     4974.488        8.977        1.951      374.602       70.337        0.035      340.291       14.206      856.316
05/29/2013  02:06:00     -444.682      -83.130      -21.655      159.025      142.160       70.349    25288.925    20209.505     4949.038       12.778        2.522      452.386       81.976        0.033      340.295       14.214      856.298
05/29/2013  02:07:00     -482.442      -52.605      -24.474      177.924      119.435       71.172    31656.916    14264.605     5065.387       14.354        2.549      485.302       64.375        0.018      340.304       14.229      856.306
05/29/2013  02:08:00     -298.281      -15.362       -0.634      177.276      147.040       78.606    31426.758    21620.661     6178.970        7.421        2.961      298.676       82.561        0.076      340.276       14.182      856.301
05/29/2013  02:09:00     -234.750      -63.387       13.440      188.095      122.848       88.960    35379.753    15091.598     7913.811        5.884        2.919      243.157      105.622        0.189      340.264       14.161      856.299
05/29/2013  02:10:00     -453.765      -40.193      -13.103      228.510      165.833       84.385    52216.598    27500.612     7120.817       14.725        4.342      455.541       98.899        0.047      340.295       14.213      856.305
05/29/2013  02:11:00     -353.233      -31.245      -11.464      171.827      109.714       67.358    29524.486    12037.126     4537.130        8.598        2.305      354.613       78.786        0.049      340.284       14.194      856.306
05/29/2013  02:12:00     -445.191      -13.448      -34.992      148.442      122.923       70.852    22035.107    15110.024     5020.017       12.088        2.108      445.394       72.499        0.026      340.292       14.208      856.305
05/29/2013  02:13:00     -359.504      -89.775      -13.220      178.311      134.676       72.959    31794.918    18137.568     5323.010        9.636        2.763      370.544       75.957        0.042      340.300       14.223      856.311
05/29/2013  02:14:00     -352.256      -87.236      -17.413      176.241      123.241       69.855    31060.807    15188.257     4879.697        9.155        2.556      362.897       85.332        0.055      340.305       14.229      856.299
05/29/2013  02:15:00     -392.524     -133.436       -4.709      206.348      110.005       65.117    42579.629    12101.141     4240.270       11.540        2.946      414.585       80.977        0.038      340.348       14.303      856.291
05/29/2013  02:16:00     -279.922      -38.536        2.371      169.933      108.185       79.865    28877.157    11704.089     6378.454        6.340        2.348      282.562       89.958        0.101      340.344       14.298      856.275
05/29/2013  02:17:00     -246.042     -103.199       -4.544      148.425      128.595       69.527    22029.988    16536.593     4834.039        5.730        2.170      266.808       76.145        0.081      340.415       14.417      856.280
05/29/2013  02:18:00     -169.423      -53.367        7.238      115.536       74.283       50.451    13348.489     5517.958     2545.320        2.650        1.071      177.630       56.377        0.101      340.372       14.344      856.283
05/29/2013  02:19:00     -350.477      -81.162      -14.818      135.871      114.396       52.315    18460.868    13086.430     2736.857        8.196        1.714      359.752       38.638        0.012      340.404       14.397      856.280
05/29/2013  02:20:00     -317.513      -65.582      -15.516      150.744      141.998       73.433    22723.701    20163.358     5392.358        7.681        2.414      324.215       73.175        0.051      340.426       14.434      856.240
05/29/2013  02:21:00     -243.259      -37.578      -25.713      109.279      100.351       54.700    11941.950    10070.384     2992.102        4.312        1.250      246.144       54.384        0.049      340.376       14.350      856.221
05/29/2013  02:22:00     -279.531        3.363       -3.968      107.447      108.809       63.623    11544.816    11839.309     4047.902        5.279        1.372      279.551       59.328        0.045      340.380       14.357      856.255
05/29/2013  02:23:00     -297.692      -59.475      -10.864      114.654       74.541       48.931    13145.494     5556.393     2394.220        5.668        1.055      303.575       53.729        0.031      340.410       14.408      856.266
05/29/2013  02:24:00     -170.970      -50.963       12.299       87.907       92.913       50.333     7727.563     8632.824     2533.396        2.543        0.945      178.403       52.680        0.087      340.347       14.304      856.286
05/29/2013  02:25:00     -175.851      -15.000      -23.382       52.870       59.154       35.586     2795.257     3499.233     1266.375        1.963        0.378      176.489       25.998        0.022      340.340       14.292      856.301
05/29/2013  02:26:00     -242.728      -13.802      -22.703       70.925       90.802       35.159     5030.394     8245.015     1236.180        3.706        0.726      243.120       28.946        0.014      340.312       14.241      856.298
05/29/2013  02:27:00     -107.849      -43.159       -1.551       61.336       57.757       31.514     3762.115     3335.849      993.144        1.079        0.405      116.164       32.560        0.079      340.270       14.173      856.316
05/29/2013  02:28:00      -98.290      -36.909       14.943       91.031       92.991       48.301     8286.591     8647.379     2333.024        1.525        0.963      104.991       42.441        0.163      340.229       14.104      856.305
05/29/2013  02:29:00     -114.968     -101.788        3.968      102.585      140.163       49.023    10523.726    19645.723     2403.207        2.808        1.629      153.552       59.039        0.148      340.237       14.116      856.316
05/29/2013  02:30:00     -117.734     -114.807        3.398       76.888       77.657       48.420     5911.827     6030.617     2344.498        2.067        0.714      164.445       54.877        0.111      340.275       14.179      856.310
05/29/2013  02:31:00      -17.265      -72.741        2.189       31.055       39.262       22.923      964.425     1541.499      525.442        0.431        0.152       74.762       21.970        0.086      340.305       14.234      856.293
05/29/2013  02:32:00      -19.618      -29.138       19.883       23.189       41.990       15.277      537.734     1763.167      233.383        0.208        0.127       35.127       18.250        0.270      340.246       14.133      856.272
05/29/2013  02:33:00       -8.753       37.374       46.477       14.643       19.495       15.328      214.428      380.056      234.942        0.223        0.041       38.385       11.491        0.090      340.205       14.065      856.270
05/29/2013  02:34:00        5.018       31.643       36.710       18.356       19.919       16.017      336.960      396.779      256.551        0.168        0.050       32.039       12.361        0.149      340.223       14.095      856.294
05/29/2013  02:35:00       10.792       17.111        3.913       19.470       24.256       12.182      379.074      588.340      148.408        0.077        0.056       20.230        9.159        0.205      340.234       14.114      856.316
05/29/2013  02:36:00       -2.824        0.858       -5.561       10.549       10.607        5.501      111.279      112.513       30.260        0.015        0.013        2.951        5.465        3.428      340.223       14.095      856.309
05/29/2013  02:37:00      -30.362      109.040       -6.027       54.716       34.493       29.118     2993.872     1189.736      847.877        0.894        0.252      113.188       36.089        0.102      340.220       14.088      856.257
05/29/2013  02:38:00      -56.530       41.172       -9.717       74.809       80.152       33.746     5596.368     6424.406     1138.796        0.907        0.658       69.934       38.492        0.303      340.321       14.256      856.222
05/29/2013  02:39:00     -200.924       79.588      -12.805       56.336       30.215       28.900     3173.720      912.920      835.230        2.589        0.246      216.113       23.554        0.012      340.231       14.108      856.182
05/29/2013  02:40:00     -183.320       -6.403       -9.954       89.542       73.390       43.623     8017.798     5386.027     1902.934        2.452        0.765      183.432       40.438        0.049      340.150       13.970      856.135
05/29/2013  02:41:00      -58.070      -22.506        4.938       34.043       40.512       18.201     1158.919     1641.255      331.278        0.352        0.157       62.279       20.178        0.105      340.150       13.970      856.116
05/29/2013  02:42:00       -4.829       -8.546        8.790       12.516       15.667       14.685      156.640      245.449      215.645        0.040        0.031        9.816       11.026        1.262      340.148       13.967      856.062
05/29/2013  02:43:00       30.289       20.902        4.196       13.738       10.612       21.000      188.744      112.605      441.019        0.106        0.037       36.801       11.043        0.090      340.183       14.029      856.046
05/29/2013  02:44:00       68.866       33.078       13.132       21.008       13.937       15.775      441.327      194.248      248.858        0.345        0.044       76.398        7.646        0.010      340.154       13.978      856.037
05/29/2013  02:45:00       57.903       15.142       10.298       22.573       23.717       21.412      509.557      562.508      458.471        0.261        0.077       59.850       11.332        0.036      340.184       14.029      855.996
05/29/2013  02:46:00       55.868       28.634       23.289       16.840       13.660       18.618      283.600      186.586      346.622        0.265        0.041       62.779        7.022        0.013      340.146       13.964      855.950
05/29/2013  02:47:00       14.146       19.594       37.277       24.242       22.229       17.735      587.680      494.128      314.542        0.168        0.070       24.167       18.023        0.556      340.134       13.944      855.920
05/29/2013  02:48:00       12.406       26.279       50.461       30.494       31.739       17.740      929.893     1007.377      314.712        0.282        0.113       29.061       16.651        0.328      340.107       13.900      855.882
05/29/2013  02:49:00      102.494       41.685       11.951       23.547       36.608       23.532      554.463     1340.118      553.777        0.742        0.122      110.646       13.536        0.015      340.282       14.193      855.840
05/29/2013  02:50:00       55.359       18.965       10.620       52.910       62.916       26.818     2799.482     3958.400      719.205        0.551        0.374       58.518        9.413        0.026      340.205       14.066      855.818
05/29/2013  02:51:00       25.574        2.186       59.489       36.990       44.914       37.063     1368.293     2017.294     1373.647        0.448        0.238       25.667       21.312        0.689      340.150       13.973      855.848
05/29/2013  02:52:00       20.956       50.777       82.028       38.089       62.540       41.515     1450.798     3911.307     1723.526        0.841        0.354       54.931       45.140        0.675      340.184       14.029      855.900
05/29/2013  02:53:00      113.823       58.935       57.540       59.912       46.342       43.293     3589.469     2147.595     1874.274        1.367        0.381      128.176       43.585        0.116      340.365       14.335      855.912
05/29/2013  02:54:00        7.722       27.816       15.731       29.290       33.838       18.887      857.878     1145.014      356.721        0.172        0.118       28.868       14.793        0.263      340.324       14.265      855.911
05/29/2013  02:55:00      -13.347      -15.587       -0.611       53.507       36.685       19.164     2863.036     1345.783      367.266        0.250        0.229       20.521       14.501        0.499      340.244       14.130      855.927
05/29/2013  02:56:00     -125.896      -57.713        5.311       57.557       50.230       32.480     3312.780     2523.050     1054.954        1.305        0.345      138.493       32.173        0.054      339.913       13.572      855.900
05/29/2013  02:57:00      -73.910      -28.363       -2.849       34.358       26.488       23.016     1180.473      701.605      529.747        0.434        0.121       79.165       20.910        0.070      339.876       13.509      855.854
05/29/2013  02:58:00      -44.673      -33.498        2.398       53.220       31.419       26.559     2832.399      987.125      705.389        0.382        0.226       55.837       29.747        0.284      339.855       13.474      855.835
05/29/2013  02:59:00      -71.556      -32.079        0.362       52.633       31.603       24.567     2770.240      998.752      603.539        0.526        0.219       78.418       18.414        0.055      339.776       13.341      855.838
05/29/2013  03:00:00      -80.292      -59.777        2.019       59.725       45.555       26.426     3567.032     2075.222      698.308        0.818        0.317      100.100       26.227        0.069      339.812       13.401      855.828
05/29/2013  03:01:00      -33.578      -39.323       -6.587       45.832       31.375       16.559     2100.575      984.374      274.194        0.304        0.168       51.709       22.282        0.186      339.885       13.525      855.762
05/29/2013  03:02:00       -4.547       -7.982       24.871       17.389       36.486       20.994      302.392     1331.236      440.736        0.139        0.104        9.186       20.452        4.957      339.806       13.391      855.682
05/29/2013  03:03:00      -27.574      -53.128       -6.679       23.660       23.292       18.882      559.814      542.511      356.520        0.254        0.073       59.857       14.289        0.057      339.927       13.597      855.657
05/29/2013  03:04:00        9.568       -2.013       18.386       28.085       17.586       12.935      788.785      309.269      167.302        0.085        0.063        9.778       10.706        1.199      339.834       13.440      855.628
05/29/2013  03:05:00       18.443      -18.796        6.068       37.048       21.687       20.226     1372.534      470.336      409.087        0.149        0.113       26.333       19.674        0.558      340.006       13.730      855.592
05/29/2013  03:06:00      -71.060      -30.249       -4.061       32.756       29.331       16.096     1072.943      860.312      259.094        0.409        0.110       77.230       12.045        0.024      339.849       13.466      855.580
05/29/2013  03:07:00      -37.396      -31.118        6.626       44.241       27.063       25.036     1957.261      732.401      626.820        0.286        0.166       48.649       14.746        0.092      339.700       13.214      855.568
05/29/2013  03:08:00      -16.579      -23.245        2.513       15.463        9.858       13.144      239.110       97.186      172.772        0.067        0.025       28.551       11.076        0.150      339.886       13.528      855.530
05/29/2013  03:09:00       -7.254      -13.890       16.274       16.816       22.593       11.763      282.783      510.432      138.368        0.072        0.047       15.670        7.634        0.237      339.718       13.246      855.538
05/29/2013  03:10:00      -12.372      -57.912      -15.037       18.733       29.661       11.053      350.940      879.781      122.179        0.254        0.068       59.219        8.845        0.022      339.875       13.509      855.562
05/29/2013  03:11:00      -33.684      -31.649       -1.964       42.667       31.174       20.403     1820.455      971.847      416.283        0.267        0.160       46.220       10.254        0.049      339.744       13.287      855.582
05/29/2013  03:12:00     -102.487      -90.253       -0.315       69.628       59.820       34.245     4848.090     3578.473     1172.725        1.412        0.480      136.562       38.821        0.081      339.684       13.188      855.620
05/29/2013  03:13:00      -88.153      -94.586       -2.092       58.060       41.639       23.917     3370.925     1733.778      572.014        1.120        0.284      129.296       28.498        0.049      339.655       13.137      855.654
05/29/2013  03:14:00       11.312      -50.665       24.701       34.771       65.554       29.374     1209.042     4297.273      862.812        0.484        0.318       51.913       38.929        0.562      339.750       13.298      855.629
05/29/2013  03:15:00       55.891       -0.753       50.621       78.844       81.950       65.244     6216.409     6715.745     4256.749        1.143        0.859       55.896       60.704        1.179      339.665       13.154      855.548
05/29/2013  03:16:00       58.962      -28.131       62.950       67.614      101.582       75.314     4571.645    10318.928     5672.239        1.439        1.028       65.329       77.708        1.415      339.849       13.463      855.460
05/29/2013  03:17:00      105.245     -118.282        7.481       74.408       83.938       51.154     5536.609     7045.517     2616.720        2.016        0.760      158.326       58.863        0.138      339.865       13.489      855.457
05/29/2013  03:18:00     -100.921      -54.861        3.880       77.736       45.656       35.287     6042.841     2084.495     1245.180        1.129        0.469      114.869       21.621        0.035      339.765       13.324      855.489
05/29/2013  03:19:00     -168.687      -72.609       -9.325       67.039       54.005       30.591     4494.276     2916.570      935.817        2.108        0.417      183.650       30.459        0.028      339.616       13.069      855.507
05/29/2013  03:20:00     -108.242      -98.886        3.403       61.555       41.221       32.581     3788.984     1699.185     1061.513        1.403        0.327      146.611       32.701        0.050      339.635       13.104      855.511
05/29/2013  03:21:00      -57.815     -123.547      -14.308       57.952       41.042       26.024     3358.481     1684.439      677.266        1.226        0.286      136.405       21.054        0.024      339.806       13.392      855.476
05/29/2013  03:22:00      -63.309      -75.552       -4.163       47.537       36.113       23.899     2259.742     1304.137      571.176        0.693        0.207       98.570       16.091        0.027      339.793       13.369      855.462
05/29/2013  03:23:00      -24.800      -29.485        2.035       27.795       27.656       18.020      772.585      764.844      324.734        0.168        0.093       38.528       16.071        0.174      339.756       13.307      855.435
05/29/2013  03:24:00       14.497      -61.526       -2.032       20.401       47.807       16.476      416.217     2285.494      271.461        0.349        0.149       63.211       21.663        0.117      339.834       13.439      855.402
05/29/2013  03:25:00      -45.810      -86.769       -5.123       48.075       35.563       23.089     2311.224     1264.728      533.118        0.688        0.205       98.119       20.827        0.045      339.845       13.456      855.383
05/29/2013  03:26:00      -18.460      -34.792        7.678       31.985       25.579       27.708     1023.048      654.308      767.744        0.203        0.122       39.386       16.794        0.182      339.732       13.268      855.377
05/29/2013  03:27:00      -78.727      -63.099       -4.055       66.405       40.277       27.044     4409.670     1622.224      731.390        0.848        0.338      100.893       30.015        0.089      339.786       13.359      855.364
05/29/2013  03:28:00      -74.217      -71.144        9.459       43.883       34.951       25.310     1925.704     1221.602      640.584        0.722        0.189      102.809       22.677        0.049      339.674       13.169      855.382
05/29/2013  03:29:00      -34.939     -111.200        2.738       22.112       42.338       17.495      488.953     1792.483      306.062        0.809        0.129      116.560        9.151        0.006      339.765       13.323      855.326
05/29/2013  03:30:00      -51.309      -63.282        0.518       29.900       39.828       18.706      894.011     1586.248      349.896        0.473        0.142       81.469       19.947        0.060      339.767       13.325      855.309
05/29/2013  03:31:00      -41.610      -20.676       10.829       45.167       22.156       20.076     2040.022      490.897      403.036        0.260        0.147       46.464       21.600        0.216      339.611       13.063      855.315
05/29/2013  03:32:00      -44.924      -40.784        5.439       42.193       40.585       18.397     1780.219     1647.116      338.455        0.374        0.188       60.675       17.581        0.084      339.622       13.084      855.310
05/29/2013  03:33:00      -76.998      -60.516       -0.194       48.698       34.300       20.295     2371.453     1176.468      411.907        0.677        0.198       97.934       27.909        0.081      339.578       13.009      855.319
05/29/2013  03:34:00      -16.085      -23.979        3.312       29.998       26.440       14.630      899.868      699.082      214.032        0.133        0.091       28.874        7.133        0.061      339.617       13.074      855.270
05/29/2013  03:35:00     -137.714      -51.932       -8.786       58.046       40.000       20.599     3369.322     1600.006      424.301        1.357        0.270      147.180       13.996        0.009      339.653       13.131      855.292
05/29/2013  03:36:00     -145.495      -57.452        1.472       47.222       38.592       23.444     2229.912     1489.354      549.606        1.437        0.213      156.427       23.034        0.022      339.449       12.790      855.309
05/29/2013  03:37:00     -134.114      -44.494        1.128       53.007       23.591       20.723     2809.703      556.556      429.441        1.188        0.190      141.302       15.793        0.012      339.431       12.758      855.299
05/29/2013  03:38:00      -83.638     -115.406       -5.618       41.371       44.776       17.676     1711.569     2004.861      312.436        1.219        0.201      142.527       18.152        0.016      339.607       13.056      855.307
05/29/2013  03:39:00      -83.759      -50.455        7.344       57.088       25.783       28.292     3259.006      664.768      800.429        0.717        0.236       97.782       31.998        0.107      339.589       13.027      855.305
05/29/2013  03:40:00     -104.363      -71.637       -1.363       31.967       25.728       24.006     1021.888      661.919      576.286        0.914        0.113      126.583       21.055        0.028      339.602       13.049      855.294
05/29/2013  03:41:00      -99.748      -72.830       -5.464       31.386       28.664       14.059      985.084      821.646      197.658        0.864        0.100      123.506       14.990        0.015      339.574       13.001      855.266
05/29/2013  03:42:00     -130.939      -46.050       -3.470       41.642       37.210       21.070     1734.074     1384.561      443.933        1.142        0.178      138.801       17.428        0.016      339.497       12.870      855.257
05/29/2013  03:43:00     -111.704      -56.042        1.361       54.378       33.389       26.441     2956.946     1114.815      699.148        1.019        0.239      124.974       24.658        0.039      339.522       12.912      855.267
05/29/2013  03:44:00      -53.972      -18.981        1.298       38.510       18.687       19.456     1482.986      349.213      378.555        0.274        0.111       57.213       21.444        0.140      339.608       13.058      855.229
05/29/2013  03:45:00      -16.937      -19.340       15.800       17.816       18.595       16.651      317.426      345.771      277.242        0.093        0.047       25.708       10.207        0.158      339.542       12.946      855.193
05/29/2013  03:46:00      -38.202      -24.005       -0.254       40.274       29.978       14.872     1621.964      898.687      221.176        0.239        0.137       45.119        9.512        0.044      339.556       12.969      855.176
05/29/2013  03:47:00      -76.701      -44.295       -3.901       36.019       25.415       15.801     1297.347      645.905      249.670        0.503        0.110       88.572       17.063        0.037      339.563       12.983      855.133
05/29/2013  03:48:00      -95.729      -23.326       -5.432       20.953       18.762        9.951      439.029      352.006       99.020        0.531        0.045       98.530        9.949        0.010      339.607       13.057      855.121
05/29/2013  03:49:00      -66.072       13.595       -1.726       29.909       15.807        8.071      894.519      249.850       65.146        0.288        0.060       67.456        7.398        0.012      339.558       12.975      855.127
05/29/2013  03:50:00      -57.877       21.721       -5.740       44.274       32.010       16.804     1960.168     1024.647      282.358        0.356        0.163       61.819       14.856        0.058      339.662       13.149      855.110
05/29/2013  03:51:00       72.326       30.998       20.772       58.672       57.312       21.537     3442.370     3284.671      463.854        0.691        0.360       78.689       31.854        0.164      339.635       13.104      855.063
05/29/2013  03:52:00      -45.196       17.784       -5.475       42.923       24.229       17.690     1842.411      587.066      312.943        0.257        0.137       48.569       12.860        0.070      339.630       13.096      855.033
05/29/2013  03:53:00      -59.772       -7.234       -9.012       56.844       29.839       25.598     3231.194      890.341      655.255        0.424        0.239       60.209       23.974        0.159      339.861       13.485      855.031
05/29/2013  03:54:00     -138.784       18.909       -3.380       89.069       54.960       39.726     7933.256     3020.629     1578.165        1.608        0.627      140.066       36.469        0.068      340.180       14.022      854.945
05/29/2013  03:55:00     -114.308      -47.979        2.032       88.775       68.228       43.337     7880.922     4655.032     1878.058        1.489        0.721      123.969       42.729        0.119      339.905       13.557      854.977
05/29/2013  03:56:00      -95.599      -51.181       11.629      115.645      112.661       54.451    13373.824    12692.446     2964.864        2.046        1.452      108.437       42.713        0.155      340.084       13.858      855.015
05/29/2013  03:57:00     -113.260      -81.723       -5.045      144.125       95.349       45.402    20772.117     9091.455     2061.336        2.572        1.596      139.665       47.800        0.117      340.089       13.867      855.013
05/29/2013  03:58:00     -351.423      -92.900       -4.701      245.955      159.908       96.234    60493.903    25570.410     9260.895       11.372        4.766      363.495      119.168        0.107      340.162       13.988      854.974
05/29/2013  03:59:00     -402.668     -159.295      -14.726      190.587      159.871       85.061    36323.337    25558.864     7235.302       12.841        3.456      433.032       76.778        0.031      340.221       14.088      854.965
05/29/2013  04:00:00     -307.179     -156.293       -8.380      172.107      177.309       84.290    29620.795    31438.546     7104.812        9.350        3.408      344.654       92.901        0.073      340.227       14.098      854.973
05/29/2013  04:01:00     -333.143     -206.829      -14.558      180.087      142.865       90.096    32431.252    20410.467     8117.322       10.746        3.048      392.125      100.919        0.066      340.210       14.071      854.967
05/29/2013  04:02:00     -317.749     -177.907      -10.509      209.970      155.729       90.044    44087.329    24251.590     8107.865       10.457        3.822      364.164       98.770        0.074      340.231       14.106      854.949
05/29/2013  04:03:00     -453.054      -81.345      -14.554      317.529      148.990       94.000   100824.466    22198.042     8835.942       17.195        6.593      460.299      124.327        0.073      340.202       14.056      854.939
05/29/2013  04:04:00     -648.225     -131.380      -24.227      246.328      184.406      104.561    60677.279    34005.502    10933.015       27.181        5.281      661.405      108.551        0.027      340.270       14.171      854.920
05/29/2013  04:05:00     -395.319      -80.731      -21.556      164.105      150.561       71.114    26930.331    22668.679     5057.179       10.895        2.733      403.478       79.694        0.039      340.245       14.130      854.951
05/29/2013  04:06:00     -256.588      -75.005       -8.273      150.752      136.043       67.907    22726.063    18507.831     4611.320        5.868        2.292      267.326       60.573        0.051      340.187       14.030      854.990
05/29/2013  04:07:00     -242.329      -84.411        6.163      155.278      152.850       81.066    24111.237    23363.026     6571.760        5.996        2.702      256.609       90.352        0.124      340.200       14.052      854.998
05/29/2013  04:08:00     -227.245      -53.924       -3.564      159.079      159.706       75.693    25306.102    25506.096     5729.392        5.554        2.827      233.555       72.074        0.095      340.208       14.066      855.025
05/29/2013  04:09:00     -310.504      -64.111       -2.195      188.536      112.013       74.764    35545.825    12547.018     5589.646        7.710        2.684      317.053       84.283        0.071      340.208       14.066      855.007
05/29/2013  04:10:00     -341.986     -165.066       -1.956      248.080      165.156      102.137    61543.913    27276.452    10431.975       12.171        4.963      379.738      118.855        0.098      340.198       14.049      854.997
05/29/2013  04:11:00     -363.263     -123.915       -5.749      198.284      156.789       84.160    39316.670    24582.859     7082.825       10.915        3.549      383.816       89.283        0.054      340.185       14.029      855.011
05/29/2013  04:12:00     -577.910     -178.417      -31.295      240.701      202.766      107.495    57936.913    41114.131    11555.250       23.868        5.530      604.824      120.433        0.040      340.210       14.070      855.008
05/29/2013  04:13:00     -542.855      -15.048      -36.547      281.977      152.282       84.296    79511.286    23189.944     7105.829       20.301        5.490      543.063      106.429        0.038      340.225       14.096      855.013
05/29/2013  04:14:00     -171.731     -103.349        2.612      151.774      107.848       63.353    23035.487    11631.294     4013.632        3.942        1.934      200.430       71.423        0.127      340.198       14.049      855.023
05/29/2013  04:15:00     -180.641     -119.107       12.199      171.690      129.812       65.695    29477.351    16851.082     4315.820        4.880        2.532      216.374       71.139        0.108      340.177       14.014      855.015
05/29/2013  04:16:00     -383.814     -176.991       -8.361      196.337      130.176       89.507    38548.313    16945.885     8011.427       12.110        3.175      422.657       99.989        0.056      340.167       13.998      855.069
05/29/2013  04:17:00     -449.528      -91.221      -24.076      246.353      153.442       92.901    60689.864    23544.490     8630.659       15.191        4.643      458.691       86.354        0.035      340.189       14.034      855.120
05/29/2013  04:18:00     -192.719      -62.422        1.384      214.354      120.576       68.716    45947.746    14538.607     4721.822        5.311        3.260      202.576       89.623        0.196      340.180       14.020      855.132
05/29/2013  04:19:00     -245.560      -89.420       -7.156      170.435      107.993       57.739    29048.039    11662.460     3333.826        5.619        2.202      261.334       76.540        0.086      340.169       14.002      855.129
05/29/2013  04:20:00     -438.964      -45.341       -4.460      221.272      143.865       90.894    48961.357    20697.204     8261.742       13.633        3.896      441.300       87.118        0.039      340.132       13.939      855.066
05/29/2013  04:21:00     -410.651     -111.448      -13.509      239.777      182.395       81.253    57492.830    33267.906     6602.009       13.928        4.868      425.506       84.111        0.039      340.149       13.967      855.090
05/29/2013  04:22:00     -320.838     -226.731      -15.522      157.204      118.932       78.179    24713.222    14144.863     6111.963        9.977        2.249      392.866       83.056        0.045      340.180       14.019      855.098
05/29/2013  04:23:00     -245.759     -236.631        7.792      181.004      149.936      106.864    32762.601    22480.933    11419.993        9.155        3.333      341.162      112.039        0.108      340.138       13.948      855.105
05/29/2013  04:24:00     -191.973      -11.806        4.247      140.668      117.816       60.930    19787.480    13880.623     3712.470        3.719        1.869      192.335       56.909        0.088      340.098       13.882      855.075
05/29/2013  04:25:00     -257.740     -134.718       -1.488      126.107      142.412       69.767    15903.026    20281.109     4867.501        6.281        2.053      290.824       67.297        0.054      340.189       14.033      855.060
05/29/2013  04:26:00     -165.536      -65.361        0.968      105.556       77.870       45.472    11142.006     6063.781     2067.736        2.547        0.964      177.972       35.786        0.040      340.175       14.013      854.979
05/29/2013  04:27:00     -215.255     -156.767        0.557      173.061      136.528       85.214    29950.057    18639.850     7261.350        6.337        2.793      266.290       92.949        0.122      340.111       13.903      854.956
05/29/2013  04:28:00     -127.712     -170.150       21.568      184.572      145.774       79.209    34066.848    21250.173     6274.081        5.365        3.080      212.747       92.529        0.189      340.082       13.856      854.944
05/29/2013  04:29:00     -253.502     -200.230        3.547      202.771      173.557       83.122    41116.111    30121.959     6909.194        9.124        3.907      323.041      106.382        0.108      340.054       13.806      854.934
05/29/2013  04:30:00     -244.458     -129.068       -3.466      141.244      112.461       64.834    19949.785    12647.433     4203.385        5.661        1.840      276.439       57.872        0.044      340.032       13.769      854.883
05/29/2013  04:31:00     -235.489      -86.594       -7.219      139.887      140.714       65.836    19568.475    19800.549     4334.348        5.335        2.185      250.906       67.334        0.072      340.008       13.729      854.924
05/29/2013  04:32:00     -298.584      -34.144      -12.127      140.702      176.872       76.016    19797.000    31283.553     5778.410        7.365        2.843      300.530       65.765        0.048      339.988       13.695      855.015
05/29/2013  04:33:00     -367.034      -58.825      -15.745      177.154      167.221       88.786    31383.524    27962.911     7882.988       10.281        3.361      371.718       88.150        0.056      339.963       13.653      855.018
05/29/2013  04:34:00     -291.669      -96.962       -6.244      228.914      137.368       83.956    52401.423    18869.940     7048.544        8.640        3.916      307.364      103.027        0.112      339.952       13.635      854.939
05/29/2013  04:35:00     -515.213      -93.133      -26.655      325.781      210.434      114.049   106132.991    44282.459    13007.230       21.910        8.171      523.563      132.815        0.064      339.927       13.594      854.904
05/29/2013  04:36:00     -381.317     -132.306       -0.377      275.689      196.385      109.340    76004.381    38566.985    11955.247       14.470        6.326      403.618      128.223        0.101      339.905       13.556      854.946
05/29/2013  04:37:00     -221.729     -128.170        0.757      169.205      149.357       91.374    28630.478    22307.619     8349.272        6.243        2.964      256.108       89.854        0.123      339.897       13.541      854.888
05/29/2013  04:38:00     -448.812      -99.274      -30.572      289.626      170.255      107.212    83883.493    28986.869    11494.496       16.827        6.218      459.661      138.585        0.091      339.901       13.547      854.840
05/29/2013  04:39:00     -214.649      -90.391        4.893      166.472      152.425       83.587    27712.795    23233.283     6986.843        5.609        2.897      232.905       81.653        0.123      339.881       13.515      854.825
05/29/2013  04:40:00     -298.244      -27.429       -1.392      230.194      126.265       88.652    52989.176    15942.747     7859.218        8.323        3.840      299.503      110.074        0.135      339.849       13.459      854.790
05/29/2013  04:41:00     -280.062      -80.838      -11.722      201.855      117.243       75.042    40745.589    13746.006     5631.290        7.260        3.006      291.495       84.180        0.083      339.846       13.456      854.784
05/29/2013  04:42:00     -270.863      -90.973      -11.617      148.212      120.803       59.143    21966.681    14593.449     3497.880        6.091        2.003      285.732       61.967        0.047      339.841       13.449      854.771
05/29/2013  04:43:00     -300.744      -93.992      -23.945      194.423       85.830       65.755    37800.357     7366.872     4323.758        7.466        2.475      315.090       72.215        0.053      339.843       13.451      854.757
05/29/2013  04:44:00     -238.613     -111.519      -10.563      161.579      112.307       61.163    26107.930    12612.824     3740.916        5.597        2.123      263.387       67.579        0.066      339.868       13.492      854.759
05/29/2013  04:45:00     -348.164      -45.941      -15.842      189.902      111.129       85.167    36062.846    12349.702     7253.448        8.961        2.783      351.182      100.087        0.081      339.855       13.470      854.782
05/29/2013  04:46:00     -228.132     -121.653       15.640      184.541      161.635      112.619    34055.530    26125.748    12683.120        6.996        3.643      258.541      118.573        0.210      339.854       13.468      854.809
05/29/2013  04:47:00     -387.954     -195.018      -26.856      177.492      169.887       76.226    31503.352    28861.760     5810.450       12.771        3.309      434.213       85.676        0.039      339.912       13.567      854.812
05/29/2013  04:48:00     -395.757     -210.041      -12.090      192.215      163.223       77.163    36946.438    26641.664     5954.076       13.520        3.477      448.041       89.289        0.040      339.915       13.573      854.769
05/29/2013  04:49:00     -223.285     -151.313        2.704      170.035      159.231       84.888    28911.942    25354.500     7205.980        6.711        3.074      269.725       91.056        0.114      339.893       13.535      854.812
05/29/2013  04:50:00     -455.987     -129.107      -21.987      266.512      196.212       89.278    71028.821    38499.285     7970.584       17.127        5.875      473.912      121.499        0.066      339.845       13.454      854.887
05/29/2013  04:51:00     -367.436      -20.301      -10.234      257.941      129.034      100.133    66533.743    16649.798    10026.601       11.435        4.661      367.996      125.194        0.116      339.812       13.398      854.969
05/29/2013  04:52:00     -671.541     -193.288      -32.607      227.652      194.096      102.787    51825.433    37673.444    10565.268       29.471        5.003      698.804      105.548        0.023      339.797       13.374      855.009
05/29/2013  04:53:00     -320.417      -33.087       17.273      266.805      161.099       99.701    71184.781    25952.985     9940.283       10.555        5.354      322.120      119.082        0.137      339.756       13.305      854.976
05/29/2013  04:54:00     -425.069     -100.584      -16.657      189.499      156.435      103.666    35910.047    24471.944    10746.678       13.109        3.556      436.807      104.722        0.057      339.741       13.281      854.983
05/29/2013  04:55:00     -381.551     -143.457       -0.943      258.888      173.936       97.984    67022.972    30253.619     9600.924       13.650        5.344      407.628      116.619        0.082      339.778       13.341      854.987
05/29/2013  04:56:00     -541.782     -127.369      -38.817      215.149      167.632       99.082    46289.268    28100.433     9817.292       19.772        4.210      556.552      102.006        0.034      339.774       13.335      855.026
05/29/2013  04:57:00     -614.540     -145.461      -38.688      293.720      210.759      104.364    86271.285    44419.400    10891.929       27.092        7.079      631.520      137.293        0.047      339.730       13.260      854.999
05/29/2013  04:58:00     -695.447     -181.504      -17.286      261.238      200.748      106.235    68245.060    40299.789    11285.898       31.834        5.992      718.742      113.093        0.025      339.718       13.240      854.986
05/29/2013  04:59:00     -474.127     -134.812      -18.498      244.782      185.757       84.826    59918.439    34505.651     7195.416       17.245        5.081      492.921       91.196        0.034      339.706       13.219      854.943
05/29/2013  05:00:00     -478.775      -41.726       -6.742      224.798      215.140       98.830    50534.354    46285.200     9767.408       16.878        5.329      480.590      108.918        0.051      339.679       13.175      854.925
05/29/2013  05:01:00     -286.197      -59.785       10.946      177.830      173.892       92.863    31623.680    30238.598     8623.577        7.803        3.524      292.375       88.857        0.092      339.667       13.154      854.910
05/29/2013  05:02:00     -565.512     -107.474      -26.813      304.948      304.655      113.445    92993.429    92814.865    12869.765       26.534        9.934      575.634      134.775        0.055      339.687       13.189      854.839
05/29/2013  05:03:00     -335.489     -190.832        8.595      236.614      207.865      131.833    55986.167    43208.003    17380.007       13.279        5.829      385.966      129.415        0.112      339.673       13.162      854.806
05/29/2013  05:04:00     -573.560      -83.790      -22.476      270.151      199.538      131.143    72981.817    39815.242    17198.410       23.322        6.500      579.648      152.134        0.069      339.683       13.182      854.755
05/29/2013  05:05:00     -333.064     -236.416       -9.420      257.192      219.789      112.065    66147.798    48307.231    12558.573       14.694        6.351      408.441      132.577        0.105      339.679       13.177      854.771
05/29/2013  05:06:00     -473.843     -230.769      -12.619      331.153      208.827      114.726   109662.271    43608.876    13162.120       22.216        8.322      527.050      148.949        0.080      339.694       13.200      854.732
05/29/2013  05:07:00     -382.099     -150.867        7.050      244.395      147.686      103.145    59728.678    21811.043    10638.972       13.048        4.609      410.805      121.553        0.088      339.684       13.183      854.749
05/29/2013  05:08:00     -417.519      -85.513      -24.269      226.034      139.028       88.262    51091.503    19328.734     7790.148       13.020        3.911      426.186      101.826        0.057      339.686       13.186      854.716
05/29/2013  05:09:00     -411.293      -78.958       -1.267      239.415      170.396      101.902    57319.591    29034.768    10384.063       13.605        4.837      418.803      107.819        0.066      339.659       13.140      854.699
05/29/2013  05:10:00     -373.177      -66.008       -8.012      179.612      147.739       80.772    32260.356    21826.706     6524.040       10.214        3.031      378.970       83.441        0.048      339.648       13.123      854.723
05/29/2013  05:11:00     -428.283     -131.500      -15.238      288.272      169.234      111.593    83100.509    28640.225    12453.052       16.255        6.210      448.016      131.849        0.087      339.660       13.142      854.815
05/29/2013  05:12:00     -334.663     -235.168        4.025      203.438      160.638       94.936    41386.842    25804.715     9012.774       12.175        3.810      409.027       91.336        0.050      339.660       13.142      854.893
05/29/2013  05:13:00     -255.726      -92.886        1.097      228.391      160.440       91.214    52162.550    25741.014     8320.026        8.011        4.311      272.073      104.269        0.147      339.669       13.158      854.882
05/29/2013  05:14:00     -276.263      -42.447        8.827      203.265      147.200       85.155    41316.551    21667.831     7251.420        7.421        3.512      279.505       88.298        0.100      339.647       13.121      854.863
05/29/2013  05:15:00     -304.832      -18.607       -1.806      196.128      145.917       79.336    38466.219    21291.816     6294.145        7.965        3.303      305.399       73.729        0.058      339.653       13.130      854.869
05/29/2013  05:16:00     -406.398     -125.256      -34.119      177.793      136.060       71.267    31610.195    18512.236     5078.937       11.860        2.760      425.263       66.308        0.024      339.662       13.145      854.892
05/29/2013  05:17:00     -213.141       -2.168        0.958      208.822      119.178       69.686    43606.745    14203.357     4856.189        5.404        3.133      213.152       79.068        0.138      339.601       13.043      854.884
05/29/2013  05:18:00     -150.914      -23.516       14.349      172.923      104.937       67.739    29902.235    11011.773     4588.523        3.451        2.275      152.736       63.319        0.172      339.578       13.004      854.894
05/29/2013  05:19:00     -462.113      -90.332      -22.050      203.513      157.026       85.485    41417.453    24657.260     7307.742       14.778        3.669      470.859      100.154        0.045      339.622       13.077      854.954
05/29/2013  05:20:00     -194.876      -49.273        8.163      178.732      132.655       67.559    31945.248    17597.341     4564.197        4.728        2.705      201.009       73.238        0.133      339.582       13.012      855.017
05/29/2013  05:21:00     -144.616      -46.178        2.446      135.463      123.592       76.289    18350.140    15274.967     5819.999        3.124        1.972      151.809       67.537        0.198      339.576       13.003      854.993
05/29/2013  05:22:00     -330.055      -60.725      -19.391      117.328      152.841       66.380    13765.761    23360.411     4406.359        7.726        2.077      335.595       52.939        0.025      339.535       12.931      855.006
05/29/2013  05:23:00     -364.005      -61.392       -0.278      154.049      136.138       75.034    23731.197    18533.554     5630.156        9.207        2.395      369.146       76.437        0.043      339.549       12.956      855.024
05/29/2013  05:24:00     -583.118     -123.034      -31.972      206.958      171.392       93.288    42831.566    29375.233     8702.681       21.853        4.045      595.957       94.634        0.025      339.556       12.968      855.040
05/29/2013  05:25:00     -423.169     -170.195      -22.525      237.491      178.739       84.485    56401.775    31947.800     7137.737       15.200        4.774      456.112      100.390        0.048      339.558       12.970      854.992
05/29/2013  05:26:00     -654.057     -167.530      -30.281      268.177      175.970      107.310    71918.753    30965.513    11515.516       28.557        5.720      675.172      110.717        0.027      339.535       12.931      855.004
05/29/2013  05:27:00     -468.996     -114.734      -35.023      230.697      154.216       97.268    53220.988    23782.504     9461.118       16.039        4.323      482.826      109.172        0.051      339.517       12.902      855.089
05/29/2013  05:28:00     -497.912     -133.691       -4.765      271.373      189.802       88.043    73643.173    36024.875     7751.623       19.160        5.871      515.548      117.418        0.052      339.500       12.873      855.071
05/29/2013  05:29:00     -423.565     -129.787      -26.428      183.555      136.767       81.772    33692.531    18705.172     6686.634       12.801        2.954      443.003       85.444        0.037      339.484       12.845      855.127
05/29/2013  05:30:00     -475.853     -119.815      -17.358      195.020      167.437       90.663    38032.610    28035.101     8219.866       15.768        3.714      490.705       95.422        0.038      339.488       12.852      855.184
05/29/2013  05:31:00     -466.326      -68.874      -13.908      248.654      160.494      103.998    61828.639    25758.302    10815.532       16.038        4.920      471.384      105.493        0.050      339.459       12.804      855.172
05/29/2013  05:32:00     -523.561      -89.067      -19.807      257.989      221.412      114.099    66558.177    49023.301    13018.572       20.550        6.430      531.083      124.627        0.055      339.492       12.859      855.089
05/29/2013  05:33:00     -422.313      -68.004        2.670      226.170      212.764       97.177    51152.745    45268.634     9443.278       14.440        5.293      427.753       92.854        0.047      339.476       12.831      855.047
05/29/2013  05:34:00     -520.672      -68.876      -32.715      200.936      154.629       68.794    40375.407    23909.986     4732.547       17.295        3.451      525.207       62.066        0.014      339.445       12.779      855.085
05/29/2013  05:35:00     -312.620      -50.674       -7.956      184.064      145.802       90.748    33879.524    21258.326     8235.226        8.186        3.169      316.700      107.284        0.115      339.401       12.706      855.079
05/29/2013  05:36:00     -321.352      -21.747      -14.363      146.421      125.464       66.644    21438.973    15741.320     4441.409        7.278        2.081      322.087       71.711        0.050      339.369       12.652      855.068
05/29/2013  05:37:00     -363.588      -91.451      -22.521      220.397      169.865       98.115    48574.947    28854.183     9626.486       11.405        4.353      374.912      116.606        0.097      339.375       12.662      855.070
05/29/2013  05:38:00     -632.502       42.681      -33.942      224.649      179.003      100.518    50467.337    32041.998    10103.859       24.781        4.631      633.941      106.877        0.028      339.350       12.621      855.028
05/29/2013  05:39:00     -531.474      -77.604      -42.320      206.426      205.080       95.563    42611.494    42057.689     9132.270       19.202        4.690      537.110       93.014        0.030      339.359       12.634      855.044
05/29/2013  05:40:00     -545.725      -86.731      -28.417      178.644      155.337       83.569    31913.645    24129.574     6983.854       18.458        3.151      552.574       90.426        0.027      339.352       12.622      855.050
05/29/2013  05:41:00     -431.083     -159.274      -21.928      231.022      127.986       76.909    53371.184    16380.457     5915.002       14.366        3.783      459.566      103.658        0.051      339.374       12.660      855.046
05/29/2013  05:42:00     -257.805      -71.321        4.343      206.214      123.325       82.945    42524.268    15209.044     6879.923        6.808        3.231      267.489       95.828        0.128      339.362       12.641      854.989
05/29/2013  05:43:00     -262.554      -65.604       14.304      210.879      197.757       90.714    44470.057    39107.988     8228.985        8.261        4.590      270.627      109.719        0.164      339.375       12.662      855.062
05/29/2013  05:44:00     -381.116      -40.670        4.134      228.300      145.360       94.028    52120.956    21129.419     8841.272       11.449        4.105      383.279      119.648        0.097      339.364       12.643      855.086
05/29/2013  05:45:00     -402.076       -8.663       -7.361      176.464      145.069       67.100    31139.578    21045.157     4502.354       10.923        2.834      402.169       76.253        0.036      339.347       12.614      855.084
05/29/2013  05:46:00     -424.077      -95.752       -4.148      273.596      181.286       91.129    74854.579    32864.533     8304.578       15.251        5.801      434.752      122.766        0.080      339.346       12.614      855.119
05/29/2013  05:47:00     -440.577     -148.953      -20.754      171.674      148.355       78.107    29471.949    22009.160     6100.778       13.714        2.879      465.075       86.209        0.034      339.357       12.632      855.166
05/29/2013  05:48:00     -479.935     -132.983      -21.409      243.410      141.465       87.741    59248.661    20012.398     7698.565       16.771        4.348      498.018      108.390        0.047      339.389       12.685      855.186
05/29/2013  05:49:00     -345.547      -56.757      -14.907      152.076      116.520       68.660    23127.103    13576.848     4714.258        8.213        2.071      350.177       70.298        0.040      339.372       12.655      855.250
05/29/2013  05:50:00     -337.583      -98.317       -2.448      238.755      133.189       81.250    57003.997    17739.193     6601.604       10.248        4.067      351.609       94.659        0.072      339.360       12.637      855.269
05/29/2013  05:51:00     -278.342     -103.831        3.823      237.978      152.105       90.427    56633.350    23135.956     8176.958        8.809        4.397      297.078      116.705        0.154      339.381       12.673      855.282
05/29/2013  05:52:00     -365.273     -101.927      -30.691      177.696      115.780       76.321    31575.783    13405.037     5824.900        9.777        2.540      379.228       81.936        0.047      339.431       12.756      855.298
05/29/2013  05:53:00     -279.739      -30.385      -15.284      135.434      101.063       73.666    18342.437    10213.663     5426.687        5.669        1.699      281.384       73.648        0.069      339.386       12.680      855.326
05/29/2013  05:54:00     -235.206      -46.732       -1.570      221.973      122.471       91.009    49272.089    14999.060     8282.637        6.502        3.628      239.804      112.507        0.220      339.366       12.648      855.335
05/29/2013  05:55:00     -180.267      -70.032        4.324      138.536      114.092       62.739    19192.335    13016.991     3936.140        3.678        1.807      193.392       66.089        0.117      339.341       12.606      855.382
05/29/2013  05:56:00     -357.851      -58.390      -18.415      164.963      157.076       70.455    27212.806    24672.863     4963.869        9.432        2.842      362.584       70.777        0.038      339.319       12.568      855.428
05/29/2013  05:57:00     -605.778      -59.926      -41.995      163.508      174.712       89.559    26734.911    30524.161     8020.789       21.879        3.264      608.735       92.018        0.023      339.324       12.576      855.418
05/29/2013  05:58:00     -380.142     -112.979      -19.375      155.720      144.442       75.265    24248.733    20863.510     5664.852       10.420        2.539      396.575       84.616        0.046      339.304       12.542      855.481
05/29/2013  05:59:00     -383.293      -18.226       -9.278      214.495      170.979       78.816    46008.303    29233.710     6212.011       11.438        4.073      383.726       88.306        0.053      339.306       12.545      855.450
05/29/2013  06:00:00     -520.451      -88.916      -22.012      210.466      144.801       90.413    44296.096    20967.297     8174.527       17.634        3.672      527.992       97.872        0.034      339.316       12.562      855.426
05/29/2013  06:01:00     -309.155      -83.404      -19.649      164.220      138.005       76.769    26968.235    19045.499     5893.434        7.740        2.595      320.208       76.779        0.057      339.317       12.564      855.408
05/29/2013  06:02:00     -283.865      -47.435       -7.519      166.975      106.355       71.461    27880.485    11311.329     5106.613        6.358        2.215      287.801       86.540        0.090      339.294       12.525      855.425
05/29/2013  06:03:00     -378.966     -135.386       -8.463      223.285      163.663       75.921    49856.178    26785.672     5764.046       12.220        4.120      402.424       99.574        0.061      339.352       12.622      855.401
05/29/2013  06:04:00     -332.272      -41.732       -7.191      170.061      167.070       85.797    28920.699    27912.269     7361.061        8.819        3.210      334.882       84.610        0.064      339.433       12.761      855.395
05/29/2013  06:05:00     -233.931      -80.781        5.179      114.258       93.492       54.830    13054.914     8740.819     3006.318        4.303        1.240      247.486       50.100        0.041      339.400       12.704      855.378
05/29/2013  06:06:00     -375.773      -45.793      -11.931      214.081      150.855       79.321    45830.799    22757.185     6291.870       10.915        3.744      378.553       91.731        0.059      339.400       12.703      855.398
05/29/2013  06:07:00     -341.935      -84.598       -1.990      172.689      114.454       76.261    29821.447    13099.669     5815.768        8.640        2.437      352.245       79.427        0.051      339.400       12.704      855.390
05/29/2013  06:08:00     -341.919      -89.958      -27.495      123.925      147.808       72.844    15357.363    21847.116     5306.223        8.413        2.126      353.555       67.866        0.037      339.400       12.704      855.337
05/29/2013  06:09:00     -361.735      -16.221       -6.765      153.465      121.054       71.690    23551.411    14654.056     5139.500        8.725        2.167      362.099       71.798        0.039      339.364       12.642      855.340
05/29/2013  06:10:00     -488.466      -57.896      -28.564      176.494      156.761       84.460    31150.181    24573.924     7133.414       15.280        3.143      491.885       82.035        0.028      339.352       12.622      855.363
05/29/2013  06:11:00     -437.683      -97.681      -16.781      167.016      148.610       68.136    27894.196    22085.055     4642.471       12.800        2.731      448.451       69.584        0.024      339.338       12.600      855.342
05/29/2013  06:12:00     -354.012      -28.712        7.264      153.223      139.690       82.045    23477.235    19513.267     6731.439        8.795        2.486      355.174       87.591        0.061      339.313       12.557      855.320
05/29/2013  06:13:00     -479.898      -92.942      -20.495      189.453      140.568       76.013    35892.364    19759.401     5778.029       15.038        3.071      488.816       90.966        0.035      339.320       12.567      855.347
05/29/2013  06:14:00     -402.356     -112.296      -19.972      157.156      162.260       74.151    24698.033    26328.226     5498.412       11.570        2.826      417.733       76.799        0.034      339.323       12.573      855.378
05/29/2013  06:15:00     -391.110      -51.875      -34.210      147.860      153.857       75.209    21862.627    23672.055     5656.408       10.400        2.560      394.535       69.770        0.031      339.316       12.561      855.340
05/29/2013  06:16:00     -500.414     -107.541      -17.194      222.695      168.378       81.435    49592.848    28351.170     6631.599       17.341        4.229      511.839       93.988        0.034      339.324       12.575      855.354
05/29/2013  06:17:00     -376.659      -74.212        0.790      225.232      163.221       90.740    50729.289    26641.105     8233.805       11.648        4.280      383.900      112.195        0.085      339.327       12.580      855.345
05/29/2013  06:18:00     -575.257     -104.499      -39.487      211.920      149.153       86.426    44910.075    22246.546     7469.381       20.900        3.731      584.672      101.956        0.030      339.346       12.613      855.384
05/29/2013  06:19:00     -432.741        6.484      -45.051      199.398      123.268       69.786    39759.740    15194.961     4870.100       12.457        2.991      432.789       82.011        0.036      339.342       12.605      855.394
05/29/2013  06:20:00     -462.157      -85.616      -35.587      154.899      175.082       83.982    23993.621    30653.673     7052.959       14.193        3.085      470.020       68.203        0.021      339.343       12.607      855.405
05/29/2013  06:21:00     -487.188     -152.461      -24.444      177.134      154.023       85.132    31376.306    23722.955     7247.384       16.176        3.117      510.486       77.205        0.023      339.364       12.643      855.447
05/29/2013  06:22:00     -529.384      -19.610      -51.697      199.361      134.896       75.836    39744.818    18196.951     5751.124       17.349        3.185      529.748       81.347        0.024      339.389       12.685      855.481
05/29/2013  06:23:00     -559.997       36.956      -34.176      177.202      183.831       78.153    31400.424    33793.993     6107.823       19.370        3.565      561.215       75.057        0.018      339.384       12.675      855.487
05/29/2013  06:24:00     -468.427      -22.769      -11.325      215.048      131.543       70.590    46245.734    17303.619     4982.930       14.429        3.427      468.980       90.712        0.037      339.383       12.675      855.484
05/29/2013  06:25:00     -521.589     -138.755      -15.451      185.194      157.601       74.794    34296.757    24838.185     5594.080       17.813        3.236      539.729       80.669        0.022      339.392       12.690      855.475
05/29/2013  06:26:00     -488.923      -49.688      -34.804      164.790      138.183       77.865    27155.747    19094.527     6062.937       14.751        2.616      491.441       82.488        0.028      339.370       12.652      855.491
05/29/2013  06:27:00     -578.197     -141.423      -21.693      170.206      171.843       72.706    28970.221    29529.913     5286.227       20.927        3.189      595.241       69.406        0.014      339.354       12.627      855.490
05/29/2013  06:28:00     -439.742      -80.768      -14.534      182.500      150.805       79.363    33306.161    22742.164     6298.547       13.122        3.117      447.098       81.385        0.033      339.337       12.596      855.480
05/29/2013  06:29:00     -439.338     -121.068       -9.840      219.006      154.290       76.914    47963.693    23805.499     5915.732       14.272        3.884      455.714       98.643        0.047      339.334       12.592      855.473
05/29/2013  06:30:00     -345.661     -111.117       -5.018      157.765      119.497       77.118    24889.950    14279.451     5947.253        8.848        2.256      363.082       84.366        0.054      339.324       12.574      855.469
05/29/2013  06:31:00     -403.291     -104.906       -5.545      158.909      181.416       78.406    25252.171    32911.673     6147.453       11.898        3.216      416.712       89.790        0.046      339.325       12.577      855.462
05/29/2013  06:32:00     -288.515      -96.315       -7.581      144.701      166.523       91.736    20938.384    27729.832     8415.526        7.482        2.854      304.166       92.651        0.093      339.360       12.636      855.423
05/29/2013  06:33:00     -147.280     -112.028       17.255      154.175      164.439       89.480    23769.858    27040.065     8006.717        4.667        2.941      185.045       84.513        0.209      339.372       12.657      855.388
05/29/2013  06:34:00     -425.106     -170.850        0.971      292.684      166.712       97.492    85663.938    27793.022     9504.754       16.641        6.148      458.154      118.280        0.067      339.420       12.739      855.350
05/29/2013  06:35:00     -286.204     -151.486       -6.676      155.578      164.038       75.719    24204.433    26908.553     5733.391        8.087        2.842      323.822       70.344        0.047      339.427       12.750      855.338
05/29/2013  06:36:00     -469.416     -125.961       -8.393      230.421      222.910       97.150    53094.012    49689.020     9438.114       17.424        5.611      486.022      109.978        0.051      339.452       12.792      855.322
05/29/2013  06:37:00     -356.022     -129.489       -6.242      265.398      198.497      108.214    70435.922    39401.244    11710.338       13.253        6.077      378.840      137.022        0.131      339.498       12.868      855.321
05/29/2013  06:38:00     -305.399      -94.495        1.610      200.068      167.741       96.367    40027.386    28136.986     9286.584        8.981        3.873      319.684      101.677        0.101      339.509       12.886      855.327
05/29/2013  06:39:00     -361.059     -140.287       -4.276      195.395      154.865       93.888    38179.354    23983.051     8814.931       11.051        3.549      387.356       87.863        0.051      339.512       12.894      855.306
05/29/2013  06:40:00     -422.528     -157.449      -25.439      237.497      145.946       92.529    56404.958    21300.279     8561.596       14.510        4.313      450.910      107.105        0.056      339.512       12.892      855.355
05/29/2013  06:41:00     -292.459     -119.789      -12.845      199.682      113.697       79.880    39873.045    12926.935     6380.748        7.960        2.959      316.041       84.873        0.072      339.546       12.952      855.352
05/29/2013  06:42:00     -227.830      -78.802       12.989      161.505      142.162       73.821    26083.820    20210.001     5449.551        5.501        2.587      241.073       78.502        0.106      339.539       12.939      855.351
05/29/2013  06:43:00     -327.940     -157.210        0.841      180.378      141.736       76.286    32536.257    20089.222     5819.608        9.534        2.922      363.675       68.161        0.035      339.541       12.941      855.382
05/29/2013  06:44:00     -347.382     -181.097       -3.233      209.368      181.124       89.765    43834.984    32805.960     8057.704       11.908        4.235      391.753       95.218        0.059      339.532       12.926      855.416
05/29/2013  06:45:00     -214.019     -100.198       22.874      202.127      179.552      104.577    40855.336    32238.953    10936.290        7.018        4.202      236.313      129.127        0.299      339.560       12.974      855.396
05/29/2013  06:46:00     -235.305      -26.015        0.984      167.488      131.191       95.718    28052.254    17210.992     9161.980        5.523        2.721      236.738       91.941        0.151      339.568       12.989      855.405
05/29/2013  06:47:00     -451.121     -214.069      -26.080      194.543      191.797       86.367    37847.067    36786.180     7459.202       16.604        4.105      499.335       90.241        0.033      339.573       12.996      855.413
05/29/2013  06:48:00     -342.568      -68.251        6.905      200.307      186.916       89.360    40122.859    34937.640     7985.231       10.254        4.152      349.300       97.234        0.077      339.594       13.030      855.420
05/29/2013  06:49:00     -371.221      -97.450      -15.216      215.491      161.003       98.659    46436.246    25921.881     9733.648       11.480        4.105      383.799      104.085        0.074      339.632       13.095      855.396
05/29/2013  06:50:00     -256.418     -220.142       -1.259      210.430      192.155      103.172    44280.950    36923.455    10644.380       10.302        4.592      337.954      119.597        0.125      339.624       13.082      855.380
05/29/2013  06:51:00     -467.097     -251.222      -24.656      192.417      149.356       84.388    37024.456    22307.151     7121.293       17.417        3.323      530.370       75.775        0.020      339.650       13.126      855.363
05/29/2013  06:52:00     -457.220     -157.545      -25.526      249.901      157.795       96.693    62450.538    24899.371     9349.466       16.559        4.835      483.602      114.396        0.056      339.664       13.148      855.357
05/29/2013  06:53:00     -442.133     -120.918      -17.378      186.350      152.762       86.568    34726.376    23336.203     7493.985       13.797        3.278      458.370       98.631        0.046      339.693       13.196      855.373
05/29/2013  06:54:00     -606.505     -135.287      -28.927      271.168      244.892      111.809    73532.146    59972.031    12501.304       26.647        7.300      621.410      129.642        0.044      339.735       13.269      855.319
05/29/2013  06:55:00     -445.302     -159.039       -4.386      240.828      200.719      109.353    57998.239    40288.012    11958.023       16.691        5.512      472.850      113.820        0.058      339.768       13.325      855.330
05/29/2013  06:56:00     -274.174      -34.748       13.110      273.981      136.774       99.332    75065.326    18707.007     9866.900        9.008        5.182      276.367      122.725        0.197      339.806       13.389      855.296
05/29/2013  06:57:00     -241.560     -132.618       24.544      201.819      163.860       95.028    40730.905    26850.032     9030.362        7.656        3.831      275.570       94.600        0.118      339.827       13.425      855.343
05/29/2013  06:58:00     -208.912     -100.997       28.556      215.437      158.914       94.632    46412.939    25253.681     8955.293        6.763        4.031      232.045      108.304        0.218      339.856       13.473      855.372
05/29/2013  06:59:00     -440.250      -38.653      -23.996      243.655      172.712       99.493    59367.812    29829.545     9898.766       14.748        4.955      441.944       99.644        0.051      339.860       13.479      855.407
05/29/2013  07:00:00     -459.489     -106.960       -7.390      228.382      221.798      109.990    52158.381    49194.398    12097.738       16.802        5.673      471.774      117.279        0.062      339.871       13.497      855.420
05/29/2013  07:01:00     -651.077      -81.593      -44.906      285.192      161.532      122.030    81334.499    26092.731    14891.316       27.743        6.116      656.170      126.419        0.037      339.857       13.474      855.471
05/29/2013  07:02:00     -505.692     -223.480      -24.810      206.296      167.670      104.226    42558.098    28113.294    10863.033       19.390        4.077      552.872      105.966        0.037      339.882       13.517      855.532
05/29/2013  07:03:00     -369.148     -131.746      -40.017      199.317      156.923       89.827    39727.237    24624.980     8068.826       11.381        3.621      391.953      103.833        0.070      339.927       13.592      855.576
05/29/2013  07:04:00     -388.621     -178.130      -20.786      227.428      185.344       86.789    51723.286    34352.283     7532.408       13.838        4.680      427.501      109.338        0.065      339.908       13.560      855.577
05/29/2013  07:05:00     -545.405     -181.590       -6.959      284.718      272.252      116.439    81064.614    74120.957    13558.074       24.959        8.437      574.841      142.452        0.061      339.873       13.501      855.590
05/29/2013  07:06:00     -563.839     -141.588      -26.183      291.620      235.407      114.592    85041.959    55416.442    13131.436       24.609        7.679      581.344      139.727        0.058      339.839       13.443      855.619
05/29/2013  07:07:00     -312.053     -127.141       -1.716      185.501      179.624       93.918    34410.743    32264.615     8820.632        9.451        3.775      336.960       97.116        0.083      339.848       13.461      855.675
05/29/2013  07:08:00     -323.711     -104.135       27.328      203.303      183.146      103.738    41332.010    33542.382    10761.504       10.099        4.282      340.048      121.739        0.128      339.844       13.452      855.673
05/29/2013  07:09:00     -527.035      -78.822       -5.200      214.956      190.923       92.748    46206.264    36451.570     8602.150       18.762        4.563      532.897       99.380        0.035      339.780       13.344      855.695
05/29/2013  07:10:00     -453.150      -94.087      -11.373      214.537      159.960       93.525    46026.175    25587.323     8746.992       14.733        4.018      462.814      105.542        0.052      339.797       13.372      855.699
05/29/2013  07:11:00     -462.310     -227.988        2.886      237.468      185.834       95.896    56391.036    34534.361     9195.949       18.290        5.006      515.470      107.689        0.044      339.810       13.395      855.656
05/29/2013  07:12:00     -256.726      -79.793        1.963      203.029      164.498       82.288    41220.856    27059.485     6771.287        7.365        3.753      268.841       92.578        0.119      339.857       13.475      855.673
05/29/2013  07:13:00     -277.996      -35.185        4.098      219.843      148.795       99.764    48330.878    22140.092     9952.821        7.947        4.021      280.213      113.551        0.164      339.942       13.617      855.657
05/29/2013  07:14:00     -240.647      -36.741        8.010      178.488      130.244       81.581    31857.806    16963.472     6655.534        5.739        2.774      243.435       87.665        0.130      340.004       13.724      855.688
05/29/2013  07:15:00     -418.480     -103.849      -17.038      197.439      168.905       85.133    38982.058    28529.058     7247.582       13.047        3.738      431.173       92.018        0.046      339.979       13.680      855.677
05/29/2013  07:16:00     -406.414      -57.415      -17.298      209.203      168.562       92.478    43765.752    28413.053     8552.237       12.474        4.037      410.449      104.431        0.065      339.996       13.710      855.685
05/29/2013  07:17:00     -489.908     -174.322      -12.161      289.803      187.040      106.861    83986.065    34984.143    11419.216       20.045        6.519      519.998      121.512        0.055      339.969       13.664      855.661
05/29/2013  07:18:00     -286.068      -83.596       -7.900      141.540      145.557       67.383    20033.530    21186.728     4540.422        6.732        2.288      298.032       81.583        0.075      340.013       13.737      855.672
05/29/2013  07:19:00     -325.088      -73.820      -19.175      140.503      143.768       62.562    19740.962    20669.112     3913.992        7.790        2.216      333.364       65.145        0.038      340.031       13.767      855.661
05/29/2013  07:20:00     -365.738      -19.724       -9.627      213.971      136.132       85.059    45783.412    18531.927     7234.952       10.289        3.578      366.270      103.917        0.080      340.048       13.796      855.644
05/29/2013  07:21:00     -483.475      -84.530      -21.776      243.083      154.704       84.202    59089.544    23933.421     7090.007       16.573        4.506      490.809      101.698        0.043      340.052       13.801      855.623
05/29/2013  07:22:00     -449.648        6.273       -9.294      275.675      169.511      100.484    75996.780    28734.037    10097.022       15.855        5.741      449.692      120.878        0.072      340.048       13.796      855.588
05/29/2013  07:23:00     -425.711     -236.523       -9.861      258.265      188.027      104.819    66701.011    35354.100    10987.090       17.514        5.652      487.004      119.198        0.060      340.047       13.793      855.523
05/29/2013  07:24:00     -209.195     -109.543       15.229      159.671      137.298       88.781    25494.953    18850.740     7882.136        5.410        2.611      236.140       96.091        0.166      340.091       13.869      855.525
05/29/2013  07:25:00     -280.660     -210.133      -22.487      170.953      160.397       93.201    29224.804    25727.195     8686.434        9.352        3.182      350.607       90.439        0.067      340.064       13.822      855.514
05/29/2013  07:26:00     -475.608     -155.749      -13.196      246.229      260.457      121.295    60628.664    67837.719    14712.401       19.688        7.159      500.460      119.904        0.057      340.043       13.787      855.499
05/29/2013  07:27:00     -666.941     -107.853      -22.264      328.300      232.759      126.800   107780.700    54176.977    16078.336       31.746        8.902      675.606      165.080        0.060      340.014       13.737      855.446
05/29/2013  07:28:00     -311.099      -73.974       14.644      246.115      156.370       87.152    60572.426    24451.635     7595.438        9.753        4.631      319.773       96.605        0.091      340.075       13.842      855.488
05/29/2013  07:29:00     -337.278     -168.998       -8.152      145.232      121.717       68.819    21092.258    14814.984     4736.055        9.151        2.032      377.249       58.094        0.024      340.103       13.890      855.491
05/29/2013  07:30:00     -299.495      -66.202       -8.926      186.752      114.963       82.643    34876.150    13216.480     6829.911        7.453        2.746      306.724       84.450        0.076      340.125       13.927      855.525
05/29/2013  07:31:00     -304.710      -45.054       -2.328      158.583      176.407       74.536    25148.504    31119.461     5555.584        7.834        3.091      308.023       73.955        0.058      340.153       13.974      855.525
05/29/2013  07:32:00     -203.543     -144.601        1.982      131.667      120.159       72.037    17336.218    14438.092     5189.284        4.965        1.848      249.678       73.462        0.087      340.141       13.955      855.529
05/29/2013  07:33:00     -250.916      -43.643       -9.940      184.554      131.606       74.145    34060.213    17320.142     5497.541        6.091        2.844      254.683       75.119        0.087      340.143       13.957      855.500
05/29/2013  07:34:00     -269.343     -147.376      -12.680      183.470      122.344       77.593    33661.210    14968.045     6020.645        7.453        2.732      307.027       83.287        0.074      340.141       13.954      855.451
05/29/2013  07:35:00     -197.107      -98.345        1.826      211.702      106.871       73.259    44817.625    11421.404     5366.898        5.506        3.080      220.279       78.676        0.128      340.216       14.081      855.447
05/29/2013  07:36:00     -191.739     -105.159        1.503      122.784       87.492       63.724    15075.886     7654.936     4060.743        3.730        1.340      218.684       53.737        0.060      340.236       14.114      855.422
05/29/2013  07:37:00     -256.443     -125.232      -23.448      130.613      143.269       69.826    17059.861    20525.918     4875.727        6.222        2.123      285.387       47.718        0.028      340.282       14.192      855.410
05/29/2013  07:38:00     -345.514     -234.022       -5.419      231.878      198.771       93.129    53767.376    39509.751     8673.045       13.805        5.098      417.308      102.671        0.061      340.315       14.246      855.361
05/29/2013  07:39:00     -317.281     -277.960        5.823      203.440      154.658      101.724    41387.671    23918.988    10347.813       12.680        3.783      421.817      106.102        0.063      340.389       14.372      855.327
05/29/2013  07:40:00     -140.300     -139.741       24.450      173.340      116.980       77.724    30046.630    13684.276     6041.033        4.478        2.489      198.019       90.924        0.211      340.487       14.539      855.342
05/29/2013  07:41:00     -366.519     -124.223       -2.220      220.720      132.024       95.817    48717.406    17430.464     9180.953       11.254        3.766      386.998      109.933        0.081      340.453       14.480      855.329
05/29/2013  07:42:00     -270.285     -240.339        5.004      168.262      200.580       80.312    28312.071    40232.532     6450.023       10.291        3.750      361.686       66.517        0.034      340.413       14.414      855.326
05/29/2013  07:43:00     -424.092     -189.007      -17.708      243.831      172.987       92.903    59453.693    29924.614     8631.033       15.693        4.900      464.304      121.536        0.069      340.443       14.463      855.296
05/29/2013  07:44:00     -269.649     -180.890      -21.936      139.256       92.489       55.271    19392.102     8554.293     3054.841        6.845        1.550      324.703       41.725        0.017      340.458       14.488      855.303
05/29/2013  07:45:00     -245.436     -183.166       -6.363      172.354      162.833       80.901    29705.839    26514.490     6544.903        7.829        3.138      306.249       89.097        0.085      340.483       14.532      855.325
05/29/2013  07:46:00     -159.036     -211.535        4.687      148.604      176.743       60.564    22083.021    31237.951     3668.047        6.352        2.849      264.650       67.167        0.064      340.509       14.577      855.345
05/29/2013  07:47:00     -400.685     -149.647      -16.506      266.525      171.437       85.046    71035.627    29390.564     7232.766       14.542        5.383      427.718       95.742        0.050      340.465       14.503      855.348
05/29/2013  07:48:00     -258.865     -219.084       -9.872      193.563      113.712       77.889    37466.687    12930.387     6066.760        8.578        2.823      339.130       89.199        0.069      340.464       14.498      855.345
05/29/2013  07:49:00     -186.334      -57.224        3.739      176.627      114.962       60.892    31197.074    13216.151     3707.812        4.306        2.406      194.923       73.251        0.141      340.545       14.637      855.372
05/29/2013  07:50:00     -163.268      -58.574        4.225      129.517      116.931       72.915    16774.572    13672.865     5316.596        3.293        1.788      173.457       70.819        0.167      340.521       14.596      855.376
05/29/2013  07:51:00     -154.155     -178.790       17.317      165.526      120.483       81.613    27399.000    14516.229     6660.654        5.229        2.429      236.071       90.249        0.146      340.480       14.526      855.404
05/29/2013  07:52:00     -324.303      -57.511       -4.937      192.492      157.289       74.396    37053.277    24739.977     5534.828        8.790        3.366      329.363       55.265        0.028      340.412       14.411      855.398
05/29/2013  07:53:00     -286.313      -67.759       10.068      227.320      162.017       82.795    51674.306    26249.539     6854.946        8.571        4.239      294.221       81.948        0.078      340.408       14.405      855.375
05/29/2013  07:54:00     -364.330     -108.540      -22.266      147.130       95.946       65.631    21647.222     9205.566     4307.433        9.008        1.758      380.154       56.572        0.022      340.452       14.480      855.442
05/29/2013  07:55:00     -180.107      -54.817        5.834      137.626       90.906       51.921    18940.944     8263.878     2695.751        3.268        1.495      188.264       60.493        0.103      340.566       14.673      855.484
05/29/2013  07:56:00     -171.434      -29.643       -4.486       77.605       78.649       47.753     6022.590     6185.604     2280.366        2.239        0.724      173.978       34.305        0.039      340.557       14.659      855.512
05/29/2013  07:57:00      -44.411      -70.821       21.910      125.096      104.035       59.868    15648.944    10823.362     3584.147        1.876        1.503       83.594       79.729        0.910      340.792       15.055      855.568
05/29/2013  07:58:00     -134.718       24.239      -12.678      141.013      144.432       64.806    19884.590    20860.705     4199.803        3.191        2.247      136.881       63.849        0.218      340.615       14.756      855.586
05/29/2013  07:59:00      -17.537     -158.077       -5.292      113.828       88.767       51.163    12956.900     7879.552     2617.645        2.439        1.173      159.047       28.749        0.033      340.619       14.764      855.614
05/29/2013  08:00:00      -94.385     -207.678       10.043      122.044      100.409       59.198    14894.621    10081.906     3504.345        4.031        1.424      228.120       59.200        0.067      340.565       14.671      855.617
05/29/2013  08:01:00     -254.367     -134.478      -10.581      166.853       99.505       67.320    27839.860     9901.158     4531.950        6.258        2.114      287.727       76.932        0.071      340.553       14.649      855.691
05/29/2013  08:02:00     -239.304       43.816      -21.015      134.241      104.309       51.940    18020.751    10880.379     2697.736        4.561        1.580      243.282       49.710        0.042      340.486       14.537      855.678
05/29/2013  08:03:00     -222.324      -77.147      -10.783      156.168      112.968       52.616    24388.458    12761.717     2768.394        4.770        1.996      235.329       41.103        0.031      340.504       14.567      855.771
05/29/2013  08:04:00     -240.085     -121.875       -4.443      151.891      130.657       64.366    23071.018    17071.154     4142.928        5.839        2.214      269.248       54.105        0.040      340.539       14.627      855.795
05/29/2013  08:05:00     -303.950      -34.126      -15.152      136.570      106.931       56.704    18651.475    11434.218     3215.352        6.353        1.665      305.860       59.384        0.038      340.523       14.600      855.814
05/29/2013  08:06:00      -37.751       -7.195       33.422       63.236       72.353       38.177     3998.761     5235.011     1457.511        0.664        0.535       38.431       27.548        0.514      340.751       14.988      855.866
05/29/2013  08:07:00      -10.646      -54.325       15.894       67.328       57.660       41.701     4533.094     3324.729     1738.932        0.646        0.480       55.358       38.440        0.482      340.617       14.762      855.902
05/29/2013  08:08:00     -248.191      -21.803      -23.738      207.178       80.676       47.260    42922.805     6508.632     2233.512        5.714        2.583      249.147       87.426        0.123      340.545       14.639      855.945
05/29/2013  08:09:00     -321.662     -125.727      -24.584      165.210      122.270       57.811    27294.235    14949.970     3342.103        8.272        2.279      345.360       70.346        0.041      340.516       14.590      855.944
05/29/2013  08:10:00      -30.916      -69.546       37.884      113.196       82.431       61.850    12813.384     6794.824     3825.430        1.533        1.172       76.109       64.490        0.718      340.595       14.724      855.976
05/29/2013  08:11:00     -121.545      -70.560       -3.710      110.571      120.897       63.180    12225.984    14616.018     3991.692        2.529        1.542      140.542       59.596        0.180      340.554       14.656      855.992
05/29/2013  08:12:00     -192.032      -15.791      -17.979       74.517       93.102       32.975     5552.855     8667.950     1087.353        2.638        0.765      192.680       30.027        0.024      340.533       14.619      856.012
05/29/2013  08:13:00       -8.951        9.478      -27.391       62.405       77.285       22.167     3894.410     5972.938      491.394        0.564        0.518       13.036       28.667        4.836      340.556       14.657      855.999
05/29/2013  08:14:00       -4.309       83.030       -1.695       38.506       34.115       31.664     1482.734     1163.820     1002.611        0.528        0.182       83.142       23.024        0.077      340.594       14.721      856.026
05/29/2013  08:15:00       68.813       59.563       -1.024       49.696       35.177       32.920     2469.699     1237.439     1083.706        0.654        0.240       91.011       16.009        0.031      340.639       14.799      856.024
05/29/2013  08:16:00       27.345       66.496       -2.682       50.763       75.896       28.424     2576.870     5760.151      807.935        0.716        0.457       71.899       37.448        0.271      340.638       14.796      856.091
05/29/2013  08:17:00      -10.167       62.105       14.601       60.248       53.584       39.883     3629.855     2871.219     1590.633        0.613        0.405       62.931       39.533        0.395      340.707       14.914      856.115
05/29/2013  08:18:00     -125.041      -19.307      -10.052       73.265       75.565       32.212     5367.739     5710.064     1037.597        1.411        0.606      126.523       33.392        0.070      340.578       14.695      856.151
05/29/2013  08:19:00     -102.419       -2.105       34.657       97.827      103.099       67.268     9570.084    10629.400     4525.000        1.821        1.236      102.441       66.074        0.416      340.591       14.716      856.156
05/29/2013  08:20:00      -78.126     -158.514       20.038      121.545      135.409       68.967    14773.171    18335.623     4756.492        3.474        1.893      176.721       81.933        0.215      340.582       14.700      856.120
05/29/2013  08:21:00     -120.106      -27.244      -12.684       73.662      103.652       35.890     5426.090    10743.834     1288.114        1.639        0.873      123.157       33.542        0.074      340.593       14.719      856.145
05/29/2013  08:22:00       84.686       91.377       -2.768       94.058       50.321       44.572     8846.961     2532.170     1986.672        1.445        0.668      124.585       36.786        0.087      340.668       14.847      856.180
05/29/2013  08:23:00        8.710       86.311       -2.223       89.018       43.216       37.889     7924.118     1867.655     1435.564        0.938        0.561       86.749       31.112        0.129      340.655       14.824      856.194
05/29/2013  08:24:00      -50.086       94.277      -12.556       53.867       64.481       32.439     2901.697     4157.776     1052.285        0.983        0.406      106.756       33.525        0.099      340.694       14.889      856.229
05/29/2013  08:25:00       58.239       69.034       -0.268       36.288       29.266       25.550     1316.820      856.510      652.790        0.549        0.141       90.319       21.234        0.055      340.712       14.922      856.205
05/29/2013  08:26:00      -97.454       -4.846      -11.116       49.490       78.656       24.047     2449.297     6186.747      578.245        0.943        0.461       97.574       21.532        0.049      340.679       14.867      856.275
05/29/2013  08:27:00        7.301       37.719        9.899       48.934       51.574       48.630     2394.501     2659.873     2364.851        0.450        0.371       38.419       30.777        0.642      340.749       14.986      856.261
05/29/2013  08:28:00      100.847       67.194       21.824       55.097       34.661       36.817     3035.644     1201.396     1355.465        1.038        0.280      121.182       19.290        0.025      340.741       14.971      856.240
05/29/2013  08:29:00      -35.599      -16.452       -6.331       29.856       31.544       19.346      891.366      995.013      374.272        0.192        0.113       39.217       16.690        0.181      340.766       15.011      856.310
05/29/2013  08:30:00       78.300       33.614        4.707       51.506       36.051       29.425     2652.833     1299.639      865.820        0.605        0.241       85.211       15.719        0.034      340.757       14.999      856.324
05/29/2013  08:31:00       64.110       99.768       -8.424       26.965       77.670       42.662      727.100     6032.596     1820.021        1.136        0.429      118.590       43.507        0.135      340.700       14.902      856.349
05/29/2013  08:32:00      155.508       97.386        5.464       69.172       45.034       37.295     4784.795     2028.086     1390.918        2.095        0.410      183.485       19.807        0.012      340.696       14.891      856.370
05/29/2013  08:33:00      140.865       91.366       57.404       78.924       50.735       49.789     6229.049     2574.042     2478.919        2.138        0.564      167.901       33.039        0.039      340.679       14.865      856.362
05/29/2013  08:34:00       13.750        0.749        2.498       26.902       22.594       23.839      723.691      510.499      568.280        0.100        0.090       13.771       22.226        2.605      340.782       15.040      856.415
05/29/2013  08:35:00       23.489      -59.072        4.428       21.347       42.141       18.661      455.707     1775.823      348.234        0.332        0.129       63.571       24.813        0.152      340.862       15.174      856.408
05/29/2013  08:36:00       26.003      -61.503        5.361       42.224       63.424       52.142     1782.875     4022.652     2718.826        0.650        0.426       66.774       41.831        0.392      340.777       15.032      856.386
05/29/2013  08:37:00       46.069      -17.088       40.123       40.069       76.999       50.215     1605.512     5928.824     2521.524        0.704        0.503       49.136       49.100        0.999      340.786       15.047      856.406
05/29/2013  08:38:00       66.522       -0.768       42.630       58.006      106.980       46.177     3364.656    11444.741     2132.273        1.159        0.847       66.526       57.636        0.751      340.799       15.069      856.412
05/29/2013  08:39:00       99.141      110.186       34.816       33.935       24.954       32.040     1151.573      622.692     1026.542        1.299        0.140      148.222       11.923        0.006      340.742       14.973      856.406
05/29/2013  08:40:00       -2.106       27.314       84.493       26.398       41.240       28.236      696.868     1700.766      797.282        0.554        0.160       27.395       26.317        0.923      340.894       15.230      856.388
05/29/2013  08:41:00      -44.976      -21.143       23.703       34.828       66.177       40.883     1212.959     4379.412     1671.451        0.515        0.363       49.698       43.912        0.781      340.876       15.199      856.372
05/29/2013  08:42:00       10.464     -110.523      -11.679       63.399       90.410       30.956     4019.492     8174.048      958.245        1.280        0.658      111.017       27.965        0.063      340.863       15.177      856.383
05/29/2013  08:43:00     -116.429     -110.267       -4.370       66.789       74.245       26.492     4460.816     5512.388      701.801        1.820        0.534      160.357       30.027        0.035      340.838       15.135      856.365
05/29/2013  08:44:00     -108.566      -85.890        4.099      101.009       96.201       54.264    10202.830     9254.681     2944.600        2.079        1.120      138.433       46.748        0.114      340.890       15.221      856.412
05/29/2013  08:45:00     -190.849     -146.984        4.935      120.125       99.184       70.050    14429.965     9837.400     4906.985        4.361        1.459      240.889       74.448        0.096      340.886       15.212      856.414
05/29/2013  08:46:00      -96.926      -65.612        2.779       73.910       96.389       41.672     5462.728     9290.759     1736.595        1.510        0.825      117.045       28.962        0.061      340.871       15.189      856.426
05/29/2013  08:47:00      134.759      159.926       15.422      168.507       98.084       67.949    28394.716     9620.538     4617.097        4.330        2.132      209.132       59.031        0.080      340.894       15.227      856.449
05/29/2013  08:48:00       -6.924        8.809       28.881      208.283      138.771       69.336    43381.852    19257.341     4807.538        3.419        3.372       11.205       84.119       56.364      340.902       15.242      856.359
05/29/2013  08:49:00      -81.833     -106.638        2.152       62.681       59.722       40.483     3928.964     3566.705     1638.902        1.360        0.457      134.418       41.819        0.097      340.977       15.369      856.433
05/29/2013  08:50:00      -77.952      -85.064        6.763       66.508       48.707       39.037     4423.269     2372.342     1523.919        1.084        0.416      115.379       27.636        0.057      341.058       15.506      856.462
05/29/2013  08:51:00     -179.337     -132.142      -14.598      107.920       70.696       41.603    11646.679     4997.946     1730.828        3.410        0.919      222.763       42.050        0.036      340.873       15.192      856.463
05/29/2013  08:52:00      -76.760       26.495      -20.587       75.643       76.317       37.132     5721.841     5824.344     1378.789        0.997        0.646       81.204       34.558        0.181      340.878       15.202      856.460
05/29/2013  08:53:00     -226.865      -51.600      -14.421       98.082       77.521       52.748     9620.175     6009.577     2782.318        3.637        0.921      232.659       49.817        0.046      340.864       15.176      856.470
05/29/2013  08:54:00      -26.791       31.597        4.994       52.538       38.214       33.704     2760.208     1460.272     1135.985        0.355        0.268       41.426       23.597        0.324      340.994       15.399      856.451
05/29/2013  08:55:00      -74.164      -45.253      -14.270       41.618       67.334       27.163     1732.017     4533.890      737.850        0.738        0.350       86.880       15.816        0.033      340.951       15.326      856.472
05/29/2013  08:56:00      -96.608     -116.506        8.789      110.729       86.698       53.634    12260.848     7516.512     2876.556        2.282        1.133      151.350       49.123        0.105      341.019       15.438      856.488
05/29/2013  08:57:00      -59.474      -43.727        1.070       99.417       45.435       31.205     9883.667     2064.352      973.763        0.918        0.646       73.819       20.120        0.074      341.133       15.633      856.466
05/29/2013  08:58:00       -2.153      -34.685       17.440       70.231       73.772       53.798     4932.351     5442.367     2894.188        0.739        0.663       34.752       38.503        1.228      341.345       15.992      856.439
05/29/2013  08:59:00     -105.167      -65.489       12.138      107.569       91.990       36.915    11571.137     8462.143     1362.726        1.844        1.070      123.890       51.549        0.173      341.268       15.861      856.462
05/29/2013  09:00:00     -204.571     -208.833       -0.737      131.667      105.545       58.713    17336.081    11139.703     3447.264        5.869        1.596      292.337       64.042        0.048      341.052       15.494      856.492
05/29/2013  09:01:00     -107.462     -140.495       11.798      127.670       77.280       44.819    16299.706     5972.235     2008.717        2.785        1.214      176.881       53.997        0.093      341.127       15.622      856.533
05/29/2013  09:02:00     -216.413       34.052       -6.563      114.130      100.943       48.215    13025.645    10189.445     2324.722        3.678        1.277      219.076       52.931        0.058      341.218       15.774      856.556
05/29/2013  09:03:00     -234.663      -67.501      -12.626      116.890       65.444       39.758    13663.288     4282.873     1580.704        3.965        0.976      244.179       50.486        0.043      341.154       15.666      856.632
05/29/2013  09:04:00     -189.946     -131.452        3.742       99.042       78.833       48.443     9809.411     6214.697     2346.770        3.587        0.919      230.996       45.674        0.039      341.108       15.589      856.677
05/29/2013  09:05:00     -204.825      -41.662        3.684      178.052      145.699       80.482    31702.671    21228.265     6477.393        5.155        2.970      209.019       94.463        0.204      341.320       15.948      856.660
05/29/2013  09:06:00     -364.076      -53.666      -25.134      155.643      124.163       66.522    24224.594    15416.494     4425.203        9.006        2.203      368.010       53.556        0.021      341.138       15.640      856.618
05/29/2013  09:07:00     -442.262     -101.583      -11.120      162.302      135.040       73.649    26341.951    18235.880     5424.197       12.801        2.500      453.778       73.726        0.026      341.056       15.501      856.607
05/29/2013  09:08:00     -538.734     -143.998      -27.728      192.740      207.113       97.271    37148.776    42895.685     9461.702       20.061        4.475      557.646       96.400        0.030      341.174       15.700      856.603
05/29/2013  09:09:00     -629.146      -49.591      -66.889      187.652      175.989       92.028    35213.134    30972.082     8469.199       23.869        3.733      631.098       98.932        0.025      341.279       15.879      856.590
05/29/2013  09:10:00     -649.407      -23.363      -44.586      200.504      134.997       87.592    40201.881    18224.128     7672.284       24.517        3.305      649.827      102.729        0.025      341.244       15.819      856.615
05/29/2013  09:11:00     -330.623       -8.324      -24.681      130.911      108.201       54.856    17137.740    11707.402     3009.183        7.092        1.593      330.728       43.870        0.018      341.347       15.992      856.639
05/29/2013  09:12:00     -106.580      -46.878        7.116       85.325       98.897       51.509     7280.373     9780.582     2653.145        1.666        0.986      116.434       38.345        0.108      341.723       16.634      856.603
05/29/2013  09:13:00     -281.358      -54.869      -27.449      154.476      123.979       60.802    23862.943    15370.820     3696.903        6.292        2.147      286.658       46.960        0.027      341.626       16.466      856.608
05/29/2013  09:14:00     -367.427       -7.921      -22.844      124.383      100.410       61.225    15471.161    10082.235     3748.484        8.244        1.465      367.513       55.498        0.023      341.586       16.398      856.609
05/29/2013  09:15:00     -390.165     -181.234       -7.095      183.261      153.646       81.247    33584.468    23607.049     6601.085       12.445        3.190      430.203       92.968        0.047      341.597       16.416      856.619
05/29/2013  09:16:00     -225.762     -210.593        9.120      203.525      164.125      109.907    41422.377    26936.953    12079.540        8.791        4.022      308.735      112.325        0.132      341.493       16.241      856.544
05/29/2013  09:17:00     -291.355      -87.561       -5.530      226.514      183.131      103.254    51308.819    33536.792    10661.442        9.403        4.775      304.228      106.753        0.123      341.538       16.319      856.540
05/29/2013  09:18:00     -392.782      -17.176      -19.566      180.005      106.841       71.243    32401.830    11414.981     5075.621       10.192        2.445      393.157       83.036        0.045      341.542       16.323      856.572
05/29/2013  09:19:00     -252.380       38.754       -2.234      163.367      110.707       76.552    26688.705    12255.981     5860.275        5.500        2.240      255.338       79.805        0.098      341.850       16.846      856.561
05/29/2013  09:20:00     -572.727      -62.756      -32.856      195.203      175.709       90.277    38104.373    30873.565     8149.896       20.507        3.856      576.155       97.108        0.028      341.515       16.278      856.550
05/29/2013  09:21:00     -549.637      -92.919       -9.436      204.272      134.278       92.711    41727.001    18030.509     8595.420       18.958        3.418      557.436      101.862        0.033      341.455       16.175      856.544
05/29/2013  09:22:00     -540.875      -64.485      -29.540      219.917      187.608      111.703    48363.474    35196.711    12477.579       19.679        4.802      544.706      115.911        0.045      341.485       16.227      856.525
05/29/2013  09:23:00     -539.329      -62.950      -26.298      217.699      182.518       97.914    47393.010    33312.914     9587.215       19.290        4.515      542.990      116.705        0.046      341.542       16.323      856.519
05/29/2013  09:24:00     -422.186      -77.483       -6.807      226.186      185.770       88.341    51160.053    34510.373     7804.049       13.887        4.674      429.237      100.126        0.054      341.637       16.486      856.518
05/29/2013  09:25:00     -394.116     -178.308        3.713      261.845      216.274      108.292    68562.598    46774.486    11727.087       15.708        6.353      432.575      127.432        0.087      341.664       16.531      856.477
05/29/2013  09:26:00     -436.190     -179.500       -6.376      229.700      208.166      119.741    52761.990    43333.144    14338.001       16.646        5.522      471.680      136.665        0.084      341.561       16.357      856.445
05/29/2013  09:27:00     -481.571      -63.492      -21.683      226.637      192.303       98.802    51364.191    36980.496     9761.762       16.724        4.905      485.739      106.966        0.048      341.626       16.465      856.426
05/29/2013  09:28:00     -592.617     -173.121      -30.079      231.188      201.868       97.338    53447.692    40750.741     9474.739       24.285        5.184      617.386      104.287        0.029      341.357       16.011      856.349
05/29/2013  09:29:00     -429.585      -98.119       -6.910      228.424      162.280       95.890    52177.402    26334.902     9194.910       14.095        4.385      440.648      115.925        0.069      341.663       16.529      856.362
05/29/2013  09:30:00     -425.910      -51.985      -19.709      229.145      142.415       80.620    52507.413    20282.068     6499.544       13.188        3.964      429.071       90.738        0.045      341.618       16.452      856.351
05/29/2013  09:31:00     -632.278     -112.810      -30.199      224.451      150.987       80.072    50378.197    22797.012     6411.494       24.649        3.979      642.263       83.051        0.017      341.633       16.478      856.335
05/29/2013  09:32:00     -519.739      -13.616      -25.829      269.934      197.880      110.155    72864.216    39156.389    12134.069       19.755        6.208      519.917      122.637        0.056      341.666       16.533      856.304
05/29/2013  09:33:00     -559.946     -106.904      -24.665      239.833      195.067      101.647    57520.005    38051.150    10332.117       21.572        5.295      570.060      116.581        0.042      341.542       16.324      856.291
05/29/2013  09:34:00     -479.610     -326.470      -29.345      265.920      214.268      137.809    70713.655    45910.836    18991.396       23.652        6.781      580.180      143.603        0.061      341.482       16.222      856.196
05/29/2013  09:35:00     -528.077       30.441      -56.986      204.679      151.750       90.808    41893.296    23027.975     8246.166       17.809        3.658      528.954       91.352        0.030      341.730       16.642      856.182
05/29/2013  09:36:00     -602.979     -106.573      -47.977      277.676      234.918      113.262    77104.221    55186.594    12828.290       26.116        7.256      612.325      131.557        0.046      341.619       16.454      856.152
05/29/2013  09:37:00     -744.089     -110.411      -64.138      241.282      231.654      107.345    58216.884    53663.500    11522.941       34.667        6.170      752.236      119.210        0.025      341.467       16.195      856.130
05/29/2013  09:38:00     -485.141      -24.511      -13.732      247.490      192.156      102.064    61251.467    36923.897    10416.976       17.235        5.430      485.760      113.379        0.054      341.657       16.519      856.119
05/29/2013  09:39:00     -233.907        7.691       12.524      190.157      138.846       73.619    36159.696    19278.229     5419.704        5.788        3.043      234.033       88.364        0.143      341.996       17.095      856.078
05/29/2013  09:40:00     -299.815      -28.529       -2.945      187.413      115.505       80.534    35123.791    13341.385     6485.794        7.282        2.748      301.170       85.248        0.080      342.003       17.106      856.056
05/29/2013  09:41:00     -212.014      -89.141       24.435      173.981      153.981       79.904    30269.444    23710.275     6384.646        5.692        3.018      229.991       92.697        0.162      342.289       17.592      856.024
05/29/2013  09:42:00     -390.868      -91.958      -30.195      245.563      191.066       91.530    60300.982    36506.180     8377.760       13.365        5.259      401.539      111.316        0.077      341.786       16.738      856.020
05/29/2013  09:43:00     -454.277     -152.835       -2.081      201.484      167.589       99.232    40595.820    28086.234     9846.988       15.412        3.926      479.297       94.239        0.039      341.836       16.821      856.056
05/29/2013  09:44:00     -474.220      -59.530      -13.651      243.814      210.402       99.752    59445.089    44268.878     9950.479       17.112        5.683      477.942      109.650        0.053      341.752       16.680      856.056
05/29/2013  09:45:00     -424.996     -150.737       -6.772      221.464      167.150       83.284    49046.232    27939.130     6936.299       14.364        4.196      450.936       79.684        0.031      342.053       17.190      856.106
05/29/2013  09:46:00     -396.233      -27.259      -28.930      340.146      130.536       99.531   115699.533    17039.581     9906.397       15.059        7.132      397.170      148.462        0.140      341.902       16.934      856.149
05/29/2013  09:47:00     -378.675      -69.252       -2.571      239.062      184.510       80.759    57150.627    34043.955     6522.024       12.294        4.886      384.955       97.649        0.064      341.930       16.982      856.192
05/29/2013  09:48:00     -526.915      -95.847      -26.523      231.032      163.911       90.636    53375.556    26866.901     8214.975       18.798        4.423      535.561      109.015        0.041      341.532       16.307      856.186
05/29/2013  09:49:00     -383.719      -63.184      -34.217      202.933      107.860       82.086    41181.906    11633.874     6738.152       10.597        2.978      388.886       92.818        0.057      341.773       16.715      856.174
05/29/2013  09:50:00     -340.531      -70.952       -6.675      188.432      142.947       73.540    35506.477    20433.766     5408.154        9.118        3.067      347.844       88.799        0.065      342.040       17.168      856.216
05/29/2013  09:51:00     -310.211     -104.901       13.253      199.781      149.227       85.397    39912.284    22268.672     7292.720        8.843        3.474      327.467      108.012        0.109      342.040       17.169      856.211
05/29/2013  09:52:00     -337.541     -203.393       -7.906      222.443      164.926       94.202    49481.107    27200.441     8873.934       12.045        4.278      394.084      117.272        0.089      341.898       16.928      856.210
05/29/2013  09:53:00     -285.747     -152.335       -2.978      216.885      175.987       76.732    47039.291    30971.443     5887.853        9.437        4.195      323.817       95.578        0.087      341.959       17.032      856.179
05/29/2013  09:54:00     -395.450      -85.887      -26.511      227.806      182.213      100.150    51895.407    33201.651    10030.071       12.978        4.756      404.669      110.045        0.074      342.026       17.145      856.214
05/29/2013  09:55:00     -496.269     -301.238      -12.260      334.542      221.605      124.554   111918.061    49108.862    15513.753       25.683        8.827      580.541      160.565        0.076      341.817       16.790      856.213
05/29/2013  09:56:00     -529.269     -200.600      -24.011      243.611      200.541       94.687    59346.328    40216.650     8965.630       21.472        5.426      566.009      110.466        0.038      341.682       16.560      856.236
05/29/2013  09:57:00     -363.389      -77.839       -5.737      209.111      147.851       88.733    43727.224    21859.990     7873.506       10.579        3.673      371.632       96.758        0.068      341.851       16.845      856.260
05/29/2013  09:58:00     -507.170      -88.940      -24.289      253.377      215.681       92.596    64199.740    46518.462     8573.974       19.249        5.965      514.909      114.400        0.049      341.801       16.763      856.236
05/29/2013  09:59:00     -534.902      -54.854      -35.304      232.507      179.939       88.323    54059.309    32378.149     7800.928       19.229        4.712      537.707       96.934        0.032      341.601       16.425      856.268
05/29/2013  10:00:00     -332.358      -24.683      -14.480      252.650      157.672       95.079    63831.783    24860.422     9040.097       10.449        4.887      333.273       91.381        0.075      341.938       16.996      856.283
05/29/2013  10:01:00     -565.355     -145.852      -19.715      244.974      252.492      104.368    60012.168    63752.009    10892.755       23.795        6.733      583.865      120.174        0.042      341.741       16.660      856.315
05/29/2013  10:02:00     -348.762     -286.121      -10.045      202.835      189.945       87.094    41142.098    36079.120     7585.424       14.419        4.240      451.109      102.109        0.051      341.542       16.325      856.330
05/29/2013  10:03:00     -275.455     -108.931       -0.614      183.940      126.069       84.510    33833.810    15893.337     7141.973        7.230        2.843      296.212       99.374        0.113      342.083       17.243      856.333
05/29/2013  10:04:00     -300.822     -233.823      -16.879      165.697      169.530       94.848    27455.371    28740.382     8996.131       10.531        3.260      381.007       92.898        0.059      341.863       16.867      856.327
05/29/2013  10:05:00     -203.295      -77.149       -4.820      175.953      103.891       66.456    30959.308    10793.285     4416.404        4.673        2.308      217.442       76.497        0.124      342.196       17.435      856.314
05/29/2013  10:06:00     -515.989     -138.489      -16.617      206.089      153.859       82.684    42472.659    23672.728     6836.656       17.933        3.649      534.251       62.328        0.014      341.788       16.742      856.322
05/29/2013  10:07:00     -324.259      -88.572      -11.788      193.080      134.019       78.609    37280.027    17961.110     6179.369        8.726        3.071      336.138       80.836        0.058      342.173       17.395      856.355
05/29/2013  10:08:00     -637.169     -171.583      -26.236      268.732      250.791      118.150    72216.901    62896.249    13959.494       29.257        7.454      659.867      128.821        0.038      341.830       16.811      856.332
05/29/2013  10:09:00     -441.896     -110.944       12.910      222.275      151.706       99.602    49405.955    23014.793     9920.508       14.503        4.117      455.610      116.320        0.065      341.926       16.975      856.364
05/29/2013  10:10:00     -404.491      -79.033       -6.909      155.657      124.319       79.011    24229.247    15455.230     6242.771       10.791        2.296      412.140       84.089        0.042      341.816       16.788      856.392
05/29/2013  10:11:00     -304.836     -213.906      -13.519      174.612      158.754       89.213    30489.236    25202.744     7958.962       10.125        3.183      372.398       90.181        0.059      341.999       17.100      856.377
05/29/2013  10:12:00     -257.451      -19.908        3.455      189.173      141.137       90.501    35786.414    19919.765     8190.408        6.528        3.195      258.219       97.840        0.144      342.346       17.689      856.350
05/29/2013  10:13:00     -217.437      -66.968       14.198      202.545      217.044       93.643    41024.407    47108.139     8769.074        7.442        4.845      227.516      102.781        0.204      342.229       17.490      856.352
05/29/2013  10:14:00     -206.067     -153.919       17.615      187.607      152.344       83.752    35196.222    23208.836     7014.395        6.593        3.271      257.205       92.267        0.129      342.154       17.363      856.320
05/29/2013  10:15:00     -303.830     -201.466       -7.640      249.154      104.658       84.881    62077.751    10953.268     7204.764       10.658        4.012      364.557       98.301        0.073      341.901       16.933      856.312
05/29/2013  10:16:00     -224.357      -76.368       24.336      159.958      172.109       89.055    25586.699    29621.621     7930.751        5.994        3.157      236.998       95.368        0.162      342.120       17.305      856.273
05/29/2013  10:17:00     -314.086     -212.562       -2.070      205.821      174.817       90.549    42362.297    30560.993     8199.103       11.247        4.056      379.253      104.022        0.075      341.999       17.099      856.271
05/29/2013  10:18:00     -295.610     -183.301        6.743      231.789      199.940       96.072    53726.298    39975.873     9229.863       11.196        5.147      347.828       94.244        0.073      342.011       17.118      856.256
05/29/2013  10:19:00     -371.222     -118.932       -3.149      208.282      214.438       94.924    43381.389    45983.751     9010.585       12.515        4.919      389.809      115.696        0.088      341.912       16.952      856.272
05/29/2013  10:20:00     -428.299      -21.567      -16.681      163.069      161.960       72.432    26591.457    26231.012     5246.400       12.112        2.903      428.842       70.856        0.027      342.030       17.151      856.318
05/29/2013  10:21:00     -430.355      -16.819      -29.179      206.942      139.618       80.998    42825.176    19493.169     6560.658       12.760        3.444      430.684       96.523        0.050      342.000       17.102      856.281
05/29/2013  10:22:00     -478.791     -159.349      -19.582      197.667      119.742       91.993    39072.168    14338.083     8462.636       15.843        3.094      504.611      104.560        0.043      341.733       16.646      856.241
05/29/2013  10:23:00     -206.343      -12.880        4.265      173.844      135.517       53.140    30221.801    18364.775     2823.892        4.708        2.571      206.744       58.955        0.081      342.229       17.490      856.259
05/29/2013  10:24:00     -613.574      -64.943       -7.036      321.658      206.172       96.475   103463.995    42506.700     9307.362       26.798        7.764      617.001      107.482        0.030      341.969       17.046      856.262
05/29/2013  10:25:00     -517.312     -137.799      -20.310      199.803      160.380       89.659    39921.386    25721.737     8038.721       18.034        3.684      535.351       91.505        0.029      342.071       17.220      856.312
05/29/2013  10:26:00     -616.769     -146.390      -36.323      195.775      190.189       89.215    38327.679    36171.976     7959.343       24.279        4.123      633.904       94.622        0.022      341.725       16.633      856.300
05/29/2013  10:27:00     -436.264     -145.710      -22.411      226.525      168.896       89.064    51313.460    28525.725     7932.326       14.990        4.389      459.954       94.104        0.042      341.843       16.835      856.278
05/29/2013  10:28:00     -483.615     -106.634      -42.231      174.641      172.621       77.006    30499.473    29797.930     5929.893       15.662        3.311      495.232       88.450        0.032      341.631       16.473      856.213
05/29/2013  10:29:00     -377.559      -94.017      -15.634      190.672      162.800       94.312    36355.984    26503.923     8894.836       11.168        3.588      389.089       91.584        0.055      341.704       16.599      856.192
05/29/2013  10:30:00     -428.926     -107.415      -11.376      203.902      162.112       98.003    41576.000    26280.250     9604.508       13.654        3.873      442.171      106.311        0.058      342.108       17.283      856.239
05/29/2013  10:31:00     -428.486     -324.147       11.196      284.119      224.178      127.757    80723.830    50255.803    16321.782       21.802        7.365      537.282      142.162        0.070      341.877       16.892      856.280
05/29/2013  10:32:00     -540.131     -371.415      -12.979      290.635      218.930      118.475    84468.685    47930.499    14036.304       28.812        7.322      655.508      151.415        0.053      341.717       16.621      856.267
05/29/2013  10:33:00     -387.002     -195.523      -21.475      259.628      187.193       90.873    67406.787    35041.219     8257.969       14.956        5.535      433.589       97.675        0.051      342.005       17.110      856.308
05/29/2013  10:34:00     -321.228       12.830      -25.226      171.875      161.999       66.157    29541.155    26243.627     4376.691        8.206        3.008      321.484       64.151        0.040      342.193       17.427      856.331
05/29/2013  10:35:00     -420.801      -70.794      -30.932      224.836      172.341       76.322    50551.234    29701.393     5824.974       13.455        4.304      426.715       55.036        0.017      342.192       17.427      856.333
05/29/2013  10:36:00     -342.032     -127.084      -27.985      122.104      155.152       66.526    14909.308    24072.182     4425.751        8.866        2.170      364.878       44.426        0.015      342.167       17.384      856.421
05/29/2013  10:37:00     -391.121      -65.166       -6.324      179.435      119.139       77.761    32196.869    14194.202     6046.761       10.484        2.622      396.513       81.191        0.042      342.218       17.470      856.465
05/29/2013  10:38:00     -340.225      -90.515      -16.719      273.219      148.761       80.978    74648.666    22129.910     6557.465       11.376        5.167      352.060       63.327        0.032      342.143       17.345      856.451
05/29/2013  10:39:00     -637.873     -236.581      -18.127      225.980      206.253       98.009    51066.842    42540.182     9605.782       28.318        5.161      680.333      104.980        0.024      341.994       17.088      856.427
05/29/2013  10:40:00     -477.840     -204.095       -2.626      291.644      161.787      113.229    85056.039    26174.914    12820.745       19.700        6.203      519.602      145.630        0.079      341.973       17.055      856.445
05/29/2013  10:41:00     -287.780      -38.319       29.223      228.524      109.861       88.666    52223.028    12069.496     7861.600        7.863        3.608      290.320      114.375        0.155      342.497       17.945      856.475
05/29/2013  10:42:00     -541.608      -75.155      -52.797      311.006      167.490       96.353    96724.562    28052.846     9283.903       21.790        6.703      546.797      128.833        0.056      342.147       17.351      856.467
05/29/2013  10:43:00     -447.313     -153.024      -29.150      243.780      161.083       79.874    59428.851    25947.851     6379.855       15.804        4.588      472.763       88.492        0.035      342.242       17.512      856.491
05/29/2013  10:44:00     -301.086     -137.973       -4.948      261.495      220.419       86.061    68379.443    48584.363     7406.411       11.702        6.219      331.194      102.013        0.095      342.331       17.663      856.504
05/29/2013  10:45:00     -194.670     -133.257       18.935      248.933      155.516      100.844    61967.786    24185.241    10169.444        7.615        4.816      235.911      130.888        0.308      342.440       17.850      856.507
05/29/2013  10:46:00     -411.913     -193.991      -11.240      246.225      173.525       91.216    60626.605    30110.922     8320.343       15.323        4.953      455.308      100.360        0.049      342.144       17.345      856.530
05/29/2013  10:47:00     -456.662      -94.601        5.829      258.506      206.541      103.456    66825.565    42659.125    10703.227       16.884        6.009      466.357      125.321        0.072      341.893       16.919      856.512
05/29/2013  10:48:00     -445.095     -154.548      -12.172      204.594      182.723       88.155    41858.829    33387.846     7771.333       15.257        4.151      471.163       97.131        0.042      341.977       17.061      856.476
05/29/2013  10:49:00     -317.412      -28.839        2.818      202.783      129.399       77.906    41121.011    16744.029     6069.370        8.275        3.197      318.720       90.790        0.081      342.128       17.318      856.442
05/29/2013  10:50:00     -511.368     -155.835      -17.452      204.501      200.680       88.038    41820.847    40272.291     7750.637       18.795        4.492      534.586       91.813        0.029      341.974       17.057      856.419
05/29/2013  10:51:00     -490.482     -111.719      -40.488      183.742      128.428       84.335    33761.193    16493.872     7112.389       15.602        2.868      503.045       86.165        0.029      341.973       17.054      856.429
05/29/2013  10:52:00     -395.311     -267.131       -3.936      232.298      223.561      100.231    53962.231    49979.707    10046.184       17.080        5.699      477.106      124.530        0.068      342.025       17.143      856.392
05/29/2013  10:53:00     -404.689     -239.845      -25.531      167.493      167.659       82.087    28053.987    28109.513     6738.254       14.242        3.145      470.424       69.521        0.022      341.917       16.960      856.400
05/29/2013  10:54:00     -318.440     -199.672       -5.323      167.716      156.083       86.099    28128.772    24361.851     7413.043       10.059        2.995      375.863       95.304        0.064      342.180       17.408      856.390
05/29/2013  10:55:00     -340.242      -89.735      -12.247      184.583      148.434       78.397    34071.023    22032.756     6146.139        9.310        3.112      351.876       81.373        0.053      342.073       17.224      856.381
05/29/2013  10:56:00     -295.121     -223.846       15.239      224.997      172.572      106.680    50623.854    29781.184    11380.635       11.460        4.589      370.410      131.667        0.126      342.105       17.279      856.352
05/29/2013  10:57:00     -474.324     -318.667        5.380      261.751      187.155      117.549    68513.569    35027.144    13817.714       22.194        5.868      571.429      134.801        0.056      342.001       17.102      856.308
05/29/2013  10:58:00     -423.629     -280.870        4.463      302.979      182.099      138.595    91796.184    33160.061    19208.551       20.124        7.208      508.281      163.696        0.104      342.113       17.290      856.316
05/29/2013  10:59:00     -355.330     -120.631       -4.151      277.495      119.389       80.837    77003.636    14253.623     6534.572       11.929        4.890      375.249      104.861        0.078      342.092       17.257      856.390
05/29/2013  11:00:00     -400.891       40.967      -26.472      190.082      142.729       68.511    36131.326    20371.486     4693.792       11.213        3.060      402.978       74.427        0.034      342.200       17.440      856.419
05/29/2013  11:01:00     -213.072       -7.071      -15.831      138.850       81.940       53.999    19279.188     6714.151     2915.887        3.730        1.445      213.190       65.500        0.094      342.421       17.817      856.426
05/29/2013  11:02:00     -188.245      -88.699        6.880      146.822      123.306       59.736    21556.747    15204.371     3568.403        4.183        2.016      208.095       72.039        0.120      342.368       17.727      856.404
05/29/2013  11:03:00     -142.175      -96.155       14.715      125.536       79.518       55.785    15759.254     6323.108     3112.012        2.743        1.260      171.638       52.217        0.093      342.478       17.914      856.411
05/29/2013  11:04:00     -249.549     -225.394       -4.622      178.849      155.547       88.087    31987.007    24194.752     7759.289        8.851        3.197      336.270       96.712        0.083      342.471       17.901      856.439
05/29/2013  11:05:00     -223.177     -183.681       -0.529      196.344      123.815       82.639    38550.933    15330.243     6829.185        7.212        3.036      289.044       91.095        0.099      342.526       17.995      856.423
05/29/2013  11:06:00     -329.472     -229.281        9.061      229.108      194.962      104.155    52490.338    38010.009    10848.361       13.126        5.067      401.399      121.287        0.091      342.092       17.256      856.457
05/29/2013  11:07:00     -366.812     -305.898       -7.532      195.009      161.573       87.799    38028.534    26105.872     7708.692       15.000        3.592      477.624       92.926        0.038      342.052       17.188      856.461
05/29/2013  11:08:00     -266.529     -185.579        7.395      209.997      164.822       81.098    44098.687    27166.456     6576.897        9.167        3.892      324.773      104.705        0.104      342.509       17.966      856.454
05/29/2013  11:09:00     -438.522      -91.963      -10.036      202.817      213.903       91.274    41134.877    45754.513     8331.009       14.802        4.761      448.061       92.074        0.042      342.413       17.802      856.463
05/29/2013  11:10:00     -379.291     -111.249      -19.472      194.097      107.709       76.990    37673.655    11601.281     5927.404       10.590        2.760      395.270       86.596        0.048      342.204       17.446      856.437
05/29/2013  11:11:00     -137.234      -92.548       -4.464      113.863       98.615       52.118    12964.733     9724.825     2716.262        2.641        1.270      165.524       47.847        0.084      342.490       17.934      856.418
05/29/2013  11:12:00     -300.608      -80.909       -5.236      100.997       94.916       55.694    10200.364     9008.977     3101.830        5.962        1.116      311.306       42.348        0.019      342.433       17.836      856.424
05/29/2013  11:13:00     -287.960     -149.205       24.528      223.271      203.213       91.297    49850.128    41295.494     8335.161       10.262        4.974      324.319      102.224        0.099      342.751       18.378      856.464
05/29/2013  11:14:00     -163.834      -53.888        8.524      173.459      131.074       72.330    30087.853    17180.312     5231.642        4.115        2.625      172.469       73.465        0.181      342.806       18.472      856.521
05/29/2013  11:15:00     -358.887      -55.543       -2.821      129.768      145.213       68.453    16839.643    21086.941     4685.752        8.725        2.131      363.160       55.264        0.023      342.460       17.882      856.488
05/29/2013  11:16:00     -394.906      -88.151      -27.354      168.291      132.759       74.380    28321.733    17625.001     5532.321       10.797        2.574      404.625       75.664        0.035      342.431       17.832      856.493
05/29/2013  11:17:00     -526.787     -119.909      -33.905      249.516      191.506       80.373    62258.006    36674.606     6459.830       19.919        5.270      540.261       92.033        0.029      342.445       17.857      856.464
05/29/2013  11:18:00     -663.287     -175.839      -20.192      231.390      173.352       98.785    53541.207    30050.778     9758.475       28.230        4.668      686.199      109.708        0.026      342.126       17.314      856.418
05/29/2013  11:19:00     -368.954     -181.771        3.323      223.511      185.152       89.945    49957.156    34281.379     8090.052       13.074        4.616      411.300       99.731        0.059      342.282       17.578      856.439
05/29/2013  11:20:00     -545.766      -86.880      -21.355      173.558      153.633       88.447    30122.223    23603.095     7822.815       18.370        3.077      552.638       89.549        0.026      342.497       17.943      856.471
05/29/2013  11:21:00     -269.613     -226.120       -5.536      172.867      152.038       87.774    29882.900    23115.692     7704.255        9.227        3.035      351.882       69.152        0.039      342.430       17.831      856.458
05/29/2013  11:22:00     -449.028     -265.292       -8.669      232.598      197.204      103.055    54101.801    38889.365    10620.403       18.783        5.181      521.542      107.471        0.042      342.158       17.368      856.454
05/29/2013  11:23:00     -372.131     -267.065      -14.549      209.316      202.413       92.277    43813.321    40971.018     8515.129       15.164        4.665      458.045      103.967        0.052      342.086       17.246      856.466
05/29/2013  11:24:00     -476.971     -227.128      -24.400      214.524      181.884       89.395    46020.485    33081.630     7991.493       18.337        4.355      528.288       87.918        0.028      342.289       17.591      856.459
05/29/2013  11:25:00     -410.346     -148.437      -14.601      229.002      205.365      103.252    52442.010    42174.897    10660.953       14.794        5.264      436.368      108.052        0.061      342.143       17.344      856.492
05/29/2013  11:26:00     -590.230     -119.472      -40.837      183.501      178.662       87.567    33672.719    31920.035     7668.035       21.877        3.663      602.200       79.066        0.017      342.168       17.386      856.470
05/29/2013  11:27:00     -489.056     -161.131      -38.658      294.291      178.232       95.251    86606.983    31766.517     9072.812       19.702        6.372      514.917      105.736        0.042      342.275       17.568      856.467
05/29/2013  11:28:00     -460.445     -272.036      -13.913      246.722      182.842      103.675    60871.578    33431.078    10748.604       19.561        5.253      534.802      122.135        0.052      342.358       17.708      856.460
05/29/2013  11:29:00     -233.831     -156.792        5.334      191.169      154.545       98.296    36545.676    23884.102     9662.100        7.468        3.505      281.533       99.968        0.126      342.498       17.949      856.510
05/29/2013  11:30:00     -388.074     -172.999      -21.321      223.279      129.333       77.212    49853.555    16727.135     5961.689       12.675        3.627      424.889       88.155        0.043      342.414       17.804      856.560
05/29/2013  11:31:00     -169.331     -142.052       23.269      146.727      124.571       67.232    21528.706    15517.996     4520.157        4.547        2.078      221.025       66.658        0.091      342.644       18.195      856.532
05/29/2013  11:32:00     -257.739     -221.574        4.276      142.530      157.772       83.602    20314.733    24892.156     6989.219        8.386        2.610      339.889       78.579        0.053      342.569       18.069      856.539
05/29/2013  11:33:00     -334.823       18.278       -0.441      186.522      201.883       84.211    34790.391    40756.558     7091.575        9.753        4.132      335.322       90.759        0.073      342.755       18.383      856.569
05/29/2013  11:34:00     -202.688      -97.574       32.431      178.170      161.214       87.657    31744.480    25989.834     7683.735        5.853        3.271      224.951       91.433        0.165      342.708       18.305      856.523
05/29/2013  11:35:00     -502.811     -276.035      -19.225      244.949      198.352       98.506    59999.992    39343.408     9703.524       21.920        5.452      573.597      115.657        0.041      342.366       17.723      856.561
05/29/2013  11:36:00     -327.366     -250.813        6.240      185.168      186.653       93.078    34287.324    34839.381     8663.440       12.394        3.890      412.403      101.051        0.060      342.322       17.648      856.564
05/29/2013  11:37:00     -231.869      -93.911        8.664      179.879      134.492       76.127    32356.595    18087.993     5795.394        5.944        2.812      250.165       85.725        0.117      342.538       18.016      856.584
05/29/2013  11:38:00     -371.106     -278.662        6.706      321.831      262.236      112.906   103575.486    68767.558    12747.742       20.022        9.255      464.082      126.819        0.075      342.577       18.081      856.559
05/29/2013  11:39:00     -583.807     -163.884      -32.087      237.611      201.611       92.068    56459.102    40647.074     8476.579       23.713        5.279      606.374      111.230        0.034      342.264       17.549      856.541
05/29/2013  11:40:00     -328.731     -136.936      -16.470      177.323      134.432       75.500    31443.494    18071.860     5700.323        9.114        2.761      356.112       70.753        0.039      342.395       17.772      856.532
05/29/2013  11:41:00     -359.717     -123.402       21.433      223.030      153.293       82.042    49742.235    23498.650     6730.871       11.251        3.999      380.295      103.889        0.075      342.615       18.147      856.494
05/29/2013  11:42:00     -533.296      -98.445      -19.747      248.548      153.009       98.962    61776.171    23411.803     9793.559       19.472        4.749      542.306      108.557        0.040      342.721       18.326      856.474
05/29/2013  11:43:00     -428.265     -215.598        1.665      221.577      201.883      102.873    49096.424    40756.584    10582.771       16.515        5.022      479.472      111.600        0.054      342.714       18.314      856.518
05/29/2013  11:44:00     -491.420     -252.678      -12.623      254.395      237.970      111.419    64716.744    56629.592    12414.226       21.961        6.688      552.576      125.020        0.051      342.440       17.846      856.511
05/29/2013  11:45:00     -435.539     -321.331       -3.373      236.447      196.540       98.948    55906.995    38627.789     9790.665       19.862        5.216      541.246      119.434        0.049      342.278       17.571      856.500
05/29/2013  11:46:00     -558.044     -388.724      -18.258      208.909      186.071      120.627    43642.768    34622.481    14550.950       27.782        4.641      680.088      126.346        0.035      342.404       17.787      856.528
05/29/2013  11:47:00     -576.464     -368.583      -32.579      248.425      184.804      101.440    61714.959    34152.447    10290.134       28.767        5.308      684.226      109.940        0.026      342.116       17.298      856.549
05/29/2013  11:48:00     -384.308     -123.099       -9.496      208.233      148.731       78.332    43360.809    22120.908     6135.830       11.726        3.581      403.542       80.458        0.040      342.520       17.985      856.534
05/29/2013  11:49:00     -478.200     -241.476       -6.426      226.109      229.800      102.714    51125.468    52807.925    10550.123       20.074        5.724      535.711      118.354        0.049      342.409       17.797      856.565
05/29/2013  11:50:00     -273.114      -68.986        7.649      208.901      179.791       89.905    43639.524    32324.637     8082.828        8.171        4.202      281.692      103.036        0.134      342.743       18.363      856.567
05/29/2013  11:51:00     -365.910      -44.394      -17.272      203.957      189.717       84.646    41598.419    35992.644     7164.967       11.044        4.238      368.593       98.203        0.071      342.470       17.899      856.521
05/29/2013  11:52:00     -346.812      -43.663        2.064      185.720      140.314       81.301    34492.045    19688.128     6609.830        9.148        3.040      349.550       87.249        0.062      342.670       18.240      856.510
05/29/2013  11:53:00     -379.110     -234.663        0.065      291.945      166.130      104.450    85231.783    27599.052    10909.705       16.125        6.187      445.860      128.502        0.083      342.562       18.055      856.527
05/29/2013  11:54:00     -259.810     -162.933        8.933      164.648      122.347       77.369    27109.113    14968.693     5986.001        7.109        2.403      306.673       75.439        0.061      342.573       18.074      856.500
05/29/2013  11:55:00     -613.119     -318.128       -8.845      309.432      193.580       97.679    95748.216    37473.149     9541.246       30.996        7.138      690.739      101.433        0.022      342.406       17.792      856.462
05/29/2013  11:56:00     -443.883     -248.047      -12.873      265.594      213.345      111.231    70540.015    45516.008    12372.238       19.356        6.421      508.488      126.557        0.062      342.433       17.837      856.482
05/29/2013  11:57:00     -360.096     -310.268      -12.596      213.653      190.256       98.879    45647.638    36197.218     9777.051       15.884        4.581      475.327      100.823        0.045      342.461       17.882      856.469
05/29/2013  11:58:00     -407.071     -116.432      -22.164      196.932      171.024       78.974    38782.242    29249.101     6236.952       12.700        3.713      423.394      105.855        0.063      342.441       17.849      856.362
05/29/2013  11:59:00     -395.926     -151.351      -26.107      216.955      142.658       82.219    47069.358    20351.321     6759.918       12.725        3.709      423.869       85.636        0.041      342.883       18.602      856.361
05/29/2013  12:00:00     -554.632     -154.966      -37.066      256.670      160.623      102.617    65879.448    25799.736    10530.327       21.759        5.110      575.874      111.960        0.038      342.907       18.642      856.341
05/29/2013  12:01:00     -377.578     -221.046       -4.572      260.333      240.853       92.869    67773.428    58009.945     8624.696       16.291        6.720      437.523      116.441        0.071      342.712       18.312      856.361
05/29/2013  12:02:00     -211.483     -303.294      -14.502      199.421       97.090       69.008    39768.740     9426.468     4762.059        9.543        2.698      369.747       76.911        0.043      342.308       17.623      856.358
05/29/2013  12:03:00     -151.075     -234.735        9.143      151.814      130.608       63.646    23047.575    17058.364     4050.770        6.107        2.208      279.149       54.540        0.038      342.408       17.794      856.290
05/29/2013  12:04:00     -463.412     -331.820      -33.029      246.250      236.760      102.793    60638.953    56055.356    10566.422       22.658        6.363      569.961      116.561        0.042      342.810       18.477      856.255
05/29/2013  12:05:00     -427.292     -218.997      -20.439      222.472      170.049       89.334    49493.581    28916.714     7980.554       15.866        4.320      480.144       96.764        0.041      343.043       18.874      856.300
05/29/2013  12:06:00     -391.786     -119.431      -16.267      242.675      169.369       94.772    58891.284    28685.689     8981.747       13.228        4.828      409.585       97.702        0.057      343.203       19.146      856.312
05/29/2013  12:07:00     -417.403     -108.581      -28.861      174.686      157.942       87.495    30515.034    24945.596     7655.333       12.497        3.156      431.295       81.347        0.036      342.959       18.731      856.316
05/29/2013  12:08:00     -245.055      -70.864       18.261      211.341      138.735       70.819    44664.891    19247.326     5015.301        6.716        3.446      255.095       94.661        0.138      343.132       19.026      856.311
05/29/2013  12:09:00     -331.537      -44.535       -4.955      180.123      145.184       84.823    32444.382    21078.460     7194.859        8.631        3.036      334.515       79.831        0.057      343.360       19.413      856.318
05/29/2013  12:10:00     -467.719     -146.124       -6.279      308.402      145.139       89.652    95112.100    21065.225     8037.569       18.216        6.211      490.014      104.001        0.045      342.755       18.385      856.344
05/29/2013  12:11:00     -263.446      -51.351        6.750      191.475      147.018       80.271    36662.639    21614.236     6443.451        6.839        3.236      268.404       94.825        0.125      343.081       18.939      856.327
05/29/2013  12:12:00     -579.755     -111.972      -24.005      238.170      172.604       84.179    56725.055    29791.977     7086.088       22.140        4.680      590.469      104.518        0.031      342.733       18.346      856.301
05/29/2013  12:13:00     -389.765     -104.617      -11.140      212.027      170.433       82.292    44955.444    29047.363     6771.953       12.187        4.039      403.561      102.544        0.065      342.923       18.668      856.307
05/29/2013  12:14:00     -344.263       52.271      -30.744      250.445      159.049       88.243    62722.540    25296.567     7786.739       10.898        4.790      348.209       91.761        0.069      343.143       19.044      856.302
05/29/2013  12:15:00     -607.665     -148.167      -47.827      224.710      166.990       86.681    50494.367    27885.802     7513.657       23.968        4.295      625.468       94.961        0.023      342.999       18.799      856.324
05/29/2013  12:16:00     -508.450     -179.246      -28.635      141.330      130.886       73.785    19974.045    17131.231     5444.283       16.700        2.127      539.120       62.695        0.014      342.831       18.513      856.293
05/29/2013  12:17:00     -326.460      -72.695       -0.797      188.864      148.096       83.606    35669.744    21932.387     6990.041        8.822        3.230      334.456       83.504        0.062      343.255       19.234      856.300
05/29/2013  12:18:00     -402.708     -171.172      -15.206      194.333      170.748       89.225    37765.349    29154.871     7961.044       13.328        3.744      437.577      101.458        0.054      342.935       18.690      856.333
05/29/2013  12:19:00     -444.839      -75.855      -27.049      196.122      164.734       85.498    38463.705    27137.220     7309.970       13.863        3.646      451.260       83.069        0.034      342.853       18.550      856.313
05/29/2013  12:20:00     -562.789     -370.564      -14.860      244.334      192.350      103.000    59699.241    36998.601    10608.918       28.077        5.365      673.831      112.974        0.028      342.865       18.570      856.294
05/29/2013  12:21:00     -341.075     -262.645       -5.367      215.704      209.084      143.583    46528.430    43715.929    20616.100       14.808        5.543      430.482      140.302        0.106      343.168       19.085      856.264
05/29/2013  12:22:00     -280.457      -94.947       -5.048      200.726      153.038       96.147    40290.885    23420.546     9244.340        8.031        3.648      296.093       98.117        0.110      343.421       19.518      856.350
05/29/2013  12:23:00     -192.385      -81.293       34.209      228.401      155.901       87.466    52166.803    24305.195     7650.255        6.444        4.206      208.856       99.552        0.227      343.474       19.609      856.365
05/29/2013  12:24:00     -301.286       24.871       -4.272      191.854      126.592       94.012    36807.784    16025.552     8838.204        7.653        3.084      302.311       91.593        0.092      343.406       19.493      856.403
05/29/2013  12:25:00     -555.775     -143.041      -48.833      229.389      176.642       90.541    52619.233    31202.431     8197.589       21.186        4.601      573.887      109.937        0.037      342.920       18.666      856.419
05/29/2013  12:26:00     -227.138       16.376      -21.148      153.992      126.920       58.539    23713.407    16108.735     3426.827        4.777        2.162      227.727       59.411        0.068      343.008       18.814      856.390
05/29/2013  12:27:00     -418.593      -20.361      -38.908      149.999      120.621       67.305    22499.731    14549.519     4529.932       10.936        2.079      419.088       73.540        0.031      342.791       18.443      856.337
05/29/2013  12:28:00     -172.229       75.900      -21.151       79.096      140.264       55.547     6256.103    19674.056     3085.464        3.244        1.451      188.212       46.605        0.061      343.012       18.823      856.313
05/29/2013  12:29:00     -383.563      -80.668      -28.873      129.393      104.897       63.510    16742.641    11003.375     4033.516        9.312        1.589      391.954       55.830        0.020      343.048       18.883      856.284
05/29/2013  12:30:00     -233.487      -74.186      -12.708      178.527       93.705       66.433    31871.886     8780.666     4413.372        5.262        2.253      244.990       91.003        0.138      343.204       19.150      856.293
05/29/2013  12:31:00     -137.647      -59.185       -9.966      108.429       95.912       38.259    11756.880     9199.196     1463.748        2.248        1.121      149.832       35.438        0.056      343.389       19.465      856.318
05/29/2013  12:32:00     -432.576      -33.100      -37.174      124.425      103.432       58.266    15481.526    10698.220     3394.930       10.958        1.479      433.841       57.948        0.018      343.097       18.965      856.308
05/29/2013  12:33:00     -224.082      -91.697        7.222      124.148       92.837       59.579    15412.746     8618.654     3549.599        4.312        1.379      242.118       59.292        0.060      343.246       19.219      856.298
05/29/2013  12:34:00     -476.472     -102.859      -32.218      268.756      178.938       92.073    72230.024    32018.683     8477.362       17.567        5.636      487.448      118.592        0.059      343.276       19.269      856.327
05/29/2013  12:35:00     -562.736     -143.238      -33.116      212.818      136.798       94.905    45291.410    18713.681     9006.939       20.564        3.651      580.680      104.034        0.032      343.182       19.111      856.328
05/29/2013  12:36:00     -415.047     -183.945       -1.683      199.069      147.433       91.585    39628.274    21736.545     8387.831       13.792        3.488      453.982       91.269        0.040      343.007       18.813      856.312
05/29/2013  12:37:00     -574.949      -18.591      -30.116      186.535      176.325       98.165    34795.387    31090.520     9636.356       20.366        3.776      575.249       93.232        0.026      343.344       19.384      856.340
05/29/2013  12:38:00     -482.212     -191.369      -21.052      208.926      162.514       88.131    43649.898    26410.940     7767.114       17.370        3.891      518.797       98.616        0.036      343.099       18.969      856.362
05/29/2013  12:39:00     -345.851     -107.909      -23.526      169.681      180.227       70.745    28791.663    32481.818     5004.809        9.903        3.314      362.294       80.876        0.050      343.390       19.465      856.374
05/29/2013  12:40:00     -508.959       -9.482      -40.970      239.786      169.368       98.313    57497.100    28685.535     9665.533       17.831        4.792      509.047      112.651        0.049      343.161       19.075      856.378
05/29/2013  12:41:00     -530.358       67.155      -62.897      200.156      104.889       63.318    40062.542    11001.601     4009.162       17.240        2.754      534.592       64.829        0.015      342.842       18.530      856.384
05/29/2013  12:42:00     -185.152      -87.938       -7.367      136.139      133.035       63.400    18533.727    17698.191     4019.583        4.115        2.013      204.974       71.063        0.120      343.182       19.110      856.341
05/29/2013  12:43:00     -306.794     -123.291      -15.572      185.274      122.343       61.809    34326.376    14967.871     3820.309        8.133        2.656      330.641       76.987        0.054      343.200       19.142      856.331
05/29/2013  12:44:00     -248.681     -140.050      -13.660      104.267       96.470       51.783    10871.670     9306.419     2681.512        5.225        1.143      285.405       52.649        0.034      342.933       18.686      856.330
05/29/2013  12:45:00     -265.133     -192.848      -15.396      120.820       80.576       54.861    14597.552     6492.541     3009.676        6.591        1.205      327.851       63.401        0.037      342.868       18.577      856.297
05/29/2013  12:46:00     -335.827      -49.492      -20.529      118.097      108.981       55.363    13946.836    11876.898     3065.101        7.226        1.444      339.454       53.982        0.025      342.860       18.562      856.299
05/29/2013  12:47:00     -299.880      -40.335      -14.010      117.669       98.181       65.906    13845.878     9639.416     4343.640        5.979        1.391      302.581       63.600        0.044      342.988       18.779      856.272
05/29/2013  12:48:00     -317.000       32.303      -22.791      184.869      123.509       65.746    34176.660    15254.455     4322.574        7.789        2.688      318.641       74.994        0.055      343.401       19.483      856.205
05/29/2013  12:49:00     -321.267     -120.692       -9.855      183.761      142.000       74.774    33767.976    20163.871     5591.104        8.869        2.976      343.190       94.166        0.075      343.571       19.772      856.220
05/29/2013  12:50:00     -342.776     -197.591      -11.225      230.361      143.077       77.989    53066.264    20470.897     6082.245       11.813        3.981      395.649       92.353        0.054      343.348       19.394      856.237
05/29/2013  12:51:00     -238.609     -246.157       -7.473      149.228      124.990       71.400    22269.138    15622.615     5097.979        8.028        2.149      342.823       63.001        0.034      342.829       18.510      856.227
05/29/2013  12:52:00     -189.263     -115.713       -5.486      154.857       87.803       56.445    23980.576     7709.343     3186.067        4.205        1.744      221.834       78.749        0.126      343.089       18.953      856.204
05/29/2013  12:53:00     -336.319      -24.365       -9.458      141.139      133.414       72.164    19920.230    17799.320     5207.614        7.835        2.146      337.201       69.145        0.042      343.374       19.437      856.217
05/29/2013  12:54:00     -140.599      -19.536        4.234      163.876       77.709       58.299    26855.260     6038.712     3398.793        2.822        1.815      141.950       79.931        0.317      344.012       20.529      856.252
05/29/2013  12:55:00     -113.755      -33.276        7.519      135.251       79.490       62.097    18292.951     6318.629     3856.055        2.128        1.423      118.522       61.722        0.271      343.965       20.447      856.250
05/29/2013  12:56:00     -136.138       72.504      -17.801      153.453      118.616       71.112    23547.768    14069.781     5056.890        3.338        2.134      154.242       74.486        0.233      343.574       19.781      856.235
05/29/2013  12:57:00     -104.949      -56.042       16.916      130.822       83.200       47.882    17114.480     6922.229     2292.641        2.038        1.316      118.975       43.149        0.132      343.859       20.267      856.201
05/29/2013  12:58:00     -165.793      -28.103       18.448      178.657       79.492       59.963    31918.231     6318.947     3595.517        3.522        2.092      168.158       85.381        0.258      343.936       20.399      856.195
05/29/2013  12:59:00     -363.696      -87.062      -21.699      128.815       82.861       58.562    16593.289     6865.977     3429.529        8.360        1.344      373.972       70.811        0.036      343.356       19.405      856.214
05/29/2013  13:00:00     -260.125      -60.222       -7.331      129.805      110.537       62.022    16849.221    12218.413     3846.735        5.212        1.646      267.005       74.570        0.078      343.345       19.388      856.228
05/29/2013  13:01:00     -217.189     -136.131       -3.041      153.422       97.170       56.214    23538.228     9441.950     3160.054        5.092        1.807      256.325       57.942        0.051      343.085       18.945      856.216
05/29/2013  13:02:00     -163.495     -447.778       27.194      188.376      246.051      100.622    35485.494    60540.935    10124.782       16.705        5.308      476.693       71.112        0.022      343.211       19.160      856.095
05/29/2013  13:03:00     -485.796     -294.363       39.547      310.564      253.052      149.535    96449.706    64035.466    22360.755       25.350        9.142      568.020      164.034        0.083      343.603       19.827      856.049
05/29/2013  13:04:00     -452.385      -24.269      -24.164      166.462      133.394       68.314    27709.508    17794.077     4666.840       12.799        2.509      453.036       72.047        0.025      343.541       19.722      856.191
05/29/2013  13:05:00     -322.130     -225.537       -6.220      242.067      175.473       94.489    58596.507    30790.920     8928.226       12.648        4.916      393.237       93.567        0.057      343.476       19.612      856.115
05/29/2013  13:06:00     -676.548     -116.024      -54.965      223.800      192.813       84.256    50086.426    37176.861     7099.104       28.427        4.718      686.424       82.550        0.014      343.567       19.767      856.178
05/29/2013  13:07:00     -315.623     -108.178       -7.852      208.948      139.933       78.199    43659.386    19581.293     6115.011        9.036        3.468      333.647       78.542        0.055      343.508       19.667      856.187
05/29/2013  13:08:00     -163.352      -65.185        6.286      182.829      107.731       73.001    33426.464    11606.057     5329.209        4.066        2.518      175.878       85.279        0.235      343.856       20.259      856.191
05/29/2013  13:09:00     -242.612      -47.532      -31.106      106.184       96.939       58.916    11274.974     9397.104     3471.107        4.311        1.207      247.225       41.105        0.028      343.626       19.868      856.185
05/29/2013  13:10:00     -168.036      -14.021        7.307       97.282       74.571       57.920     9463.795     5560.905     3354.680        2.343        0.919      168.620       49.346        0.086      343.954       20.428      856.203
05/29/2013  13:11:00     -104.283      140.952       -7.106      100.151      142.023       53.488    10030.279    20170.645     2860.933        3.192        1.653      175.335       38.901        0.049      343.782       20.135      856.191
05/29/2013  13:12:00      -73.704      -12.287       12.166      134.757       75.191       46.548    18159.445     5653.659     2166.732        1.585        1.299       74.722       54.420        0.530      343.869       20.284      856.175
05/29/2013  13:13:00     -227.766      -88.853      -11.416      191.343      107.015       75.351    36612.100    11452.121     5677.806        5.681        2.687      244.483       94.961        0.151      344.140       20.747      856.162
05/29/2013  13:14:00     -282.753      -20.536       -2.401      172.805      108.751       83.944    29861.454    11826.682     7046.574        6.455        2.437      283.498       87.840        0.096      343.609       19.837      856.189
05/29/2013  13:15:00     -288.261     -325.712       -1.608      183.885      144.276       79.909    33813.557    20815.448     6385.452       12.509        3.051      434.952       92.060        0.045      343.157       19.070      856.207
05/29/2013  13:16:00     -242.085     -122.805       -1.777      126.260       83.056       54.471    15941.578     6898.234     2967.129        4.974        1.290      271.452       56.319        0.043      343.006       18.810      856.160
05/29/2013  13:17:00     -174.840      -70.686      -10.181       62.413       72.707       39.205     3895.415     5286.286     1537.023        2.319        0.536      188.589       41.835        0.049      343.296       19.307      856.112
05/29/2013  13:18:00     -137.654     -148.596      -10.337       55.874       43.621       32.299     3121.923     1902.828     1043.210        2.360        0.303      202.557       20.743        0.010      343.286       19.288      856.090
05/29/2013  13:19:00     -108.293     -167.531       -5.697      115.796       85.678       40.682    13408.602     7340.683     1655.010        3.111        1.120      199.485       45.854        0.053      343.639       19.892      856.078
05/29/2013  13:20:00     -284.879     -263.644      -21.210      167.059      159.208       73.039    27908.582    25347.077     5334.680       10.484        2.930      388.154       79.972        0.042      343.526       19.695      856.053
05/29/2013  13:21:00     -353.363     -212.689        9.144      244.700      190.020      104.070    59878.182    36107.668    10830.462       13.848        5.341      412.434      122.007        0.088      343.797       20.161      855.933
05/29/2013  13:22:00     -389.136      241.855      -39.965      255.516      189.058       82.768    65288.660    35742.847     6850.505       15.968        5.394      458.171       82.763        0.033      343.623       19.864      856.132
05/29/2013  13:23:00     -227.577      219.463      -29.149      150.990      123.061       77.236    22797.851    15144.085     5965.369        7.235        2.195      316.157       82.201        0.068      343.529       19.703      856.138
05/29/2013  13:24:00     -178.743       42.908       -5.066      118.624      143.687       55.624    14071.743    20645.815     3093.997        3.581        1.891      183.821       48.453        0.069      343.919       20.368      856.130
05/29/2013  13:25:00     -147.004      -76.189       23.491      209.635      115.963       84.763    43946.733    13447.483     7184.825        4.626        3.229      165.575       89.358        0.291      344.033       20.564      856.119
05/29/2013  13:26:00     -270.350      -90.268        1.412      203.263      135.667       64.307    41315.701    18405.510     4135.449        7.254        3.193      285.022       75.181        0.070      343.951       20.422      856.163
05/29/2013  13:27:00     -441.635     -179.600       -9.723      166.252      117.817       83.694    27639.607    13880.960     7004.678       13.795        2.426      476.757       83.938        0.031      343.748       20.075      856.176
05/29/2013  13:28:00     -279.725      -77.757        0.522      127.452      115.666       67.839    16244.118    13378.564     4602.121        5.925        1.711      290.331       60.631        0.044      343.823       20.203      856.188
05/29/2013  13:29:00     -188.516      -16.562       16.321      137.028      120.016       64.333    18776.662    14403.925     4138.793        3.669        1.866      189.242       71.007        0.141      344.155       20.771      856.193
05/29/2013  13:30:00     -330.712       35.404      -28.805      116.398       94.690       57.877    13548.466     8966.268     3349.788        6.865        1.293      332.602       61.216        0.034      343.657       19.919      856.190
05/29/2013  13:31:00     -177.123       14.161       -8.601      141.930       99.853       55.449    20144.083     9970.609     3074.620        3.241        1.659      177.688       67.916        0.146      344.154       20.770      856.197
05/29/2013  13:32:00     -336.898      -68.967      -25.724      120.256       76.784       56.704    14461.513     5895.763     3215.385        7.124        1.179      343.885       57.737        0.028      343.263       19.247      856.197
05/29/2013  13:33:00     -275.034       56.138      -35.847       78.861      118.708       63.512     6219.032    14091.667     4033.763        5.221        1.217      280.704       44.930        0.026      343.370       19.429      856.206
05/29/2013  13:34:00     -152.666       23.776      -24.183      116.445       60.769       52.902    13559.420     3692.839     2798.592        2.225        1.003      154.506       60.166        0.152      343.300       19.313      856.198
05/29/2013  13:35:00       53.757      222.042       -6.323       79.982      154.997       78.966     6397.081    24023.935     6235.687        4.444        1.833      228.457       76.810        0.113      343.306       19.322      856.187
05/29/2013  13:36:00     -153.352      242.366      -54.231      157.270      112.444       59.075    24733.739    12643.571     3489.915        6.303        2.043      286.807       61.362        0.046      343.368       19.427      856.152
05/29/2013  13:37:00     -207.260       83.138      -16.470      143.235      181.439       67.773    20516.273    32920.230     4593.139        5.408        2.901      223.313       45.971        0.042      343.700       19.993      856.156
05/29/2013  13:38:00     -255.182      107.706      -29.309      114.689      118.192       85.615    13153.512    13969.257     7329.851        5.601        1.723      276.981       64.489        0.054      343.441       19.551      856.163
05/29/2013  13:39:00     -317.676      -37.123      -50.613      135.351      135.840       82.145    18319.875    18452.581     6747.755        7.418        2.176      319.837       53.085        0.028      343.542       19.722      856.103
05/29/2013  13:40:00     -410.748       71.204      -52.045      157.470      245.600       84.314    24796.662    60319.204     7108.837       13.434        4.611      416.874       97.368        0.055      343.465       19.593      856.068
05/29/2013  13:41:00     -378.048     -147.038      -28.451      201.818      153.689       77.942    40730.370    23620.244     6074.918       11.788        3.521      405.636       70.394        0.030      343.495       19.643      856.055
05/29/2013  13:42:00     -367.411      189.151      -50.591      222.389      232.088       92.015    49456.968    53865.066     8466.738       14.254        5.589      413.242      116.794        0.080      343.437       19.545      856.091
05/29/2013  13:43:00     -185.080      316.283      -38.008       78.120       83.584       56.997     6102.806     6986.296     3248.626        7.603        0.817      366.455       51.073        0.019      343.331       19.364      856.103
05/29/2013  13:44:00     -142.643       63.616      -14.318       94.917      123.092       57.611     9009.202    15151.565     3318.984        2.603        1.374      156.186       43.581        0.078      343.624       19.865      856.060
05/29/2013  13:45:00     -207.260      -50.412      -24.095      119.919       87.547       60.076    14380.596     7664.444     3609.180        3.586        1.283      213.303       49.916        0.055      343.519       19.683      856.020
05/29/2013  13:46:00     -155.597       23.529       -5.587       94.904       76.453       53.607     9006.759     5845.016     2873.677        2.126        0.886      157.366       49.864        0.100      343.881       20.303      856.012
05/29/2013  13:47:00     -168.152       18.997      -25.925      144.378      153.004       80.554    20844.921    23410.351     6488.971        4.002        2.537      169.222       67.705        0.160      343.762       20.101      856.038
05/29/2013  13:48:00     -156.072      160.430      -22.817      153.560      148.369       68.098    23580.600    22013.441     4637.320        5.042        2.512      223.821       65.179        0.085      343.490       19.636      856.037
05/29/2013  13:49:00     -299.164      312.807      -42.889      185.090      204.688       83.363    34258.340    41897.051     6949.392       13.613        4.155      432.836       91.740        0.045      343.706       20.005      855.956
05/29/2013  13:50:00     -493.108      -52.736      -44.599      213.093      247.210       96.255    45408.529    61112.774     9265.102       18.184        5.789      495.920       78.864        0.025      343.818       20.194      856.015
05/29/2013  13:51:00     -352.541       72.953      -42.283      168.844      181.360       94.588    28508.196    32891.593     8946.862       10.086        3.517      360.010       76.908        0.046      343.637       19.885      856.036
05/29/2013  13:52:00     -257.191     -114.755      -10.695      163.553      104.976       82.971    26749.623    11019.871     6884.135        6.203        2.233      281.631       86.944        0.095      344.058       20.605      856.002
05/29/2013  13:53:00     -370.425     -117.727       -4.883      152.600      131.512       70.396    23286.670    17295.518     4955.621        9.831        2.277      388.682       66.036        0.029      343.947       20.415      856.021
05/29/2013  13:54:00     -219.642      -78.131      -12.888      142.685      139.252       69.547    20358.938    19391.179     4836.753        4.954        2.229      233.124       78.638        0.114      343.797       20.160      856.050
05/29/2013  13:55:00     -136.813       93.022       14.235      146.923       96.907       63.653    21586.462     9390.959     4051.746        3.130        1.751      165.441       72.757        0.193      343.918       20.368      856.033
05/29/2013  13:56:00     -354.923       25.988      -36.704      131.520      114.867       56.769    17297.566    13194.516     3222.696        8.085        1.686      355.873       53.213        0.022      343.678       19.956      856.058
05/29/2013  13:57:00     -244.320      -80.119       -6.180      151.735      166.628       70.081    23023.652    27764.817     4911.349        6.092        2.785      257.122       63.733        0.061      343.972       20.457      856.029
05/29/2013  13:58:00     -103.547        9.262       -0.847      124.927      119.444       64.556    15606.787    14266.820     4167.506        2.242        1.702      103.960       48.745        0.220      344.042       20.578      856.025
05/29/2013  13:59:00     -169.471      264.064      -54.861      107.770      169.377       87.634    11614.316    28688.679     7679.647        7.471        2.399      313.768       66.484        0.045      343.846       20.243      856.030
05/29/2013  14:00:00     -253.673      108.501      -32.653      156.246      153.054       71.993    24412.917    23425.513     5183.057        6.510        2.651      275.903       76.284        0.076      344.122       20.715      856.019
05/29/2013  14:01:00     -352.833       71.204      -86.699      191.696      187.293       69.964    36747.485    35078.677     4895.025       10.689        3.836      359.946       55.539        0.024      343.812       20.185      856.059
05/29/2013  14:02:00     -358.997       79.445      -38.483      228.834      158.650       89.919    52365.111    25169.955     8085.516       11.113        4.281      367.682       75.763        0.042      343.610       19.840      856.040
05/29/2013  14:03:00     -304.556       84.446      -33.108      182.507      146.351       94.538    33308.797    21418.677     8937.381        8.231        3.183      316.047       91.842        0.084      343.604       19.830      856.016
05/29/2013  14:04:00     -185.706      115.998      -57.023      164.975      190.831       79.757    27216.598    36416.661     6361.151        6.058        3.500      218.957       44.916        0.042      343.827       20.211      855.981
05/29/2013  14:05:00     -290.627      422.189      -80.653      145.668      165.444       90.697    21219.288    27371.690     8226.003       16.301        2.841      512.550       90.271        0.031      343.454       19.572      855.997
05/29/2013  14:06:00     -126.328      169.183      -10.737      108.393      208.477       80.277    11749.028    43462.559     6444.328        5.317        3.083      211.144       64.039        0.092      343.941       20.405      855.927
05/29/2013  14:07:00     -145.848      174.244       -6.971      146.524      164.202       80.555    21469.157    26962.316     6489.069        5.329        2.746      227.229       70.479        0.096      344.086       20.652      855.950
05/29/2013  14:08:00     -174.660      288.925      -34.445      138.127      184.011       82.232    19078.966    33860.046     6762.134        8.743        2.985      337.615       96.290        0.081      343.914       20.358      855.986
05/29/2013  14:09:00     -247.489      308.991      -57.231      164.922      226.645       79.459    27199.369    51368.009     6313.673       12.243        4.244      395.887       87.732        0.049      343.942       20.406      855.942
05/29/2013  14:10:00     -140.907      254.859      -20.059      112.423      182.215       78.343    12638.898    33202.313     6137.553        6.859        2.599      291.218       86.450        0.088      343.861       20.270      855.939
05/29/2013  14:11:00     -250.425      227.851      -43.954      160.101      145.974       80.226    25632.421    21308.505     6436.160        8.496        2.669      338.569       89.752        0.070      343.867       20.280      855.943
05/29/2013  14:12:00     -219.083      233.293      -25.999      154.270      132.782       75.147    23799.111    17630.970     5647.035        7.508        2.354      320.036       79.716        0.062      343.996       20.499      855.950
05/29/2013  14:13:00     -247.735       -9.084      -18.334      159.814      123.409       61.083    25540.417    15229.776     3731.171        5.314        2.225      247.901       72.672        0.086      344.148       20.760      855.986
05/29/2013  14:14:00     -405.428       36.212      -49.405      139.273      155.231       83.490    19397.070    24096.601     6970.552       10.929        2.523      407.042       80.484        0.039      343.755       20.087      856.020
05/29/2013  14:15:00     -209.551      163.340      -27.403      138.829      118.793       70.859    19273.623    14111.714     5021.066        5.487        1.920      265.691       72.705        0.075      343.710       20.010      855.993
05/29/2013  14:16:00     -137.951       30.882       -5.038      127.401      137.570       66.612    16230.931    18925.537     4437.094        2.979        1.980      141.366       56.958        0.162      344.197       20.843      855.978
05/29/2013  14:17:00     -297.333      -27.422      -24.652      137.304      104.827       60.780    18852.252    10988.618     3694.159        6.165        1.677      298.594       67.499        0.051      344.217       20.876      855.993
05/29/2013  14:18:00     -183.813       78.420      -47.379       93.110       87.350       50.730     8669.453     7629.956     2573.485        3.052        0.944      199.842       37.649        0.035      344.120       20.710      855.995
05/29/2013  14:19:00     -214.003       18.109      -25.009      173.340      141.319       62.323    30046.793    19970.998     3884.152        5.032        2.695      214.768       60.851        0.080      344.007       20.517      855.966
05/29/2013  14:20:00     -155.677      186.122      -28.415      133.491      175.896       68.841    17819.947    30939.381     4739.143        5.658        2.675      242.645       65.238        0.072      344.045       20.583      855.965
05/29/2013  14:21:00     -232.766       83.324      -21.841      121.133      182.082       71.426    14673.224    33153.962     5101.701        5.726        2.646      247.230       70.229        0.081      344.280       20.983      855.978
05/29/2013  14:22:00     -385.990        0.445      -21.750      248.409      156.541      103.739    61707.089    24504.935    10761.798       12.320        4.849      385.990      127.524        0.109      344.268       20.964      855.987
05/29/2013  14:23:00     -272.898       36.710      -13.694      263.868      170.053       86.140    69626.352    28917.997     7420.138        9.097        5.298      275.356      106.922        0.151      344.131       20.730      855.991
05/29/2013  14:24:00     -179.670      -34.151      -16.288      117.910      131.038       85.704    13902.805    17170.985     7345.203        3.606        1.921      182.887       56.356        0.095      344.324       21.061      855.979
05/29/2013  14:25:00     -228.547       36.312      -23.060      120.777      183.285       93.014    14587.063    33593.442     8651.578        5.545        2.842      231.414       46.759        0.041      344.002       20.510      856.002
05/29/2013  14:26:00     -231.117       64.760      -49.286      149.662       99.792       78.025    22398.592     9958.352     6087.888        4.924        1.922      240.019       84.660        0.124      343.927       20.380      856.004
05/29/2013  14:27:00     -294.439      222.161      -62.540      151.070      250.241       82.895    22822.005    62620.716     6871.636       11.612        4.616      368.849       83.627        0.051      343.829       20.213      855.989
05/29/2013  14:28:00     -232.078      269.810      -27.286      153.941      167.495       94.488    23697.972    28054.426     8927.994        9.403        3.034      355.890       85.607        0.058      343.795       20.155      855.967
05/29/2013  14:29:00     -158.667      330.010      -37.229      151.149      178.834       81.023    22846.080    31981.617     6564.648        9.842        3.070      366.172       74.123        0.041      343.948       20.416      855.929
05/29/2013  14:30:00     -165.246      374.280      -53.489      112.373      179.442       69.648    12627.590    32199.358     4850.903       10.996        2.484      409.135       44.791        0.012      344.025       20.548      855.927
05/29/2013  14:31:00     -160.422      373.679      -24.205      114.647      189.778       75.995    13143.860    36015.801     5775.171       11.044        2.747      406.658       69.438        0.029      343.928       20.383      855.959
05/29/2013  14:32:00     -148.478      369.116      -36.159      127.448      193.918       74.859    16242.871    37604.043     5603.886       10.952        2.973      397.860       73.070        0.034      343.929       20.385      855.943
05/29/2013  14:33:00     -242.049       74.104      -14.604      171.380      149.454       94.644    29370.987    22336.590     8957.432        6.247        3.033      253.138       92.784        0.134      344.081       20.644      855.928
05/29/2013  14:34:00     -206.195      363.748      -65.893      127.861      201.034       74.931    16348.429    40414.821     5614.630       12.076        3.119      418.125       80.222        0.037      343.655       19.917      855.962
05/29/2013  14:35:00     -192.686      225.901      -36.200      142.389      167.068       67.903    20274.551    27911.659     4610.811        7.112        2.640      296.916       73.972        0.062      344.116       20.704      855.936
05/29/2013  14:36:00     -286.677      252.448      -44.565      158.663      147.585       90.707    25174.011    21781.387     8227.807       10.153        2.759      381.986       94.735        0.062      343.961       20.439      855.981
05/29/2013  14:37:00     -192.601      236.169      -35.754       95.431      162.232       62.881     9106.990    26319.225     3954.008        6.676        1.969      304.748       65.125        0.046      344.120       20.711      856.001
05/29/2013  14:38:00     -234.407       83.373      -20.189      201.360      159.385       92.543    40545.894    25403.477     8564.129        6.840        3.726      248.793      104.576        0.177      344.119       20.709      856.009
05/29/2013  14:39:00     -134.278      303.247      -33.038      120.112      209.768       84.376    14426.962    44002.775     7119.328        8.830        3.277      331.646       81.616        0.061      343.827       20.211      856.055
05/29/2013  14:40:00     -238.654      164.933      -45.045      118.619      208.343       76.806    14070.356    43406.977     5899.152        7.477        3.169      290.101       53.822        0.034      343.960       20.439      856.021
05/29/2013  14:41:00     -122.285       57.093       -2.626      131.597      120.234       75.262    17317.715    14456.331     5664.339        2.782        1.872      134.957       75.879        0.316      344.352       21.108      856.063
05/29/2013  14:42:00     -241.514      178.378      -53.647       92.278      147.280       56.603     8515.224    21691.527     3203.863        6.321        1.671      300.246       58.301        0.038      343.690       19.977      856.083
05/29/2013  14:43:00     -107.818      163.689      -21.571      132.958      243.343       67.875    17677.703    59215.600     4607.049        6.018        4.075      196.007       89.919        0.210      344.013       20.528      856.054
05/29/2013  14:44:00     -192.910      298.852      -44.995      150.201      150.497       80.366    22560.486    22649.363     6458.682        9.010        2.583      355.706       71.045        0.040      344.136       20.736      856.059
05/29/2013  14:45:00     -272.994      330.062      -64.570      140.238      135.404       80.758    19666.700    18334.314     6521.830       11.607        2.226      428.331       83.847        0.038      343.937       20.397      856.047
05/29/2013  14:46:00     -216.698      249.798      -40.236      106.852      162.119       64.254    11417.398    26282.459     4128.521        7.640        2.091      330.691       57.562        0.030      344.104       20.683      856.074
05/29/2013  14:47:00      -96.109       -7.985       15.082      123.541       90.062       55.355    15262.395     8111.158     3064.148        1.798        1.322       96.440       57.124        0.351      344.884       22.017      856.057
05/29/2013  14:48:00     -267.568      -93.218      -23.571      110.024       90.274       63.542    12105.365     8149.437     4037.628        5.256        1.215      283.341       58.042        0.042      344.622       21.568      856.061
05/29/2013  14:49:00     -354.539      -20.012      -40.437      172.664      163.146       70.861    29812.699    26616.699     5021.349        9.458        3.073      355.103       71.219        0.040      344.247       20.926      856.096
05/29/2013  14:50:00     -201.835       39.546      -29.453      201.532      131.766       62.239    40615.156    17362.356     3873.714        5.250        3.093      205.673       76.650        0.139      344.161       20.783      856.109
05/29/2013  14:51:00     -402.476     -143.783       -7.483      173.401      160.206       74.201    30067.963    25665.862     5505.810       12.197        3.062      427.388       62.138        0.021      343.987       20.482      856.059
05/29/2013  14:52:00     -395.541      -96.182      -31.727      146.414      105.032       73.456    21437.016    11031.708     5395.831       10.228        1.893      407.067       81.267        0.040      344.049       20.588      856.107
05/29/2013  14:53:00     -242.981      -71.533      -11.774      153.327      102.308       62.970    23509.099    10466.864     3965.173        5.111        1.897      253.292       69.681        0.076      344.204       20.854      856.139
05/29/2013  14:54:00     -391.576     -104.627      -19.759      192.044      209.779       69.349    36880.750    44007.179     4809.245       12.517        4.285      405.313       68.908        0.029      344.046       20.584      856.111
05/29/2013  14:55:00      -94.823      -75.994       19.987      127.449       96.433       62.052    16243.344     9299.231     3850.399        2.227        1.470      121.518       77.447        0.406      344.357       21.117      856.104
05/29/2013  14:56:00     -260.305     -155.073       -4.218      235.806      178.575       87.271    55604.462    31889.206     7616.217        9.345        4.755      302.995      121.724        0.161      344.025       20.549      856.096
05/29/2013  14:57:00     -318.437     -307.449       -8.148      216.501      193.136       99.872    46872.828    37301.599     9974.377       14.506        4.707      442.636      104.917        0.056      343.863       20.272      856.086
05/29/2013  14:58:00     -218.298     -216.898        2.094      185.113      140.087       74.947    34266.990    19624.314     5617.068        7.710        2.975      307.732       78.023        0.064      343.989       20.486      856.050
05/29/2013  14:59:00     -288.447     -345.326       -7.437      166.254      172.162       86.706    27640.379    29639.629     7517.853       13.364        3.240      449.947       94.603        0.044      343.879       20.298      856.005
05/29/2013  15:00:00     -206.624     -247.815       10.353      156.382      130.934       76.845    24455.430    17143.769     5905.132        7.585        2.375      322.654       69.404        0.046      344.038       20.568      855.969
05/29/2013  15:01:00     -315.295      -98.064      -15.863      169.263      146.718       64.288    28649.910    21526.185     4132.938        8.179        2.715      330.193       73.646        0.050      344.184       20.820      856.053
05/29/2013  15:02:00     -309.266       21.677      -31.955      162.540      113.621       63.798    26419.340    12909.732     4070.195        7.026        2.170      310.024       73.307        0.056      344.116       20.704      856.060
05/29/2013  15:03:00     -128.838       46.182      -25.386       87.439      103.130       49.145     7645.603    10635.796     2415.208        2.003        1.035      136.865       41.577        0.092      344.418       21.220      856.052
05/29/2013  15:04:00     -286.900       88.830      -43.714      134.731      187.827       73.043    18152.550    35279.071     5335.308        7.543        2.938      300.337       56.740        0.036      344.272       20.969      856.033
05/29/2013  15:05:00     -491.270       29.554      -46.948      156.018      133.790       67.110    24341.487    17899.697     4503.790       14.558        2.337      492.158       73.182        0.022      344.204       20.854      856.072
05/29/2013  15:06:00     -495.159       76.295      -49.055      160.862      106.037       51.594    25876.600    11243.858     2661.927       14.659        1.989      501.003       45.104        0.008      344.245       20.924      856.150
05/29/2013  15:07:00     -197.186      -85.900       -5.149      119.015       93.248       54.111    14164.633     8695.215     2928.017        3.603        1.289      215.084       53.116        0.061      344.563       21.468      856.181
05/29/2013  15:08:00     -222.384      -49.663      -16.760      134.252      103.220       49.277    18023.582    10654.390     2428.238        4.165        1.555      227.862       58.448        0.066      344.180       20.814      856.182
05/29/2013  15:09:00     -236.197     -122.098       -7.694      137.051      135.529       65.017    18783.067    18368.092     4227.192        5.606        2.069      265.889       59.686        0.050      344.048       20.588      856.150
05/29/2013  15:10:00     -320.176     -340.065       -9.916      207.764      128.362       85.576    43166.047    16476.929     7323.268       14.260        3.348      467.073       84.196        0.032      344.170       20.795      856.068
05/29/2013  15:11:00     -240.024      -10.114      -15.966      221.297      119.428       61.552    48972.141    14263.066     3788.672        6.249        3.351      240.237       83.096        0.120      344.593       21.520      856.092
05/29/2013  15:12:00     -163.749       74.083      -14.340      136.458      151.837       68.706    18620.853    23054.364     4720.480        3.944        2.320      179.727       79.659        0.196      344.501       21.362      856.102
05/29/2013  15:13:00     -232.409       86.095      -34.364       96.052       95.612       64.618     9226.046     9141.583     4175.522        4.257        1.127      247.843       54.230        0.048      344.494       21.348      856.092
05/29/2013  15:14:00     -281.966      -72.452      -14.616      196.750      115.062       69.177    38710.502    13239.370     4785.492        7.084        2.837      291.126       91.247        0.098      344.549       21.443      856.115
05/29/2013  15:15:00     -361.492      -38.609      -31.334      180.735      182.747       72.768    32665.234    33396.330     5295.128       10.224        3.568      363.548       61.076        0.028      344.484       21.332      856.118
05/29/2013  15:16:00     -266.304       57.581      -25.001      139.171      242.735       73.999    19368.444    58920.300     5475.839        7.930        4.188      272.458       76.721        0.079      344.415       21.213      856.134
05/29/2013  15:17:00     -241.527       82.116      -26.942      166.083      175.580       83.103    27583.691    30828.337     6906.093        6.555        3.266      255.105       95.268        0.139      344.432       21.243      856.173
05/29/2013  15:18:00     -233.991      -63.894      -22.378      131.838      119.965       55.381    17381.265    14391.614     3067.077        4.708        1.742      242.557       58.271        0.058      344.425       21.232      856.191
05/29/2013  15:19:00     -194.603     -116.584       -5.126      146.107      106.966       80.629    21347.304    11441.785     6501.096        4.538        1.965      226.852       73.478        0.105      344.419       21.221      856.224
05/29/2013  15:20:00     -192.378      -67.527       -0.925      168.800       98.935       50.541    28493.332     9788.040     2554.352        4.120        2.042      203.885       66.266        0.106      343.910       20.353      856.223
05/29/2013  15:21:00     -133.488       49.797       19.854      132.970       83.107       61.584    17680.930     6906.691     3792.634        2.453        1.419      142.474       79.669        0.313      344.273       20.972      856.194
05/29/2013  15:22:00     -175.030      116.637      -22.211       99.040      109.153       42.329     9808.996    11914.287     1791.749        3.412        1.176      210.332       41.556        0.039      344.330       21.071      856.193
05/29/2013  15:23:00     -109.013      100.805      -14.521       64.786       83.356       43.795     4197.251     6948.204     1917.986        1.766        0.653      148.477       38.650        0.068      343.935       20.397      856.168
05/29/2013  15:24:00     -108.165      135.140      -16.213       80.382      105.320       49.569     6461.269    11092.211     2457.057        2.511        1.001      173.097       59.671        0.119      344.107       20.690      856.166
05/29/2013  15:25:00     -172.106      -15.842        8.770      140.403       86.951       46.889    19713.128     7560.454     2198.539        2.971        1.474      172.834       50.198        0.084      344.679       21.668      856.169
05/29/2013  15:26:00     -265.287      -39.527        3.024      150.340      151.393       74.985    22602.145    22919.960     5622.709        6.154        2.557      268.215       63.982        0.057      344.601       21.532      856.180
05/29/2013  15:27:00     -364.096       85.423      -16.656      248.721      215.794      102.006    61862.115    46566.897    10405.244       12.947        5.942      373.982      121.508        0.106      344.219       20.881      856.162
05/29/2013  15:28:00     -497.399     -180.993      -22.453      242.291      150.477       95.845    58704.751    22643.459     9186.256       18.559        4.527      529.306      113.478        0.046      344.261       20.951      856.161
05/29/2013  15:29:00     -533.904     -113.720      -39.988      155.227      136.657       81.747    24095.527    18675.010     6682.576       17.451        2.473      545.881       68.375        0.016      344.273       20.972      856.196
05/29/2013  15:30:00     -548.740      -54.192      -65.189      209.434      145.070       77.506    43862.750    21045.210     6007.211       18.960        3.546      551.410       88.724        0.026      344.013       20.529      856.197
05/29/2013  15:31:00     -458.629     -140.135      -11.769      221.729      139.579       77.705    49163.968    19482.277     6038.046       15.239        3.734      479.560       90.794        0.036      344.056       20.601      856.177
05/29/2013  15:32:00     -400.001     -117.212      -37.434      273.452      145.579       62.742    74776.059    21193.333     3936.509       13.751        4.995      416.820       89.004        0.046      344.037       20.568      856.170
05/29/2013  15:33:00     -329.025      -44.664      -18.415      122.466      128.600       65.216    14997.825    16537.987     4253.074        7.318        1.789      332.043       51.353        0.024      344.478       21.322      856.175
05/29/2013  15:34:00     -341.754      -27.771      -13.324      235.057      106.171       88.755    55251.931    11272.318     7877.497        9.606        3.720      342.880      109.439        0.102      344.390       21.171      856.175
05/29/2013  15:35:00     -425.556     -205.788      -11.441      264.539      195.726      102.223    69980.859    38308.489    10449.468       17.114        5.937      472.702      113.903        0.058      344.438       21.255      856.183
05/29/2013  15:36:00     -253.857     -175.768        2.199      237.722      187.387      100.912    56511.735    35113.975    10183.189        9.856        5.090      308.768      121.698        0.155      344.403       21.193      856.196
05/29/2013  15:37:00     -289.731     -211.480       12.970      207.887      193.070       95.976    43217.072    37276.195     9211.311       10.926        4.485      358.702      103.724        0.084      344.238       20.911      856.202
05/29/2013  15:38:00     -327.243     -185.993       12.132      219.776      170.715       88.040    48301.466    29143.507     7751.004       11.350        4.260      376.406      110.397        0.086      344.091       20.659      856.195
05/29/2013  15:39:00     -307.822     -195.091       17.872      185.877      180.949      106.604    34550.401    32742.528    11364.401       10.588        3.933      364.438      105.375        0.084      344.238       20.912      856.203
05/29/2013  15:40:00     -243.585     -210.720       19.877      182.368      163.297      104.113    33258.140    26666.041    10839.490        8.744        3.538      322.082       95.846        0.089      344.136       20.737      856.205
05/29/2013  15:41:00     -482.481     -124.496      -17.398      192.636      154.753       70.517    37108.534    23948.461     4972.708       15.730        3.301      498.284       55.801        0.013      344.046       20.584      856.241
05/29/2013  15:42:00     -270.534       26.509       -6.782      156.961      121.293       73.433    24636.719    14711.884     5392.454        5.933        2.237      271.829       77.599        0.081      344.085       20.652      856.253
05/29/2013  15:43:00     -283.823     -114.249      -11.018      252.440      124.287       65.931    63726.184    15447.267     4346.921        8.861        4.176      305.955       89.667        0.086      344.098       20.672      856.204
05/29/2013  15:44:00     -263.913     -190.686       19.465      181.823      153.767       85.355    33059.556    23644.361     7285.465        8.518        3.199      325.594       92.881        0.081      344.021       20.542      856.161
05/29/2013  15:45:00     -448.439     -132.595      -16.819      185.039      208.534       80.074    34239.520    43486.353     6411.837       15.154        4.207      467.631       85.296        0.033      344.148       20.757      856.136
05/29/2013  15:46:00     -173.473       39.504       14.748      229.855      161.303       92.916    52833.147    26018.521     8633.409        5.966        4.374      177.914      109.942        0.382      344.653       21.622      856.173
05/29/2013  15:47:00     -430.397      -91.376      -16.430      189.187      123.684       57.496    35791.633    15297.752     3305.771       12.412        2.720      439.990       53.860        0.015      344.197       20.842      856.202
05/29/2013  15:48:00     -515.354     -175.628       -4.126      244.090      221.077      108.181    59579.729    48875.176    11703.233       20.828        6.008      544.458      116.554        0.046      344.284       20.989      856.205
05/29/2013  15:49:00     -286.384     -150.772        6.419      243.820      131.965       89.269    59448.001    17414.790     7968.947        9.480        4.242      323.648      112.601        0.121      344.248       20.930      856.219
05/29/2013  15:50:00     -581.331     -126.664      -12.703      238.323      206.254      117.219    56797.899    42540.608    13740.310       23.360        5.654      594.970      118.278        0.040      344.022       20.543      856.194
05/29/2013  15:51:00     -505.241     -285.493      -15.917      241.497      166.941      107.910    58321.022    27869.362    11644.471       21.741        4.892      580.323      110.514        0.036      343.879       20.298      856.231
05/29/2013  15:52:00     -449.838     -182.094       -4.580      249.409      204.579      100.627    62204.610    41852.378    10125.755       17.484        5.709      485.296      132.452        0.074      343.764       20.104      856.232
05/29/2013  15:53:00     -306.948     -100.774      -18.053      129.755      134.862       55.330    16836.467    18187.630     3061.364        7.139        1.904      323.068       42.144        0.017      343.869       20.282      856.206
05/29/2013  15:54:00     -386.543     -202.534      -16.527      176.276      143.830       78.457    31073.126    20686.998     6155.442       12.430        2.896      436.389       85.876        0.039      344.041       20.575      856.228
05/29/2013  15:55:00     -367.026     -264.210      -13.700      209.342      211.986      118.487    43824.082    44938.007    14039.279       15.373        5.140      452.234      111.144        0.060      343.961       20.437      856.206
05/29/2013  15:56:00     -494.606     -185.375       -6.971      184.243      163.488       87.788    33945.469    26728.218     7706.816       17.370        3.419      528.204       98.932        0.035      343.797       20.159      856.171
05/29/2013  15:57:00     -365.142     -146.917       -6.990      247.310      152.039       78.464    61162.102    23115.996     6156.655       12.268        4.522      393.591      101.423        0.066      343.886       20.311      856.185
05/29/2013  15:58:00     -274.739     -210.728        5.277      201.586      172.543       91.948    40636.794    29771.170     8454.367        9.938        3.943      346.248      108.998        0.099      343.983       20.477      856.184
05/29/2013  15:59:00     -403.805     -189.902      -15.783      169.532      138.438       69.296    28741.038    19164.963     4801.993       12.603        2.635      446.229       70.385        0.025      344.069       20.624      856.184
05/29/2013  16:00:00     -398.049     -167.366      -16.574      155.955      110.614       70.210    24322.101    12235.428     4929.490       11.410        2.074      431.803       69.490        0.026      344.084       20.648      856.179
05/29/2013  16:01:00     -255.228      -92.318        1.582      220.526      150.193       84.538    48631.579    22558.025     7146.619        7.599        3.917      271.411       97.359        0.129      344.148       20.758      856.174
05/29/2013  16:02:00     -311.551     -101.322        8.265      191.851      187.924       87.431    36806.764    35315.340     7644.115        9.357        3.988      327.613      102.343        0.098      344.398       21.184      856.179
05/29/2013  16:03:00     -312.954      -28.934      -21.099      184.957      126.331       72.018    34209.220    15959.404     5186.526        7.728        2.768      314.289       65.207        0.043      344.486       21.335      856.181
05/29/2013  16:04:00     -413.513     -124.891      -17.911      248.408      192.406      107.736    61706.741    37020.183    11607.024       14.860        5.517      431.962      123.050        0.081      344.282       20.987      856.164
05/29/2013  16:05:00     -383.260     -189.786      -17.244      189.817      160.415       76.856    36030.608    25733.053     5906.897       12.543        3.384      427.677       71.990        0.028      343.947       20.415      856.159
05/29/2013  16:06:00     -481.104     -165.970      -21.892      255.500      184.862       97.969    65280.443    34174.141     9597.921       18.425        5.453      508.928      110.478        0.047      344.066       20.619      856.179
05/29/2013  16:07:00     -275.282     -113.670       12.980      208.100      182.542       90.592    43305.471    33321.492     8206.960        8.684        4.242      297.827       99.556        0.112      344.347       21.098      856.183
05/29/2013  16:08:00     -578.903     -101.045      -19.139      183.666      146.586       85.561    33733.205    21487.423     7320.662       20.411        3.127      587.656       89.664        0.023      343.964       20.444      856.174
05/29/2013  16:09:00     -406.266      -41.698       -4.540      154.183      121.159       76.335    23772.372    14679.514     5827.042       10.554        2.214      408.400       79.729        0.038      343.840       20.232      856.168
05/29/2013  16:10:00     -522.077      -73.286      -38.265      182.268      126.498       74.519    33221.796    16001.722     5553.062       16.708        2.739      527.196       82.395        0.024      343.831       20.218      856.155
05/29/2013  16:11:00     -322.703     -169.558       -4.772      207.185      168.785       80.410    42925.501    28488.521     6465.709       10.538        3.894      364.537       97.656        0.072      344.008       20.520      856.142
05/29/2013  16:12:00     -526.134      -93.836      -29.546      212.031      142.614       84.057    44957.028    20338.830     7065.535       17.942        3.618      534.436       89.399        0.028      344.172       20.800      856.143
05/29/2013  16:13:00     -434.597       29.704      -14.382      189.003      160.678       87.067    35722.105    25817.510     7580.655       12.953        3.456      435.611       88.157        0.041      344.162       20.782      856.138
05/29/2013  16:14:00     -455.411      -60.599      -28.896      148.096      113.493       75.018    21932.350    12880.609     5627.683       12.617        2.022      459.425       83.509        0.033      343.941       20.405      856.119
05/29/2013  16:15:00     -450.726      -72.846      -31.378      208.236      162.587       76.005    43362.271    26434.691     5776.700       14.250        3.779      456.574       78.688        0.030      344.133       20.732      856.128
05/29/2013  16:16:00     -533.004     -351.574      -31.209      239.473      231.137      107.211    57347.533    53424.503    11494.123       26.545        6.113      638.512      120.895        0.036      343.832       20.220      856.094
05/29/2013  16:17:00     -510.360     -119.221      -48.755      263.992      255.205      109.990    69691.706    65129.491    12097.883       21.196        7.346      524.100      110.049        0.044      343.972       20.458      856.063
05/29/2013  16:18:00     -235.345     -171.077       21.159      183.576      178.784       91.243    33700.042    31963.796     8325.230        7.953        3.699      290.955       97.096        0.111      344.157       20.773      856.058
05/29/2013  16:19:00     -335.407       75.850       -5.546      214.628      127.435       91.791    46065.276    16239.748     8425.504        9.449        3.537      343.877      121.694        0.125      344.310       21.035      856.078
05/29/2013  16:20:00     -323.722       25.522       -6.201      159.362      118.546       72.213    25396.398    14053.243     5214.769        7.507        2.233      324.727       68.857        0.045      344.500       21.361      856.065
05/29/2013  16:21:00     -383.683      -25.919      -34.345      133.240      206.626       71.466    17752.788    42694.480     5107.408       10.730        3.278      384.558       53.432        0.019      344.492       21.345      856.094
05/29/2013  16:22:00     -301.581      -44.435      -43.727      140.187      165.858       82.737    19652.396    27509.015     6845.433        7.441        2.700      304.837       44.071        0.021      344.451       21.275      856.106
05/29/2013  16:23:00     -505.279     -126.412      -22.331      204.085      178.465      105.605    41650.806    31849.847    11152.367       17.821        4.233      520.852       94.986        0.033      344.058       20.605      856.084
05/29/2013  16:24:00     -351.136     -113.567      -24.899      212.262      121.311       73.557    45055.116    14716.406     5410.639       10.099        3.259      369.045       95.182        0.067      343.971       20.457      856.117
05/29/2013  16:25:00     -122.113      -51.266        0.248       80.818       87.514       51.126     6531.526     7658.684     2613.846        1.717        0.840      132.437       37.867        0.082      344.103       20.684      856.089
05/29/2013  16:26:00     -110.041      -54.264        4.783       91.527       81.380       43.360     8377.226     6622.753     1880.076        1.598        0.844      122.693       35.576        0.084      344.176       20.808      856.076
05/29/2013  16:27:00     -156.102      -89.940        5.303      139.027      116.051       53.715    19328.596    13467.755     2885.294        3.408        1.784      180.158       65.341        0.132      344.356       21.115      856.082
05/29/2013  16:28:00     -322.698      -98.495       -7.950      201.762      181.789       86.689    40707.848    33047.181     7515.055        9.757        4.064      337.395       97.061        0.083      344.257       20.945      856.119
05/29/2013  16:29:00     -403.079     -122.585        1.314      252.893      114.253       91.163    63954.773    13053.844     8310.695       13.140        4.266      421.307      117.759        0.078      344.034       20.564      856.118
05/29/2013  16:30:00     -380.853      -44.922      -16.278      155.383      133.363       76.350    24143.993    17785.557     5829.286        9.754        2.388      383.493       93.951        0.060      344.119       20.707      856.138
05/29/2013  16:31:00     -305.395      -75.359      -13.133      157.621      127.532       74.398    24844.357    16264.290     5535.046        7.287        2.332      314.556       75.094        0.057      344.320       21.053      856.143
05/29/2013  16:32:00     -438.763     -163.249      -16.395      237.800      183.963       91.141    56548.657    33842.530     8306.678       15.905        4.935      468.149      104.755        0.050      343.910       20.352      856.134
05/29/2013  16:33:00     -386.916     -101.728      -11.963      178.296      145.026       77.727    31789.359    21032.658     6041.543       10.952        2.943      400.066       78.880        0.039      343.946       20.414      856.171
05/29/2013  16:34:00     -298.691      -88.262      -14.459      141.574      129.636       64.711    20043.196    16805.368     4187.519        6.912        2.052      311.458       64.661        0.043      344.104       20.684      856.179
05/29/2013  16:35:00     -200.151      -72.290       -6.704      115.007      116.937       56.618    13226.635    13674.215     3205.620        3.771        1.505      212.806       54.655        0.066      344.000       20.507      856.172
05/29/2013  16:36:00     -309.903      -24.569      -27.544      132.204      103.169       45.340    17477.792    10643.904     2055.726        6.378        1.509      310.875       38.710        0.016      343.971       20.456      856.181
05/29/2013  16:37:00     -267.703      -14.004      -14.780      127.311       94.436       50.424    16208.184     8918.128     2542.545        4.987        1.383      268.070       55.010        0.042      344.152       20.765      856.175
05/29/2013  16:38:00     -251.295      -25.528      -11.146      101.430       67.168       42.213    10288.110     4511.525     1781.930        4.025        0.829      252.588       38.478        0.023      344.384       21.161      856.193
05/29/2013  16:39:00     -250.966     -182.295        6.587      170.241      127.461       62.868    28981.891    16246.358     3952.341        7.271        2.459      310.186       79.257        0.065      344.280       20.984      856.200
05/29/2013  16:40:00     -328.171        3.094      -16.061      215.487      142.363       76.996    46434.662    20267.255     5928.325        9.028        3.632      328.186       98.157        0.089      344.265       20.957      856.210
05/29/2013  16:41:00     -377.072      -97.516      -16.460      173.148      127.681       65.406    29980.128    16302.313     4277.982       10.125        2.528      389.477       65.608        0.028      343.974       20.461      856.179
05/29/2013  16:42:00     -279.497      -59.561        6.282      161.607      106.167       72.674    26116.972    11271.419     5281.455        6.218        2.133      285.773       74.074        0.067      344.410       21.206      856.195
05/29/2013  16:43:00     -376.447      -63.469       -0.680      247.762      163.592       85.378    61385.774    26762.425     7289.350       12.057        4.772      381.760       95.104        0.062      344.297       21.013      856.218
05/29/2013  16:44:00     -451.360       22.960      -31.645      219.046      139.825       60.682    47981.338    19551.033     3682.293       13.822        3.561      451.943       73.497        0.026      343.881       20.302      856.229
05/29/2013  16:45:00     -529.905      -82.513      -34.954      232.409      135.457      103.158    54014.075    18348.478    10641.576       18.590        4.150      536.291      120.571        0.051      343.954       20.427      856.241
05/29/2013  16:46:00     -209.282     -198.365       10.901      158.878      164.642       76.546    25242.258    27107.047     5859.363        7.073        2.910      288.353       83.130        0.083      344.078       20.640      856.237
05/29/2013  16:47:00     -309.630     -282.560       -8.270      167.000      118.481       81.853    27888.922    14037.725     6699.868       11.219        2.431      419.179       90.423        0.047      343.830       20.214      856.227
05/29/2013  16:48:00     -342.860     -195.866        0.231      254.800      191.173      108.117    64923.083    36547.067    11689.205       13.452        5.658      394.863      132.477        0.113      343.861       20.269      856.216
05/29/2013  16:49:00     -314.032     -327.174        6.690      246.845      179.310      116.681    60932.383    32152.104    13614.341       15.618        5.335      453.497      127.242        0.079      343.846       20.243      856.157
05/29/2013  16:50:00     -439.417     -273.335      -14.837      188.657      170.203      102.041    35591.612    28969.113    10412.348       17.148        3.749      517.494      110.285        0.045      343.891       20.320      856.116
05/29/2013  16:51:00     -424.861     -120.295      -19.871      219.544      133.302       86.501    48199.646    17769.439     7482.427       13.440        3.673      441.563      104.457        0.056      344.086       20.652      856.162
05/29/2013  16:52:00     -426.116      -53.994      -10.447      146.025      175.819       71.030    21323.402    30912.464     5045.318       12.093        2.864      429.523       59.085        0.019      344.285       20.992      856.235
05/29/2013  16:53:00     -582.939     -126.729      -24.198      160.804      151.172       83.683    25857.898    22852.834     7002.869       20.608        2.786      596.555       73.677        0.015      344.140       20.744      856.256
05/29/2013  16:54:00     -351.388      -57.552       -2.663      171.062      129.758       67.530    29262.274    16837.020     4560.322        8.872        2.533      356.069       74.286        0.044      344.338       21.082      856.246
05/29/2013  16:55:00     -283.690      -14.091      -15.495      148.058      134.596       66.058    21921.273    18116.130     4363.709        6.265        2.220      284.039       63.594        0.050      344.275       20.975      856.239
05/29/2013  16:56:00     -494.343      -82.058      -46.670      140.467      129.591       83.137    19730.980    16793.782     6911.770       14.835        2.172      501.107       82.714        0.027      344.069       20.622      856.248
05/29/2013  16:57:00     -249.506     -128.861      -15.533      120.562       97.979       63.044    14535.270     9599.793     3974.541        5.360        1.405      280.817       60.821        0.047      344.173       20.800      856.241
05/29/2013  16:58:00     -211.238      -51.854       -5.304      129.861      100.960       53.835    16863.902    10192.895     2898.197        3.864        1.498      217.510       41.850        0.037      344.209       20.865      856.240
05/29/2013  16:59:00     -229.402     -179.203       -4.286      128.632      127.386       68.329    16546.179    16227.198     4668.886        6.109        1.872      291.099       65.080        0.050      343.883       20.304      856.207
05/29/2013  17:00:00     -203.934     -110.007      -16.722       92.945       76.265       56.779     8638.723     5816.369     3223.805        3.582        0.884      231.713       48.703        0.044      343.961       20.439      856.200
05/29/2013  17:01:00     -274.461       57.626      -28.082      178.240      123.664       55.126    31769.568    15292.797     3038.927        6.476        2.505      280.445       58.081        0.043      344.188       20.827      856.220
05/29/2013  17:02:00     -199.767        6.113       -7.205      155.996      125.184       62.793    24334.654    15671.085     3942.968        4.197        2.197      199.861       74.778        0.140      344.223       20.886      856.217
05/29/2013  17:03:00     -515.068      -16.342      -47.794      198.301      162.101       89.445    39323.363    26276.594     8000.370       17.071        3.680      515.327       94.057        0.033      344.067       20.619      856.192
05/29/2013  17:04:00     -317.269      -68.549      -22.341      150.707      118.417       63.172    22712.608    14022.627     3990.704        7.328        2.036      324.590       65.304        0.040      344.250       20.931      856.246
05/29/2013  17:05:00     -296.214     -141.944       11.944      214.111      108.462       77.815    45843.446    11763.916     6055.159        8.584        3.183      328.468      107.828        0.108      344.069       20.624      856.264
05/29/2013  17:06:00     -134.813      -18.317       -7.140      112.010       68.502       43.005    12546.174     4692.469     1849.399        1.882        0.954      136.052       45.917        0.114      344.162       20.784      856.257
05/29/2013  17:07:00     -194.264      -39.394        0.853      102.356       95.935       46.102    10476.674     9203.447     2125.404        3.054        1.090      198.218       48.576        0.060      344.413       21.212      856.243
05/29/2013  17:08:00     -336.178     -100.399       -4.259      171.602      129.643       62.856    29447.256    16807.417     3950.928        8.665        2.510      350.850       78.979        0.051      344.288       20.999      856.253
05/29/2013  17:09:00     -305.440     -125.591      -12.303      209.070      132.291       84.222    43710.223    17500.999     7093.404        8.875        3.415      330.252       60.605        0.034      343.981       20.473      856.208
05/29/2013  17:10:00     -105.251     -105.200        2.517      108.689      115.314       58.832    11813.392    13297.379     3461.223        2.536        1.429      148.811       54.763        0.135      343.952       20.425      856.209
05/29/2013  17:11:00      -73.470      -11.882        1.891      104.547       70.505       49.644    10930.019     4970.894     2464.525        1.195        0.918       74.425       45.875        0.380      344.238       20.915      856.196
05/29/2013  17:12:00     -561.509     -183.769      -44.687      210.748      136.311       86.460    44414.699    18580.629     7475.391       21.075        3.524      590.816       92.400        0.024      344.044       20.580      856.194
05/29/2013  17:13:00     -438.801     -126.045      -35.817      140.074      128.437       71.353    19620.678    16496.134     5091.195       12.546        2.060      456.545       61.601        0.018      343.909       20.350      856.207
05/29/2013  17:14:00     -444.416     -150.292      -20.210      202.147       99.362       66.748    40863.607     9872.839     4455.255       13.784        2.760      469.141       77.521        0.027      343.897       20.328      856.210
05/29/2013  17:15:00     -476.509     -143.483      -14.099      160.267      135.644       72.231    25685.587    18399.361     5217.263       14.857        2.465      497.642       75.901        0.023      343.914       20.358      856.231
05/29/2013  17:16:00     -337.832      -80.416        1.921      218.338      143.521       89.948    47671.497    20598.398     8090.623        9.847        3.818      347.271      106.223        0.094      344.102       20.681      856.223
05/29/2013  17:17:00     -179.032      -38.470       17.360      193.710      141.823       91.234    37523.454    20113.730     8323.706        4.989        3.298      183.118       88.868        0.236      344.151       20.763      856.245
05/29/2013  17:18:00     -236.227     -166.505       -5.291      207.628      104.478       74.030    43109.548    10915.654     5480.501        7.152        2.975      289.011       79.319        0.075      343.786       20.139      856.265
05/29/2013  17:19:00     -238.469      -31.795      -10.036      146.974      103.639       62.054    21601.228    10741.035     3850.646        4.708        1.810      240.580       70.994        0.087      343.912       20.355      856.267
05/29/2013  17:20:00     -206.121     -138.519      -22.420      136.353       99.589       58.095    18592.040     9917.947     3374.973        4.703        1.594      248.341       64.195        0.067      344.028       20.552      856.259
05/29/2013  17:21:00     -369.942     -197.383        4.385      205.620      149.339       76.956    42279.682    22302.250     5922.195       12.316        3.525      419.306       93.262        0.049      344.042       20.578      856.264
05/29/2013  17:22:00     -454.670     -180.657      -16.987      168.330      114.237       75.065    28335.044    13050.007     5634.823       14.333        2.351      489.247       80.627        0.027      343.909       20.348      856.266
05/29/2013  17:23:00     -461.002     -176.632      -40.230      232.947      149.921       73.982    54264.212    22476.432     5473.318       16.376        4.111      493.681       65.741        0.018      343.988       20.485      856.268
05/29/2013  17:24:00     -483.215     -126.368      -26.830      190.691      104.447       70.507    36363.151    10909.187     4971.269       15.121        2.612      499.466       75.837        0.023      343.671       19.943      856.278
05/29/2013  17:25:00     -367.736      -13.838      -56.358      141.003      102.027       69.327    19881.751    10409.423     4806.281        8.684        1.755      367.996       74.253        0.041      343.829       20.214      856.285
05/29/2013  17:26:00     -402.113      -22.129      -25.659      190.763      171.279       77.260    36390.401    29336.440     5969.165       11.726        3.585      402.722       86.588        0.046      343.800       20.164      856.275
05/29/2013  17:27:00     -487.075     -116.726      -42.093      175.312      146.919       84.206    30734.365    21585.076     7090.650       15.601        2.971      500.867       83.838        0.028      343.721       20.028      856.275
05/29/2013  17:28:00     -193.491      -62.336        6.444      136.448      107.857       65.326    18617.991    11633.160     4267.434        3.794        1.726      203.285       58.785        0.084      344.046       20.584      856.269
05/29/2013  17:29:00     -444.645       80.046      -30.768      166.758      193.557       82.758    27808.282    37464.403     6848.846       13.858        3.606      451.793       81.119        0.032      343.767       20.107      856.265
05/29/2013  17:30:00     -234.471     -133.789        0.636      151.758      142.470       67.894    23030.588    20297.660     4609.605        6.040        2.397      269.956       61.369        0.052      343.893       20.324      856.268
05/29/2013  17:31:00     -324.337      -43.991       -1.250      175.406      119.519       66.537    30767.339    14284.731     4427.215        7.830        2.474      327.307       79.113        0.058      343.935       20.394      856.266
05/29/2013  17:32:00     -290.171      -39.132      -30.832      111.997       77.870       40.295    12543.334     6063.697     1623.723        5.345        1.012      292.798       39.612        0.018      343.813       20.186      856.275
05/29/2013  17:33:00     -153.558      -47.790        5.847      106.929       70.486       55.386    11433.885     4968.291     3067.656        2.268        0.973      160.823       50.289        0.098      344.281       20.986      856.245
05/29/2013  17:34:00     -174.338      -61.618        8.140      104.916      131.268       47.400    11007.337    17231.225     2246.746        3.237        1.524      184.906       34.284        0.034      344.091       20.661      856.213
05/29/2013  17:35:00     -159.136     -289.339        0.983      161.028      213.981      109.740    25930.153    45787.819    12042.814        9.639        4.188      330.214       85.309        0.067      343.844       20.240      856.013
05/29/2013  17:36:00     -584.378      -89.771      -48.443      214.944      175.201       88.330    46200.995    30695.413     7802.234       21.829        4.235      591.233       74.658        0.016      344.120       20.710      855.988
05/29/2013  17:37:00     -348.593     -163.144      -22.971      184.364      144.867       89.138    33990.257    20986.378     7945.622       10.578        3.146      384.881       72.257        0.035      344.054       20.597      856.213
05/29/2013  17:38:00     -428.009     -159.960      -17.468      180.566      127.492       65.694    32603.985    16254.271     4315.740       13.112        2.659      456.923       58.163        0.016      343.834       20.220      856.251
05/29/2013  17:39:00     -373.916      -26.150      -24.624      170.343       92.213       72.926    29016.802     8503.300     5318.186        9.196        2.142      374.829       80.486        0.046      343.895       20.326      856.264
05/29/2013  17:40:00     -196.294       45.724      -26.545      102.593      171.463       55.197    10525.348    29399.695     3046.696        4.214        2.149      201.549       70.668        0.123      344.170       20.796      856.278
05/29/2013  17:41:00     -303.351      -46.286      -20.668      125.150      125.650       63.300    15662.535    15787.992     4006.939        6.502        1.773      306.862       61.254        0.040      344.188       20.827      856.287
05/29/2013  17:42:00     -154.698      -31.188      -18.151      167.952       95.526       44.983    28207.905     9125.180     2023.445        3.229        1.968      157.810       55.499        0.124      344.216       20.875      856.300
05/29/2013  17:43:00     -205.743      -33.277      -11.088      139.770       91.642       50.790    19535.612     8398.261     2579.605        3.703        1.526      208.417       36.140        0.030      344.093       20.664      856.281
05/29/2013  17:44:00     -507.926     -101.017      -23.811      173.996      134.435       73.632    30274.520    18072.716     5421.678       16.126        2.688      517.874       63.662        0.015      343.829       20.213      856.283
05/29/2013  17:45:00     -251.224      -27.370      -10.708      159.737       94.562       62.740    25515.889     8941.886     3936.325        5.118        1.920      252.710       77.945        0.095      344.031       20.559      856.309
05/29/2013  17:46:00     -236.599      -18.117       21.432      152.465       98.396       75.363    23245.559     9681.826     5679.623        4.768        1.930      237.292       82.512        0.121      344.273       20.973      856.328
05/29/2013  17:47:00     -160.055      -23.526        3.797      139.556      144.630       53.634    19475.747    20917.977     2876.589        3.472        2.164      161.774       58.215        0.129      343.964       20.444      856.328
05/29/2013  17:48:00     -140.986      -16.992        6.365      124.982      101.634       51.421    15620.426    10329.461     2644.068        2.440        1.430      142.006       66.820        0.221      343.956       20.432      856.336
05/29/2013  17:49:00     -288.338       35.856      -34.874       72.436      130.666       44.559     5246.951    17073.503     1985.485        5.497        1.215      290.559       50.834        0.031      343.775       20.121      856.361
05/29/2013  17:50:00     -207.878      -76.474       -2.325      133.005      112.551       67.237    17690.451    12667.820     4520.850        4.197        1.744      221.499       69.721        0.099      343.956       20.432      856.373
05/29/2013  17:51:00     -234.721      -52.987      -14.222      113.798       84.700       47.424    12950.005     7174.103     2249.029        4.023        1.119      240.628       40.189        0.028      343.931       20.387      856.366
05/29/2013  17:52:00     -190.241       12.786       -8.224       91.731      120.167       51.480     8414.528    14440.029     2650.224        3.096        1.275      190.670       44.383        0.054      343.822       20.202      856.319
05/29/2013  17:53:00     -228.187       14.569      -13.418      133.569       96.210       63.598    17840.641     9256.366     4044.703        4.180        1.557      228.651       64.946        0.081      343.959       20.435      856.333
05/29/2013  17:54:00     -188.124     -129.404        7.158      134.159      132.637       78.041    17998.595    17592.619     6090.468        4.693        2.084      228.333       80.092        0.123      343.947       20.415      856.363
05/29/2013  17:55:00     -196.156      -85.021        9.872      100.802      146.631       53.287    10161.038    21500.519     2839.554        4.015        1.725      213.789       49.978        0.055      343.894       20.323      856.365
05/29/2013  17:56:00     -225.740      -52.515      -20.715      130.393      119.204       55.228    17002.359    14209.691     3050.116        4.420        1.713      231.768       58.188        0.063      344.058       20.604      856.319
05/29/2013  17:57:00     -155.887      -39.546        0.160       89.203       79.566       49.314     7957.133     6330.714     2431.914        2.129        0.836      160.825       43.183        0.072      344.069       20.626      856.330
05/29/2013  17:58:00     -185.358     -163.834       -4.827      114.345       98.132       59.001    13074.844     9629.932     3481.102        4.370        1.309      247.385       60.896        0.061      343.819       20.197      856.342
05/29/2013  17:59:00     -327.798     -326.822       -6.679      210.545      163.172       96.544    44329.258    26625.031     9320.838       14.728        4.014      462.887      117.019        0.064      343.722       20.031      856.333
05/29/2013  18:00:00     -404.090     -317.688       -7.387      202.767      146.860      101.289    41114.407    21567.995    10259.508       16.859        3.647      514.018      100.972        0.039      343.645       19.899      856.320
05/29/2013  18:01:00     -359.537     -100.842      -14.791      168.939      151.345       77.545    28540.415    22905.382     6013.263        9.855        2.873      373.411       75.568        0.041      343.731       20.045      856.305
05/29/2013  18:02:00     -177.659     -157.912        8.353      144.482      114.756       82.089    20875.062    13168.990     6738.664        4.867        2.039      237.695       83.450        0.123      343.933       20.392      856.329
05/29/2013  18:03:00     -423.187     -160.187       -6.230      192.990      192.917       88.274    37245.006    37216.862     7792.367       14.351        4.113      452.490       96.195        0.045      343.874       20.289      856.305
05/29/2013  18:04:00     -311.455     -206.857       -0.940      199.763      151.361      108.897    39905.225    22910.026    11858.567       10.722        3.734      373.890      101.701        0.074      343.843       20.238      856.305
05/29/2013  18:05:00     -389.364     -115.534      -11.073      187.583      143.403       72.242    35187.332    20564.428     5218.896       11.301        3.049      406.144       64.661        0.025      343.784       20.134      856.344
05/29/2013  18:06:00     -445.909      -61.909      -32.352      176.257      126.032       65.673    31066.473    15883.995     4312.960       12.748        2.563      450.186       70.126        0.024      343.610       19.840      856.355
05/29/2013  18:07:00     -328.709     -113.971      -13.465      218.292      113.788       68.087    47651.524    12947.650     4635.862        9.322        3.262      347.906       79.012        0.052      343.769       20.112      856.324
05/29/2013  18:08:00     -353.886     -136.787       -5.021      182.218      155.836       73.008    33203.218    24284.790     5330.154       10.338        3.141      379.402       80.568        0.045      343.767       20.108      856.329
05/29/2013  18:09:00     -465.348      -62.641       -3.521      177.810      126.832       73.776    31616.469    16086.462     5442.867       13.681        2.657      469.545       90.540        0.037      343.579       19.786      856.368
05/29/2013  18:10:00     -221.755      -39.617       -1.198      176.381      127.479       63.094    31110.177    16250.836     3980.805        5.104        2.567      225.267       75.543        0.112      343.709       20.010      856.355
05/29/2013  18:11:00     -248.204      -11.256       -1.783      152.608      139.356       75.057    23289.172    19419.977     5633.604        5.503        2.417      248.459       75.002        0.091      343.680       19.959      856.354
05/29/2013  18:12:00     -193.575      -65.837       -2.240      118.763       89.512       49.468    14104.697     8012.317     2447.086        3.318        1.228      204.465       64.728        0.100      343.903       20.340      856.373
05/29/2013  18:13:00     -184.479      -69.166       -6.061      177.414      136.331       71.614    31475.779    18586.012     5128.499        4.701        2.760      197.019       86.449        0.193      343.928       20.383      856.365
05/29/2013  18:14:00     -395.492       10.322      -34.389      157.800       98.426       64.821    24900.726     9687.663     4201.722        9.824        1.940      395.627       73.811        0.035      343.657       19.919      856.402
05/29/2013  18:15:00     -560.938        6.988      -46.061      174.790      222.101       88.034    30551.612    49328.698     7750.024       20.221        4.382      560.982       87.810        0.025      343.682       19.963      856.362
05/29/2013  18:16:00     -617.845     -176.486      -14.546      204.340      161.908       99.210    41754.924    26214.350     9842.711       24.544        3.891      642.557      109.598        0.029      343.666       19.935      856.365
05/29/2013  18:17:00     -514.332     -190.261      -22.343      179.208      153.589       89.036    32115.366    23589.656     7927.492       18.242        3.182      548.395       97.200        0.031      343.514       19.676      856.411
05/29/2013  18:18:00     -325.266     -246.067       -2.561      182.610      134.040       87.025    33346.470    17966.591     7573.328       11.261        2.944      407.857      101.002        0.061      343.520       19.687      856.398
05/29/2013  18:19:00     -283.544     -144.087       -8.942      170.045      134.033       67.851    28915.329    17964.887     4603.766        7.635        2.574      318.054       82.632        0.067      343.696       19.986      856.435
05/29/2013  18:20:00     -227.610      -43.482       -8.379      202.002       80.494       65.716    40804.802     6479.305     4318.653        5.268        2.580      231.726       85.023        0.135      343.836       20.227      856.453
05/29/2013  18:21:00     -267.220       17.140      -32.792      101.893       98.361       54.078    10382.201     9674.891     2924.396        4.787        1.149      267.770       47.063        0.031      343.862       20.269      856.459
05/29/2013  18:22:00     -171.341       -8.664        1.831      115.026       86.806       46.686    13230.924     7535.340     2179.566        2.619        1.147      171.560       44.028        0.066      343.902       20.339      856.446
05/29/2013  18:23:00     -312.647      -81.710      -23.046      118.622      123.758       53.439    14071.164    15315.925     2855.732        6.859        1.612      323.148       46.364        0.021      343.898       20.329      856.438
05/29/2013  18:24:00     -275.516      -59.469      -18.160      182.002      102.470       56.008    33124.827    10500.002     3136.889        6.326        2.338      281.862       56.156        0.040      343.704       20.001      856.433
05/29/2013  18:25:00     -235.119     -142.217        7.871      151.790      154.826       77.619    23040.053    23970.943     6024.681        6.429        2.652      274.785       86.377        0.099      343.815       20.189      856.425
05/29/2013  18:26:00      -62.576      -29.727       24.573      100.079       94.028       43.712    10015.875     8841.205     1910.740        1.308        1.038       69.278       39.866        0.331      343.958       20.435      856.438
05/29/2013  18:27:00     -165.427     -101.594        5.601      114.629      102.899       58.979    13139.806    10588.160     3478.532        3.246        1.360      194.132       57.083        0.086      343.717       20.021      856.432
05/29/2013  18:28:00     -290.829        4.414      -21.347      144.030       89.045       58.468    20744.713     7929.042     3418.556        5.857        1.605      290.863       67.878        0.054      343.704       20.000      856.444
05/29/2013  18:29:00     -384.834      -91.837      -28.934      107.624      135.371       62.899    11582.943    18325.310     3956.281        9.561        1.693      395.640       52.700        0.018      343.647       19.902      856.478
05/29/2013  18:30:00     -194.571      -41.530        6.753      125.518       85.626       50.313    15754.818     7331.793     2531.382        3.262        1.281      198.954       52.021        0.068      343.585       19.799      856.495
05/29/2013  18:31:00      -93.449      -17.617       -8.438       93.713       92.280       52.125     8782.181     8515.625     2716.999        1.456        1.001       95.095       22.698        0.057      343.829       20.216      856.516
05/29/2013  18:32:00     -112.205        7.855       -3.099       86.814      101.726       46.369     7536.711    10348.147     2150.042        1.634        1.002      112.479       43.100        0.147      343.844       20.240      856.537
05/29/2013  18:33:00     -386.340       33.002      -32.813      128.029       94.950       54.194    16391.383     9015.520     2937.020        8.988        1.417      387.747       57.114        0.022      343.557       19.747      856.545
05/29/2013  18:34:00     -338.020      -20.528      -35.665      143.379      111.193       53.000    20557.642    12363.858     2809.006        7.583        1.787      338.643       43.280        0.016      343.543       19.726      856.527
05/29/2013  18:35:00     -419.539       42.612      -21.388      154.507      129.317       66.728    23872.375    16722.861     4452.654       11.166        2.252      421.698       63.651        0.023      343.571       19.773      856.513
05/29/2013  18:36:00     -251.180     -152.025       -0.726      126.435      132.337       73.442    15985.787    17513.041     5393.697        6.254        1.945      293.603       72.811        0.062      343.614       19.844      856.538
05/29/2013  18:37:00     -260.909     -173.470       -6.503      234.081      162.643       99.569    54793.875    26452.654     9913.956        9.467        4.558      313.313      119.417        0.145      343.486       19.629      856.531
05/29/2013  18:38:00     -328.036     -201.248      -13.229      179.690      145.826       88.489    32288.649    21265.180     7830.340       10.482        3.069      384.849       76.729        0.040      343.378       19.443      856.545
05/29/2013  18:39:00     -303.782     -258.281        6.957      176.158      142.614       85.966    31031.683    20338.716     7390.206       10.889        2.938      398.739       87.883        0.049      343.368       19.427      856.538
05/29/2013  18:40:00     -346.710     -177.374      -17.511      150.106      122.269       70.483    22531.798    14949.796     4967.916        9.721        2.122      389.448       80.876        0.043      343.352       19.398      856.545
05/29/2013  18:41:00     -265.258     -197.084        0.030      212.864      154.288       75.590    45310.873    23804.721     5713.829        9.200        3.741      330.460       97.476        0.087      343.376       19.441      856.550
05/29/2013  18:42:00     -355.150     -235.744      -12.554      143.233      147.491       75.491    20515.554    21753.685     5698.830       11.491        2.398      426.271       75.287        0.031      343.342       19.382      856.561
05/29/2013  18:43:00     -394.747     -241.983      -17.374      185.833      162.539       79.437    34533.799    26418.873     6310.236       14.096        3.363      463.013       78.765        0.029      343.342       19.382      856.598
05/29/2013  18:44:00     -233.270      -71.601        1.738      130.306      167.229       84.491    16979.759    27965.577     7138.720        5.581        2.604      244.012       83.884        0.118      343.456       19.576      856.605
05/29/2013  18:45:00     -240.918     -101.162        5.207      163.341      130.578       68.570    26680.174    17050.557     4701.911        5.836        2.422      261.295       76.526        0.086      343.426       19.526      856.634
05/29/2013  18:46:00      -96.233       -7.416       22.822       89.219       77.149       48.973     7960.112     5952.020     2398.366        1.307        0.816       96.518       50.932        0.278      343.637       19.888      856.650
05/29/2013  18:47:00     -119.080      -40.851       10.032       90.047       78.127       45.804     8108.392     6103.873     2097.977        1.613        0.816      125.892       47.484        0.142      343.723       20.034      856.659
05/29/2013  18:48:00     -364.542      -69.277      -19.850      159.228      105.452       62.286    25353.615    11120.121     3879.589        8.921        2.018      371.066       53.660        0.021      343.571       19.773      856.662
05/29/2013  18:49:00     -366.484      -21.910        1.121      241.240      165.645       90.852    58196.976    27438.351     8254.064       11.432        4.694      367.138      122.248        0.111      343.396       19.475      856.652
05/29/2013  18:50:00     -349.984      -53.097      -23.230      161.074      150.385       78.751    25944.782    22615.559     6201.670        9.030        2.738      353.988       83.656        0.056      343.396       19.475      856.654
05/29/2013  18:51:00     -161.775      -91.183        5.348      114.758      131.363       66.089    13169.292    17256.112     4367.704        3.465        1.740      185.703       67.610        0.133      343.580       19.791      856.666
05/29/2013  18:52:00     -103.946      -48.562        9.238      100.177       74.487       50.859    10035.455     5548.328     2586.594        1.571        0.909      114.730       57.266        0.249      343.663       19.931      856.667
05/29/2013  18:53:00     -155.456      -53.247       -8.993       90.109       77.307       43.946     8119.686     5976.413     1931.212        2.155        0.801      164.322       35.854        0.048      343.609       19.839      856.663
05/29/2013  18:54:00     -177.688     -166.323        2.558      147.729      143.402       77.872    21823.989    20564.207     6064.032        5.384        2.423      243.386       71.170        0.086      343.509       19.668      856.654
05/29/2013  18:55:00     -315.914     -215.471       -8.321      146.897      128.351       76.487    21578.775    16474.051     5850.272        9.509        2.195      382.400       74.877        0.038      343.349       19.395      856.651
05/29/2013  18:56:00     -332.599     -116.282       -9.760      132.524      143.792       74.310    17562.725    20676.278     5522.049        8.399        2.188      352.341       65.839        0.035      343.351       19.396      856.671
05/29/2013  18:57:00     -448.522      -18.069      -31.499      202.774      117.356       77.736    41117.205    13772.509     6042.873       13.170        3.047      448.886       86.682        0.037      343.244       19.215      856.628
05/29/2013  18:58:00     -374.414      -24.744       -0.884      166.776      137.261       74.331    27814.335    18840.595     5525.114        9.648        2.609      375.231       82.555        0.048      343.356       19.407      856.645
05/29/2013  18:59:00     -119.317      -49.699       28.813      120.751      109.970       64.508    14580.719    12093.458     4161.262        2.418        1.542      129.254       65.299        0.255      343.388       19.462      856.681
05/29/2013  19:00:00     -332.627      -83.103      -22.641      163.253      139.683       63.713    26651.521    19511.288     4059.390        8.413        2.511      342.851       67.953        0.039      343.366       19.424      856.693
05/29/2013  19:01:00     -392.113      -54.774      -24.426      113.886      108.398       53.646    12970.062    11750.115     2877.901        9.247        1.380      395.920       54.142        0.019      343.446       19.558      856.717
05/29/2013  19:02:00     -304.512      -87.447      -10.337      100.825      115.214       47.625    10165.780    13274.367     2268.170        6.309        1.285      316.819       36.538        0.013      343.479       19.616      856.716
05/29/2013  19:03:00     -359.665      -28.502      -13.009      204.727      160.031       72.691    41913.103    25609.991     5283.914       10.156        3.640      360.793       96.457        0.071      343.464       19.589      856.696
05/29/2013  19:04:00     -393.015      -55.205      -22.582      152.039      126.415       72.709    23115.914    15980.627     5286.536       10.119        2.219      396.874       74.514        0.035      343.415       19.508      856.695
05/29/2013  19:05:00     -327.356      -32.238       -4.498      179.058      124.834       68.422    32061.917    15583.621     4681.615        8.027        2.616      328.940       78.228        0.057      343.457       19.578      856.700
05/29/2013  19:06:00     -317.097      -87.697      -19.362      234.536      129.246       79.090    55007.090    16704.591     6255.187        9.328        3.898      329.001      101.556        0.095      343.307       19.325      856.698
05/29/2013  19:07:00     -194.108     -139.517       -2.995      223.077      139.602       94.292    49763.553    19488.793     8890.972        6.763        3.907      239.046      120.159        0.253      343.285       19.287      856.678
05/29/2013  19:08:00     -431.511     -108.053       -8.203      162.900      112.994       70.148    26536.472    12767.610     4920.731       12.108        2.211      444.834       71.325        0.026      343.274       19.266      856.690
05/29/2013  19:09:00     -383.948      -19.714      -28.602      184.788      145.065       76.073    34146.721    21043.865     5787.049       10.479        3.049      384.454       87.015        0.051      343.278       19.273      856.715
05/29/2013  19:10:00     -392.276      -39.660      -13.507      165.951      137.122       76.424    27539.709    18802.332     5840.596       10.390        2.609      394.276       77.268        0.038      343.312       19.332      856.712
05/29/2013  19:11:00     -323.171      -22.911      -24.459      181.030       86.598       60.010    32771.937     7499.295     3601.252        7.471        2.194      323.982       79.750        0.061      343.288       19.291      856.728
05/29/2013  19:12:00     -382.291      -46.159      -22.466      152.006      141.429       68.661    23105.798    20002.107     4714.288        9.829        2.391      385.067       76.510        0.039      343.326       19.355      856.737
05/29/2013  19:13:00     -323.473       -4.584       -1.212      153.501      143.102       76.518    23562.507    20478.220     5855.077        7.727        2.495      323.505       69.721        0.046      343.250       19.225      856.725
05/29/2013  19:14:00     -362.176        0.460      -31.387      139.077      121.732       67.158    19342.448    14818.683     4510.237        8.541        1.934      362.176       71.366        0.039      343.250       19.226      856.717
05/29/2013  19:15:00     -277.506        4.673       -9.049      153.878      117.754       52.571    23678.392    13865.895     2763.720        5.870        2.015      277.545       66.207        0.057      343.294       19.303      856.751
05/29/2013  19:16:00     -335.127       14.525      -11.450      121.476      100.177       65.329    14756.372    10035.400     4267.909        7.085        1.453      335.441       67.004        0.040      343.179       19.103      856.763
05/29/2013  19:17:00     -219.649      -44.144        4.247      119.553      112.102       63.326    14292.983    12566.807     4010.173        4.054        1.543      224.041       63.311        0.080      343.286       19.287      856.769
05/29/2013  19:18:00     -330.655      -58.012       -2.324      194.863      180.736       87.074    37971.461    32665.374     7581.826        9.545        3.911      335.705      103.376        0.095      343.149       19.054      856.776
05/29/2013  19:19:00     -428.936      -89.500      -19.974      145.843      163.004       88.685    21270.279    26570.169     7865.067       12.404        2.785      438.174       73.391        0.028      343.184       19.114      856.767
05/29/2013  19:20:00     -443.879      -30.998      -38.897      185.809      127.818       72.475    34524.861    16337.342     5252.662       12.780        2.806      444.960       79.969        0.032      343.155       19.064      856.792
05/29/2013  19:21:00     -487.775     -117.700      -13.887      187.690      148.915       88.138    35227.559    22175.776     7768.325       15.856        3.259      501.774       99.572        0.039      343.019       18.833      856.795
05/29/2013  19:22:00     -456.744     -135.089      -23.175      155.799      147.669       68.152    24273.349    21806.092     4644.737       13.905        2.536      476.302       61.812        0.017      343.045       18.875      856.787
05/29/2013  19:23:00     -379.959      -49.218      -27.662      129.606      118.421       66.443    16797.678    14023.466     4414.731        9.139        1.762      383.133       74.333        0.038      343.032       18.855      856.808
05/29/2013  19:24:00     -276.169      -76.228      -13.000      150.070      111.611       61.710    22521.035    12457.116     3808.172        6.051        1.939      286.496       53.736        0.035      343.086       18.946      856.827
05/29/2013  19:25:00     -354.011        6.973      -18.956      150.374      140.446       65.530    22612.411    19725.154     4294.149        8.617        2.332      354.079       56.249        0.025      343.100       18.970      856.834
05/29/2013  19:26:00     -331.139      -73.201      -11.373      126.441      109.939       59.137    15987.440    12086.484     3497.197        7.335        1.579      339.133       67.816        0.040      343.066       18.912      856.842
05/29/2013  19:27:00     -259.517      -31.212      -19.418      116.305      114.027       62.715    13526.783    13002.202     3933.205        4.958        1.523      261.387       49.568        0.036      343.087       18.948      856.857
05/29/2013  19:28:00     -241.488      -24.825       -7.542      129.778       86.187       54.959    16842.207     7428.124     3020.514        4.314        1.365      242.761       53.021        0.048      343.137       19.033      856.886
05/29/2013  19:29:00     -268.802      -53.696        1.167      154.652      101.207       62.263    23917.351    10242.851     3876.628        5.658        1.902      274.113       66.413        0.059      343.042       18.872      856.891
05/29/2013  19:30:00     -246.558      -70.923       -2.787      125.709      105.755       54.845    15802.787    11184.024     3008.003        4.791        1.500      256.555       58.460        0.052      343.038       18.865      856.906
05/29/2013  19:31:00     -209.093      -47.774        9.948      158.938      118.638       68.830    25261.237    14074.887     4737.591        4.508        2.204      214.481       84.845        0.156      342.965       18.742      856.924
05/29/2013  19:32:00     -372.714      -35.968       -7.386      157.253      153.258       72.711    24728.473    23487.899     5286.913        9.687        2.675      374.446       72.663        0.038      342.927       18.676      856.928
05/29/2013  19:33:00     -343.701     -178.214       -4.311      203.488      163.082       89.501    41407.537    26595.865     8010.438       11.295        3.801      387.157       96.161        0.062      342.869       18.577      856.929
05/29/2013  19:34:00     -158.658       -5.806      -26.306      108.436       85.052       50.024    11758.443     7233.808     2502.376        2.369        1.075      158.765       56.577        0.127      342.959       18.732      856.944
05/29/2013  19:35:00     -312.500      -75.364      -23.020      189.111      117.944       60.638    35762.831    13910.842     3677.003        7.860        2.668      321.459       80.009        0.062      342.880       18.597      856.945
05/29/2013  19:36:00     -382.260      -55.306      -20.963      189.560      128.806       71.377    35933.010    16590.950     5094.609       10.361        2.881      386.240       94.113        0.059      342.888       18.610      856.950
05/29/2013  19:37:00     -379.350     -127.328      -29.187      194.681      144.669       70.881    37900.579    20929.132     5024.089       11.240        3.193      400.148       75.882        0.036      342.814       18.483      856.956
05/29/2013  19:38:00     -499.905     -124.463      -27.648      165.973      120.052       75.622    27546.957    14412.387     5718.665       15.691        2.384      515.166       82.857        0.026      342.736       18.350      856.969
05/29/2013  19:39:00     -446.106     -174.173      -20.644      151.633      162.151       76.227    22992.467    26293.048     5810.626       14.243        2.755      478.901       51.646        0.012      342.737       18.353      856.980
05/29/2013  19:40:00     -292.371     -120.351       -2.681      149.826      124.994       65.546    22447.908    15623.447     4296.225        7.116        2.118      316.173       62.710        0.039      342.744       18.364      856.994
05/29/2013  19:41:00     -256.829      -41.332       -8.212       98.613       78.638       50.519     9724.429     6183.920     2552.165        4.310        0.923      260.134       49.349        0.036      342.771       18.410      857.008
05/29/2013  19:42:00     -356.737     -102.690       -2.364      151.942      146.450       66.632    23086.238    21447.709     4439.852        9.338        2.449      371.222       74.146        0.040      342.748       18.371      857.015
05/29/2013  19:43:00     -350.624      -54.143      -20.969      187.699      134.753       67.992    35230.998    18158.465     4622.884        9.215        2.901      354.780       86.738        0.060      342.720       18.324      857.032
05/29/2013  19:44:00     -399.851      -39.359      -20.140      150.497      161.403       78.876    22649.252    26051.026     6221.348       10.837        2.746      401.784       74.719        0.035      342.678       18.253      857.039
05/29/2013  19:45:00     -351.472     -140.640      -14.298      182.155      144.440       80.226    33180.491    20862.773     6436.157       10.199        3.024      378.566       82.857        0.048      342.673       18.244      857.031
05/29/2013  19:46:00     -319.458      -83.793      -25.962      159.048      117.147       71.934    25296.260    13723.385     5174.543        7.696        2.210      330.264       72.316        0.048      342.675       18.248      857.042
05/29/2013  19:47:00     -180.746      -79.412       -0.910      132.301       94.797       65.205    17503.434     8986.464     4251.687        3.485        1.537      197.422       50.508        0.065      342.665       18.231      857.058
05/29/2013  19:48:00     -398.731      -21.745      -32.032      182.606      165.371       77.616    33345.105    27347.438     6024.267       11.359        3.336      399.324       87.119        0.048      342.599       18.120      857.059
05/29/2013  19:49:00     -419.098     -127.649      -31.428      161.757      167.609       68.809    26165.370    28092.743     4734.717       12.595        2.950      438.107       71.399        0.027      342.601       18.119      857.037
05/29/2013  19:50:00     -373.334     -147.292      -19.582      180.667      147.790       89.727    32640.681    21841.913     8050.974       11.198        3.127      401.340       83.625        0.043      342.559       18.051      857.037
05/29/2013  19:51:00     -384.747       15.115      -37.676      187.588      140.583       85.735    35189.201    19763.488     7350.426       10.598        3.115      385.044       95.299        0.061      342.518       17.982      857.054
05/29/2013  19:52:00     -372.512       22.638      -26.819      147.144      132.733       69.689    21651.211    17617.920     4856.543        9.205        2.206      373.200       63.663        0.029      342.539       18.016      857.052
05/29/2013  19:53:00     -239.045      -51.356        0.135      140.319      121.025       61.135    19689.458    14647.142     3737.525        4.892        1.904      244.499       65.215        0.071      342.506       17.962      857.066
05/29/2013  19:54:00     -363.483      -98.371       -9.509      164.097      134.512       61.951    26927.690    18093.444     3837.920        9.537        2.443      376.559       73.628        0.038      342.490       17.934      857.065
05/29/2013  19:55:00     -363.163      -16.320       -6.585      151.102      142.548       65.073    22831.805    20320.023     4234.496        8.978        2.369      363.529       69.215        0.036      342.461       17.882      857.078
05/29/2013  19:56:00     -469.672      -40.284      -16.408      162.596      114.891       65.467    26437.306    13200.018     4285.951       13.320        2.196      471.396       76.152        0.026      342.447       17.860      857.070
05/29/2013  19:57:00     -429.246      -35.092      -33.999      190.369      157.246       62.119    36240.443    24726.171     3858.775       12.572        3.241      430.678       76.133        0.031      342.443       17.854      857.084
05/29/2013  19:58:00     -384.714      -79.644      -24.598      114.973      109.376       56.851    13218.851    11963.141     3232.084        9.168        1.421      392.872       62.817        0.026      342.435       17.840      857.107
05/29/2013  19:59:00     -216.563      -20.769       14.494      165.492      110.406       62.891    27387.697    12189.421     3955.315        4.553        2.177      217.557       59.608        0.075      342.415       17.807      857.108
05/29/2013  20:00:00     -262.878      -38.126        0.391      131.013      114.463       60.841    17164.278    13101.811     3701.649        5.226        1.698      265.628       65.705        0.061      342.405       17.788      857.106
05/29/2013  20:01:00     -295.143      -59.352      -17.912      152.149      118.316       65.381    23149.276    13998.722     4274.658        6.618        2.071      301.052       70.980        0.056      342.382       17.749      857.094
05/29/2013  20:02:00     -353.908     -160.980      -21.573      131.675      118.979       64.134    17338.311    14156.050     4113.137        9.361        1.780      388.800       64.507        0.028      342.392       17.765      857.098
05/29/2013  20:03:00     -249.266      -93.298      -14.256      156.180      112.890       60.777    24392.129    12744.099     3693.896        5.593        2.042      266.154       77.539        0.085      342.363       17.717      857.110
05/29/2013  20:04:00     -320.480      -91.837       -7.496      138.078      110.199       65.239    19065.489    12143.792     4256.182        7.333        1.773      333.379       65.505        0.039      342.317       17.640      857.121
05/29/2013  20:05:00     -323.278      -35.692      -26.499      127.181       94.564       65.423    16174.948     8942.388     4280.172        6.794        1.470      325.242       64.409        0.039      342.342       17.683      857.126
05/29/2013  20:06:00     -377.027      -68.787      -19.052      175.145      130.970       79.905    30675.910    17153.237     6384.746       10.072        2.711      383.251       89.262        0.054      342.309       17.626      857.106
05/29/2013  20:07:00     -365.532      -33.830      -15.479      144.689      105.801       68.582    20934.815    11193.755     4703.541        8.591        1.842      367.095       76.351        0.043      342.292       17.597      857.116
05/29/2013  20:08:00     -363.311     -117.377        0.106      173.696      133.900       72.423    30170.195    17929.155     5245.124        9.955        2.667      381.801       86.142        0.051      342.280       17.575      857.123
05/29/2013  20:09:00     -319.975      -92.605      -13.839      148.183      117.174       55.072    21958.198    13729.821     3032.897        7.493        1.936      333.106       65.458        0.039      342.300       17.609      857.153
05/29/2013  20:10:00     -215.844      -88.290      -18.044      128.117      124.598       63.799    16413.939    15524.737     4070.348        4.535        1.800      233.203       66.570        0.081      342.277       17.572      857.180
05/29/2013  20:11:00     -230.589      -65.527       -2.773      141.539       93.248       68.548    20033.168     8695.160     4698.826        4.544        1.671      239.718       67.698        0.080      342.285       17.586      857.197
05/29/2013  20:12:00     -232.916      -23.783        5.319      128.711       96.850       65.336    16566.432     9379.962     4268.771        4.252        1.511      234.127       68.628        0.086      342.277       17.571      857.232
05/29/2013  20:13:00     -250.498      -64.498       -0.486      143.524       99.088       61.367    20599.166     9818.360     3765.883        5.054        1.709      258.668       66.994        0.067      342.247       17.521      857.244
05/29/2013  20:14:00     -349.439      -81.503      -14.175      164.220       82.751       58.315    26968.202     6847.720     3400.596        8.308        1.861      358.818       62.114        0.030      342.238       17.504      857.260
05/29/2013  20:15:00     -162.476      -46.294       16.683      123.140       96.612       66.476    15163.355     9333.875     4419.025        2.886        1.446      168.943       71.671        0.180      342.214       17.465      857.273
05/29/2013  20:16:00     -373.847      -57.718      -10.893      182.321      118.175       63.181    33241.125    13965.440     3991.813        9.720        2.560      378.276       74.680        0.039      342.188       17.421      857.275
05/29/2013  20:17:00     -269.346      -78.516       -9.389      145.382      117.400       63.311    21135.949    13782.790     4008.300        5.886        1.946      280.557       70.680        0.063      342.174       17.397      857.275
05/29/2013  20:18:00     -169.101      -56.066       -3.780       94.509      107.287       60.833     8931.857    11510.486     3700.654        2.794        1.207      178.153       51.087        0.082      342.200       17.440      857.291
05/29/2013  20:19:00     -258.670      -45.013       -5.828      123.619      120.104       58.204    15281.666    14425.032     3387.700        5.103        1.655      262.558       61.380        0.055      342.167       17.385      857.295
05/29/2013  20:20:00     -300.632      -66.672      -12.471      120.483      119.272       65.656    14516.035    14225.809     4310.745        6.401        1.653      307.937       69.173        0.050      342.157       17.366      857.300
05/29/2013  20:21:00     -369.293      -56.619      -17.987      256.209      118.759       79.704    65642.840    14103.805     6352.661       11.299        4.305      373.608      103.783        0.077      342.131       17.323      857.294
05/29/2013  20:22:00     -366.005      -72.326      -17.303      177.683      136.450       69.797    31571.293    18618.697     4871.689        9.727        2.753      373.083       84.813        0.052      342.128       17.318      857.300
05/29/2013  20:23:00     -411.164      -75.307      -17.144      194.453      102.537       70.164    37812.064    10513.924     4923.025       11.413        2.662      418.003       89.315        0.046      342.106       17.282      857.320
05/29/2013  20:24:00     -237.298      -78.630      -13.264       98.148       97.706       57.293     9633.078     9546.443     3282.468        4.256        1.123      249.986       57.774        0.053      342.133       17.327      857.334
05/29/2013  20:25:00     -233.018      -62.840       -3.883      101.545       98.108       64.116    10311.316     9625.093     4110.865        4.115        1.202      241.342       51.658        0.046      342.091       17.255      857.344
05/29/2013  20:26:00     -228.932     -120.562        4.928      154.929      108.837       60.085    24003.000    11845.530     3610.227        5.321        1.973      258.737       71.818        0.077      342.107       17.282      857.341
05/29/2013  20:27:00     -188.840     -139.557       -1.295      120.044      113.763       58.596    14410.584    12942.082     3433.477        4.296        1.539      234.812       54.582        0.054      342.084       17.244      857.351
05/29/2013  20:28:00     -306.103     -115.444      -24.367      232.960      112.716       75.291    54270.317    12705.003     5668.757        9.012        3.632      327.149       99.546        0.093      342.070       17.218      857.354
05/29/2013  20:29:00     -410.791      -77.397      -34.164      229.736      148.751       80.611    52778.670    22126.840     6498.203       12.864        4.070      418.018      107.161        0.066      342.055       17.194      857.349
05/29/2013  20:30:00     -227.627      -73.843        5.978      159.423       97.588       68.389    25415.576     9523.506     4677.060        4.845        1.981      239.305       75.516        0.100      342.025       17.145      857.367
05/29/2013  20:31:00     -285.675     -120.022       12.235      178.619      153.350       74.650    31904.820    23516.301     5572.664        7.857        3.050      309.863       89.949        0.084      342.017       17.130      857.379
05/29/2013  20:32:00     -247.752     -140.269       -1.195      132.210      135.597       66.229    17479.432    18386.463     4386.259        6.065        2.013      284.704       65.058        0.052      342.044       17.176      857.392
05/29/2013  20:33:00     -230.557      -72.638      -14.705      136.339      121.534       61.169    18588.299    14770.530     3741.631        4.787        1.855      241.729       52.458        0.047      342.017       17.130      857.390
05/29/2013  20:34:00     -217.500      -49.851       -2.356      106.718       86.574       56.062    11388.763     7495.019     3142.905        3.591        1.101      223.140       56.289        0.064      341.962       17.034      857.409
05/29/2013  20:35:00     -235.586      -10.580      -12.435      127.933       76.535       56.613    16366.815     5857.654     3205.036        4.059        1.271      235.824       55.665        0.056      341.968       17.045      857.403
05/29/2013  20:36:00     -157.633      -95.102       -4.224      100.850      105.526       55.335    10170.720    11135.700     3061.963        2.914        1.218      184.100       57.305        0.097      342.006       17.111      857.393
05/29/2013  20:37:00     -310.326      -56.600       -3.544      158.785      125.981       76.782    25212.791    15871.245     5895.465        7.324        2.349      315.445       79.469        0.063      341.934       16.989      857.385
05/29/2013  20:38:00     -337.905     -148.432       -3.878      186.319      164.266       88.742    34714.918    26983.393     7875.191       10.289        3.479      369.069       91.314        0.061      341.917       16.960      857.389
05/29/2013  20:39:00     -289.651     -263.303        8.057      196.280      149.685       96.500    38525.876    22405.723     9312.295       11.176        3.512      391.441       97.595        0.062      341.940       16.999      857.360
05/29/2013  20:40:00     -204.304      -32.178       -2.946      150.783      105.057       70.988    22735.490    11036.913     5039.229        4.079        1.941      206.822       73.537        0.126      341.938       16.996      857.405
05/29/2013  20:41:00     -368.882     -122.645      -31.502      210.604      115.055       84.613    44354.040    13237.680     7159.429       10.842        3.238      388.736      102.953        0.070      341.906       16.941      857.424
05/29/2013  20:42:00     -287.598      -73.641       -2.954      119.308      135.116       66.766    14234.389    18256.264     4457.644        6.254        1.847      296.877       62.093        0.044      341.907       16.943      857.413
05/29/2013  20:43:00     -338.693      -27.661      -24.626      201.104      116.010       80.437    40442.996    13458.390     6470.180        8.822        3.019      339.821       88.815        0.068      341.879       16.896      857.382
05/29/2013  20:44:00     -248.794       -4.392        1.843      113.745      122.713       59.831    12938.011    15058.472     3579.751        4.674        1.579      248.832       50.986        0.042      341.890       16.913      857.370
05/29/2013  20:45:00     -290.678     -151.355      -17.327      172.550      146.243       80.054    29773.491    21386.915     6408.630        8.263        2.878      327.722       81.254        0.061      341.869       16.877      857.360
05/29/2013  20:46:00     -254.864      -45.749       -4.745      204.126      154.570       90.500    41667.311    23891.745     8190.162        7.040        3.687      258.937      101.240        0.153      341.854       16.852      857.339
05/29/2013  20:47:00     -324.881     -133.216        2.606      276.519      152.087       92.825    76462.987    23130.492     8616.532       11.574        5.411      351.132      120.378        0.118      341.848       16.844      857.367
05/29/2013  20:48:00     -427.185     -182.913      -15.027      242.262      199.470      104.474    58691.114    39788.105    10914.720       16.276        5.470      464.698      128.683        0.077      341.845       16.837      857.380
05/29/2013  20:49:00     -309.349     -158.889      -16.191      125.998      106.155       66.878    15875.370    11268.883     4472.675        7.641        1.581      347.768       67.402        0.038      341.863       16.867      857.421
05/29/2013  20:50:00     -169.374      -90.169       15.580      156.890      103.064       73.361    24614.447    10622.104     5381.873        3.883        2.031      191.880       86.662        0.204      341.838       16.826      857.454
05/29/2013  20:51:00     -276.622      -91.026       -0.428      173.264      134.591       74.960    30020.315    18114.769     5619.012        6.927        2.688      291.214       87.789        0.091      341.782       16.729      857.460
05/29/2013  20:52:00     -308.497      -38.405       -5.273      108.307      112.951       62.447    11730.467    12757.918     3899.597        6.253        1.419      310.879       58.555        0.035      341.753       16.679      857.452
05/29/2013  20:53:00     -287.637      -66.891        1.873      201.225      153.936       90.564    40491.616    23696.171     8201.844        7.979        3.619      295.313      100.096        0.115      341.748       16.672      857.452
05/29/2013  20:54:00     -385.262     -136.512        0.386      193.883      200.348      103.674    37590.768    40139.421    10748.224       12.776        4.424      408.733      115.909        0.080      341.785       16.735      857.428
05/29/2013  20:55:00     -428.658     -110.013      -21.085      206.205      170.406       96.987    42520.691    29038.272     9406.451       13.862        4.048      442.550       80.744        0.033      341.790       16.742      857.456
05/29/2013  20:56:00     -330.645     -163.981      -16.828      196.117      144.551       93.386    38461.804    20894.907     8720.859       10.228        3.404      369.074       98.371        0.071      341.832       16.815      857.471
05/29/2013  20:57:00     -175.682      -63.936        2.486      143.675      155.654       64.864    20642.622    24228.296     4207.364        4.201        2.454      186.954       54.656        0.085      341.790       16.744      857.508
05/29/2013  20:58:00     -173.357      -25.822       10.347      155.708      146.524       66.127    24245.129    21469.272     4372.720        4.045        2.504      175.270       71.992        0.169      341.753       16.682      857.502
05/29/2013  20:59:00     -309.458      -66.180      -17.024      164.679      135.647       69.486    27119.031    18400.240     4828.265        7.538        2.517      316.456       69.650        0.048      341.715       16.617      857.493
05/29/2013  21:00:00     -378.084        8.993       -8.301      218.175      123.141       80.589    47600.537    15163.603     6494.657       10.617        3.463      378.191      103.811        0.075      341.666       16.534      857.476
05/29/2013  21:01:00     -336.992     -123.041      -27.318      175.281      152.614       66.154    30723.555    23291.137     4376.414        9.391        2.920      358.751       70.155        0.038      341.702       16.595      857.475
05/29/2013  21:02:00     -446.481     -136.701      -17.047      169.241      145.114       85.517    28642.459    21058.036     7313.205       13.766        2.851      466.939       92.535        0.039      341.667       16.536      857.475
05/29/2013  21:03:00     -367.947     -100.115      -17.036      167.584      179.487       79.069    28084.409    32215.688     6251.871       10.611        3.328      381.324       83.382        0.048      341.668       16.539      857.516
05/29/2013  21:04:00     -386.159       -5.602      -31.157      196.646      170.135       88.279    38669.738    28945.989     7793.140       11.275        3.770      386.199       94.844        0.060      341.671       16.544      857.545
05/29/2013  21:05:00     -300.477      -65.443        0.408      195.243      132.593       75.471    38119.863    17580.911     5695.946        7.797        3.070      307.521       87.910        0.082      341.633       16.479      857.567
05/29/2013  21:06:00     -461.802      -72.657      -25.980      178.132      117.677       77.004    31730.980    13847.934     5929.690       13.535        2.575      467.483       88.345        0.036      341.631       16.475      857.574
05/29/2013  21:07:00     -343.179        5.721        0.804      188.978      161.236       87.876    35712.688    25996.893     7722.179        9.361        3.472      343.226       87.221        0.065      341.614       16.446      857.568
05/29/2013  21:08:00     -264.294     -107.416      -21.445      174.639      123.771       73.330    30498.802    15319.310     5377.239        6.651        2.560      285.288       67.304        0.056      341.638       16.487      857.567
05/29/2013  21:09:00     -316.318      -25.142       -6.526      176.901      113.813       82.890    31294.022    12953.305     6870.781        7.592        2.556      317.315      104.213        0.108      341.598       16.416      857.616
05/29/2013  21:10:00     -347.243      -82.641      -11.433      146.651      104.918       68.639    21506.569    11007.765     4711.271        8.238        1.861      356.941       65.323        0.033      341.560       16.354      857.627
05/29/2013  21:11:00     -372.266      -90.797      -16.310      179.569      118.860       73.774    32244.963    14127.769     5442.632        9.945        2.591      383.179       69.949        0.033      341.547       16.333      857.624
05/29/2013  21:12:00     -393.180      -91.860      -14.287      183.185      133.310       72.270    33556.613    17771.431     5222.973       10.988        2.828      403.768       80.448        0.040      341.524       16.292      857.623
05/29/2013  21:13:00     -338.958       -3.703      -19.143      153.819      120.862       68.134    23660.415    14607.535     4642.281        7.908        2.146      338.979       74.464        0.048      341.521       16.290      857.634
05/29/2013  21:14:00     -338.774      -83.718      -15.752      149.132      126.910       71.101    22240.368    16106.194     5055.336        8.271        2.170      348.965       80.569        0.053      341.501       16.255      857.634
05/29/2013  21:15:00     -314.978     -158.101       -1.953      159.339      147.790       79.291    25388.980    21841.798     6287.088        8.886        2.676      352.430       92.205        0.068      341.495       16.243      857.644
05/29/2013  21:16:00     -549.657      -79.015      -26.733      201.518      148.907       75.174    40609.616    22173.152     5651.191       18.875        3.422      555.307       59.346        0.011      341.475       16.209      857.657
05/29/2013  21:17:00     -376.996      -93.267      -20.982      144.792      133.202       64.308    20964.867    17742.670     4135.514        9.705        2.142      388.362       65.396        0.028      341.459       16.184      857.686
05/29/2013  21:18:00     -319.746     -184.380      -25.622      132.291      140.007       71.416    17500.974    19602.021     5100.188        8.954        2.110      369.098       64.226        0.030      341.483       16.223      857.701
05/29/2013  21:19:00     -382.039     -200.200      -10.358      160.593      166.401       82.369    25790.134    27689.448     6784.602       12.319        3.013      431.316       84.787        0.039      341.440       16.151      857.685
05/29/2013  21:20:00     -245.285      -35.316        4.225      105.460       97.868       62.880    11121.743     9578.076     3953.944        4.304        1.233      247.814       56.232        0.051      341.443       16.157      857.715
05/29/2013  21:21:00     -416.086     -177.235      -13.292      237.714      155.498       88.549    56507.988    24179.679     7840.937       14.661        4.426      452.260       94.907        0.044      341.448       16.164      857.708
05/29/2013  21:22:00     -297.806     -119.976       -3.244      183.520      133.210       71.612    33679.429    17744.958     5128.215        7.981        2.828      321.065       74.247        0.053      341.435       16.142      857.728
05/29/2013  21:23:00     -377.483      -29.000      -20.608      153.687      124.208       74.427    23619.675    15427.565     5539.392        9.417        2.229      378.595       73.772        0.038      341.407       16.093      857.741
05/29/2013  21:24:00     -236.467     -117.525        2.434      175.718      160.678       83.642    30876.761    25817.520     6995.906        6.670        3.185      264.062       81.881        0.096      341.420       16.115      857.739
05/29/2013  21:25:00     -121.448      -23.235       14.292      119.656       92.972       58.340    14317.515     8643.824     3403.610        2.092        1.318      123.650       57.969        0.220      341.420       16.118      857.752
05/29/2013  21:26:00     -208.938      -17.394        2.912      185.486      121.674       67.973    34405.128    14804.555     4620.378        4.889        2.692      209.661       82.972        0.157      341.405       16.092      857.766
05/29/2013  21:27:00     -222.612     -128.790        9.014      171.202      148.792       76.526    29309.982    22138.951     5856.285        6.176        2.865      257.183       77.639        0.091      341.421       16.118      857.782
05/29/2013  21:28:00     -372.916     -104.860      -28.838      170.804      172.203       67.787    29174.053    29653.832     4595.088       10.715        3.171      387.378       67.209        0.030      341.396       16.075      857.803
05/29/2013  21:29:00     -425.322     -154.762      -32.522      175.728      181.691       87.452    30880.400    33011.611     7647.770       13.871        3.577      452.603       79.510        0.031      341.398       16.079      857.811
05/29/2013  21:30:00     -383.374      -29.836      -15.686      167.493      171.652       83.868    28053.993    29464.320     7033.816       10.632        3.228      384.533       73.704        0.037      341.362       16.017      857.809
05/29/2013  21:31:00     -302.074      -78.815       -9.951      130.158       94.459       67.584    16941.201     8922.415     4567.546        6.399        1.522      312.187       67.643        0.047      341.357       16.011      857.819
05/29/2013  21:32:00     -341.374      -95.435       -0.716      168.982      107.122       67.159    28554.918    11475.219     4510.360        8.508        2.227      354.463       72.933        0.042      341.330       15.966      857.844
05/29/2013  21:33:00     -345.574     -147.368       -0.117      139.285      171.423       77.961    19400.289    29385.873     6077.972        9.799        2.743      375.684       79.469        0.045      341.333       15.970      857.858
05/29/2013  21:34:00     -307.406        4.904       -4.527      160.275      121.935       80.271    25687.948    14868.192     6443.503        7.076        2.350      307.445       78.237        0.065      341.331       15.967      857.894
05/29/2013  21:35:00     -406.302      -41.953      -24.939      212.714      133.820       77.815    45247.249    17907.916     6055.203       11.833        3.461      408.463       93.890        0.053      341.342       15.984      857.912
05/29/2013  21:36:00     -431.702      -54.406      -10.740      199.806      123.997       90.303    39922.482    15375.257     8154.640       12.644        3.173      435.117      112.506        0.067      341.303       15.919      857.923
05/29/2013  21:37:00     -549.659      -59.536      -10.200      193.211      130.521       87.090    37330.576    17035.685     7584.716       18.385        3.098      552.874       94.334        0.029      341.296       15.907      857.942
05/29/2013  21:38:00     -413.274      -39.264      -19.151      199.828      151.881       71.775    39931.061    23067.886     5151.620       12.042        3.408      415.135       48.935        0.014      341.287       15.891      857.956
05/29/2013  21:39:00     -461.520      -77.718      -29.442      225.338      121.130       68.422    50777.325    14672.491     4681.515       14.501        3.507      468.018       71.480        0.023      341.266       15.858      857.983
05/29/2013  21:40:00     -448.518     -146.970      -45.683      222.106      161.586       81.113    49331.290    26109.916     6579.316       15.342        4.101      471.983       94.647        0.040      341.258       15.843      858.003
05/29/2013  21:41:00     -345.389      -86.557      -11.661      147.225       92.386       51.902    21675.100     8535.105     2693.846        7.991        1.645      356.070       62.222        0.031      341.249       15.828      858.017
05/29/2013  21:42:00     -422.146      -81.411      -23.647      136.920      115.373       61.649    18747.020    13310.890     3800.580       11.062        1.793      429.925       61.166        0.020      341.232       15.797      858.022
05/29/2013  21:43:00     -476.255     -197.735      -17.992      186.367      166.799       74.410    34732.740    27821.791     5536.839       16.716        3.405      515.673       75.207        0.021      341.222       15.782      858.042
05/29/2013  21:44:00     -393.803      -79.473       -3.923      234.096      147.194       98.169    54801.119    21666.154     9637.087       12.374        4.305      401.742      110.791        0.076      341.206       15.754      858.056
05/29/2013  21:45:00     -298.304      -61.802       -1.343      176.371      135.848       64.491    31106.671    18454.599     4159.120        7.325        2.686      304.639       70.421        0.053      341.220       15.779      858.075
05/29/2013  21:46:00     -365.271      -28.264      -17.581      179.488      106.474       66.608    32215.793    11336.679     4436.601        9.125        2.399      366.362       77.217        0.044      341.212       15.764      858.088
05/29/2013  21:47:00     -407.071       53.778      -24.861      166.607      124.735       82.855    27757.950    15558.908     6864.929       10.969        2.509      410.608       67.457        0.027      341.193       15.733      858.084
05/29/2013  21:48:00     -391.916     -125.478      -13.116      160.600      145.602       82.519    25792.493    21199.968     6809.381       11.165        2.690      411.513       78.938        0.037      341.187       15.722      858.089
05/29/2013  21:49:00     -270.870      -67.856       -0.378      125.633      135.609       80.310    15783.714    18389.816     6449.655        5.929        2.031      279.240       69.655        0.062      341.189       15.726      858.110
05/29/2013  21:50:00     -343.991      -20.532      -25.939      123.162      126.478       53.149    15168.876    15996.586     2824.769        7.670        1.700      344.603       36.820        0.011      341.181       15.713      858.140
05/29/2013  21:51:00     -390.990      -25.553      -20.760      187.797      127.749       75.491    35267.875    16319.765     5698.958       10.561        2.864      391.824       86.564        0.049      341.183       15.717      858.155
05/29/2013  21:52:00     -338.650      -64.128      -16.320      170.110      124.346       76.871    28937.510    15462.042     5909.128        8.468        2.515      344.668       75.077        0.047      341.186       15.720      858.171
05/29/2013  21:53:00     -334.231       26.657       -8.834      158.923      111.476       77.041    25256.447    12426.788     5935.246        7.805        2.181      335.292       80.212        0.057      341.145       15.650      858.182
05/29/2013  21:54:00     -464.494      -46.619      -28.324      124.715      123.509       63.654    15553.819    15254.382     4051.854       12.679        1.743      466.828       58.869        0.016      341.138       15.639      858.165
05/29/2013  21:55:00     -317.001      -12.460      -16.456      239.414       96.017       76.193    57318.943     9219.248     5805.315        8.662        3.617      317.246      104.282        0.108      341.109       15.590      858.175
05/29/2013  21:56:00     -429.552     -127.107      -24.299      161.724      128.378       77.869    26154.666    16481.014     6063.511       12.497        2.435      447.964       88.454        0.039      341.126       15.618      858.193
05/29/2013  21:57:00     -185.997      -93.983        9.248      209.589      120.347       66.460    43927.497    14483.512     4416.910        5.316        3.141      208.394       75.004        0.130      341.138       15.641      858.205
05/29/2013  21:58:00     -375.346     -109.337       -9.393      147.223      141.575       77.381    21674.500    20043.555     5987.779       10.031        2.385      390.946       77.233        0.039      341.146       15.652      858.242
05/29/2013  21:59:00     -392.123      -96.179      -19.050      169.822      153.387       83.045    28839.656    23527.623     6896.554       11.131        2.963      403.746       88.107        0.048      341.148       15.656      858.248
05/29/2013  22:00:00     -481.290     -146.775      -31.143      193.382      174.110       93.500    37396.409    30314.464     8742.271       16.529        3.823      503.173       94.407        0.035      341.133       15.632      858.259
05/29/2013  22:01:00     -367.635     -124.855       -6.533      180.993      162.028       80.007    32758.317    26253.163     6401.047       10.809        3.271      388.258       82.011        0.045      341.095       15.566      858.306
05/29/2013  22:02:00     -521.734      -66.376      -40.597      204.392      185.266       86.326    41776.067    34323.383     7452.145       18.089        4.178      525.939       91.111        0.030      341.095       15.565      858.277
05/29/2013  22:03:00     -460.653     -196.182       -4.166      221.513      125.060       93.919    49067.850    15640.025     8820.864       16.211        3.676      500.688      102.636        0.042      341.057       15.502      858.263
05/29/2013  22:04:00     -369.940     -106.906       -6.066      194.978      207.130       85.345    38016.413    42902.989     7283.748       11.825        4.410      385.077       87.718        0.052      341.062       15.509      858.262
05/29/2013  22:05:00     -426.323      -53.552      -14.734      251.169      172.340       86.489    63085.837    29700.985     7480.307       14.253        5.013      429.673      114.576        0.071      341.059       15.507      858.283
05/29/2013  22:06:00     -410.751      -59.341      -14.774      246.607      167.664       76.193    60815.085    28111.153     5805.354       13.358        4.737      415.016       98.109        0.056      341.078       15.538      858.305
05/29/2013  22:07:00     -352.074      -83.486      -16.956      165.405      168.577       90.916    27358.747    28418.354     8265.744        9.762        3.202      361.837       86.776        0.058      341.078       15.539      858.342
05/29/2013  22:08:00     -528.774     -128.195      -14.433      252.502      152.849       90.694    63757.035    23362.843     8225.432       19.578        4.767      544.092      112.761        0.043      341.052       15.494      858.342
05/29/2013  22:09:00     -464.284      -78.869      -15.865      176.729      139.636       82.692    31233.116    19498.346     6837.999       13.979        2.878      470.935       78.515        0.028      341.037       15.470      858.375
05/29/2013  22:10:00     -512.241     -127.255      -19.100      221.003      138.796       84.227    48842.398    19264.312     7094.166       17.706        3.760      527.811      102.422        0.038      341.040       15.474      858.384
05/29/2013  22:11:00     -336.568      -16.028      -15.538      241.380      142.318       92.142    58264.176    20254.305     8490.148       10.038        4.350      336.950      104.132        0.096      341.071       15.527      858.373
05/29/2013  22:12:00     -401.117     -100.526      -10.617      264.917      126.158       74.594    70181.209    15915.813     5564.319       13.137        4.583      413.522      102.865        0.062      341.028       15.455      858.410
05/29/2013  22:13:00     -341.337      -74.230      -34.651      125.858      114.889       53.116    15840.141    13199.553     2821.286        7.754        1.593      349.315       43.870        0.016      341.051       15.492      858.374
05/29/2013  22:14:00     -327.155      -81.939      -11.095      191.040       96.303       74.392    36496.232     9274.172     5534.119        8.258        2.565      337.260       92.116        0.075      341.003       15.412      858.421
05/29/2013  22:15:00     -544.065     -108.408      -39.129      182.929      177.350       98.176    33463.142    31453.009     9638.487       19.191        3.728      554.760      101.063        0.033      341.028       15.454      858.379
05/29/2013  22:16:00     -274.759      -86.468       -8.933      154.719      139.453       86.904    23937.871    19447.101     7552.242        6.698        2.547      288.044       83.542        0.084      341.043       15.479      858.410
05/29/2013  22:17:00     -466.786      -64.957      -28.550      170.675      142.821       80.564    29130.092    20397.960     6490.507       13.946        2.801      471.284       62.497        0.018      341.028       15.453      858.449
05/29/2013  22:18:00     -333.565      -43.038        0.380      213.495      153.402       90.895    45579.996    23532.241     8261.945        9.523        3.869      336.330      104.532        0.097      341.019       15.439      858.475
05/29/2013  22:19:00     -275.036       -4.961       -8.973      174.183      114.426       64.938    30339.692    13093.359     4216.958        6.169        2.383      275.081       71.957        0.068      340.988       15.386      858.476
05/29/2013  22:20:00     -292.911      -88.695      -17.994      111.243       93.285       52.925    12375.008     8702.172     2801.011        5.893        1.194      306.045       47.765        0.024      341.004       15.412      858.410
05/29/2013  22:21:00     -309.039      -69.912      -10.247      116.469      170.218       71.624    13564.997    28974.301     5130.047        7.408        2.383      316.848       52.173        0.027      340.961       15.338      858.406
05/29/2013  22:22:00     -332.025      -12.900      -15.817      184.639      111.033       72.052    34091.664    12328.399     5191.518        8.113        2.581      332.275       83.705        0.063      340.959       15.337      858.442
05/29/2013  22:23:00     -358.633      -66.869      -32.516      130.282      148.629       69.331    16973.373    22090.703     4806.762        8.900        2.194      364.813       56.371        0.024      340.977       15.366      858.427
05/29/2013  22:24:00     -482.507     -187.362      -18.941      148.084      147.011       73.360    21928.944    21612.103     5381.650       15.859        2.446      517.607       76.434        0.022      340.974       15.362      858.429
05/29/2013  22:25:00     -328.443      -66.556       -6.901      191.522      138.918       79.633    36680.792    19298.114     6341.489        8.733        3.116      335.119       84.377        0.063      340.951       15.322      858.443
05/29/2013  22:26:00     -285.042      -63.674       -0.946      171.156      124.081       77.971    29294.351    15396.207     6079.546        6.803        2.539      292.067       96.919        0.110      340.954       15.328      858.465
05/29/2013  22:27:00     -350.946      -98.861       -7.927      140.809      121.973       66.404    19827.109    14877.435     4409.490        8.605        1.956      364.604       65.464        0.032      340.947       15.315      858.493
05/29/2013  22:28:00     -412.141       30.346      -40.441      133.469       99.459       52.777    17813.895     9892.172     2785.416       10.145        1.525      413.256       53.809        0.017      340.919       15.268      858.469
05/29/2013  22:29:00     -320.004      -87.573       -2.543      198.366      110.563       67.603    39349.110    12224.101     4570.195        8.310        2.807      331.771       80.433        0.059      340.882       15.207      858.475
05/29/2013  22:30:00     -368.014     -136.343      -11.648      166.426      136.112       69.333    27697.688    18526.367     4807.070       10.259        2.552      392.459       73.045        0.035      340.912       15.257      858.478
05/29/2013  22:31:00     -370.618      -69.363      -13.293      158.694      123.207       64.244    25183.928    15179.886     4127.264        9.341        2.225      377.053       72.503        0.037      340.861       15.170      858.486
05/29/2013  22:32:00     -414.507      -41.858      -20.925      167.036      143.555       79.369    27900.934    20607.902     6299.491       11.440        2.740      416.615       88.661        0.045      340.840       15.136      858.489
05/29/2013  22:33:00     -314.535        6.823       -4.963      183.405      109.759       66.628    33637.556    12046.952     4439.246        7.456        2.506      314.609       73.790        0.055      340.809       15.083      858.497
05/29/2013  22:34:00     -216.159      -97.684        9.477      124.879      100.832       61.748    15594.840    10167.067     3812.812        4.296        1.479      237.206       60.001        0.064      340.795       15.060      858.492
05/29/2013  22:35:00     -169.106     -107.472       -5.397      132.635      104.191       56.750    17592.022    10855.820     3220.569        3.592        1.583      200.367       51.261        0.065      340.795       15.060      858.465
05/29/2013  22:36:00     -283.695      -33.835       -8.091      118.248       98.454       60.519    13982.589     9693.093     3662.502        5.451        1.367      285.705       65.893        0.053      340.781       15.036      858.479
05/29/2013  22:37:00     -281.968      -70.922      -17.828      225.723      118.868       72.263    50950.889    14129.602     5221.946        7.757        3.515      290.751      102.223        0.124      340.779       15.032      858.457
05/29/2013  22:38:00     -363.959      -70.211       -3.756      215.975      102.539       72.111    46645.354    10514.177     5200.028        9.987        3.118      370.670       90.465        0.060      340.774       15.025      858.454
05/29/2013  22:39:00     -342.569      -88.579      -11.735      236.415      122.387       82.569    55892.166    14978.523     6817.623       10.150        3.884      353.836      105.041        0.088      340.773       15.024      858.443
05/29/2013  22:40:00     -532.365     -132.378      -33.700      142.900      141.858       74.556    20420.342    20123.560     5558.589       17.408        2.305      548.576       66.003        0.014      340.809       15.084      858.452
05/29/2013  22:41:00     -303.802       -1.535      -19.073       99.651       70.982       48.586     9930.246     5038.374     2360.611        5.499        0.866      303.805       49.385        0.026      340.775       15.025      858.476
05/29/2013  22:42:00     -430.979      -83.743      -31.944      144.079      106.236       62.205    20758.764    11286.167     3869.496       11.484        1.796      439.040       67.100        0.023      340.781       15.036      858.470
05/29/2013  22:43:00     -327.046      -54.425      -10.394      198.528      121.926       87.294    39413.473    14866.065     7620.223        8.595        3.095      331.544       93.166        0.079      340.759       15.000      858.480
05/29/2013  22:44:00     -370.194      -49.846      -43.129      170.929      152.836       72.943    29216.574    23358.917     5320.738        9.963        2.895      373.535       84.147        0.051      340.778       15.032      858.499
05/29/2013  22:45:00     -235.413      -67.869        3.868      149.461      142.310       80.896    22338.674    20252.075     6544.114        5.458        2.457      245.001       69.112        0.080      340.782       15.037      858.507
05/29/2013  22:46:00     -323.600     -128.178      -15.911      163.021      101.577       67.874    26575.908    10317.945     4606.881        8.144        2.075      348.061       60.169        0.030      340.780       15.034      858.519
05/29/2013  22:47:00     -212.327     -134.296        0.159      165.037      143.132       74.192    27237.090    20486.902     5504.424        5.816        2.661      251.233       81.681        0.106      340.753       14.988      858.515
05/29/2013  22:48:00     -250.048      -26.713       15.582      163.234       98.259       77.249    26645.353     9654.745     5967.452        5.287        2.113      251.470       89.456        0.127      340.698       14.895      858.520
05/29/2013  22:49:00     -356.722      -77.296       -9.954      239.745      129.644       70.500    57477.641    16807.507     4970.303       10.628        3.963      365.000       89.231        0.060      340.712       14.918      858.536
05/29/2013  22:50:00     -514.064      -64.316      -42.851      164.600      183.110       83.046    27093.286    33529.197     6896.644       16.887        3.376      518.072       72.651        0.020      340.735       14.958      858.546
05/29/2013  22:51:00     -532.814      -59.787      -36.667      233.977      149.769       71.439    54745.185    22430.733     5103.512       18.553        4.114      536.158       88.602        0.027      340.730       14.948      858.549
05/29/2013  22:52:00     -319.447      -63.668      -10.008      135.710      123.184       66.771    18417.271    15174.334     4458.404        7.212        1.903      325.730       73.699        0.051      340.702       14.902      858.559
05/29/2013  22:53:00     -439.111      -34.448      -27.501      163.229      112.798       74.855    26643.769    12723.277     5603.249       11.986        2.249      440.460       67.449        0.023      340.703       14.903      858.566
05/29/2013  22:54:00     -479.951       14.805      -34.790      137.377      127.658       64.272    18872.418    16296.663     4130.914       13.553        1.965      480.180       59.585        0.015      340.699       14.897      858.552
05/29/2013  22:55:00     -305.643     -101.797       -7.425      128.287      108.867       69.558    16457.465    11852.091     4838.286        6.849        1.657      322.149       67.120        0.043      340.678       14.861      858.547
05/29/2013  22:56:00     -380.723     -118.135      -22.663      155.131      151.119       67.854    24065.739    22836.910     4604.128       10.545        2.575      398.630       74.037        0.034      340.668       14.845      858.538
05/29/2013  22:57:00     -408.208      -98.591       -6.060      228.856      129.229       81.195    52375.105    16700.218     6592.654       12.602        3.783      419.945      104.024        0.061      340.677       14.859      858.543
05/29/2013  22:58:00     -377.193      -66.068       -8.401      139.101      133.333       70.820    19349.116    17777.606     5015.495        9.442        2.107      382.935       72.194        0.036      340.658       14.828      858.542
05/29/2013  22:59:00     -376.329      -48.866      -21.224      159.875      160.344       67.556    25560.134    25710.236     4563.769       10.014        2.792      379.488       72.304        0.036      340.643       14.801      858.547
05/29/2013  23:00:00     -360.448      -41.921      -27.352      166.889      121.105       74.990    27852.069    14666.351     5623.480        9.028        2.407      362.877       87.141        0.058      340.642       14.799      858.531
05/29/2013  23:01:00     -260.604      -45.181      -17.764      141.032      107.368       68.849    19890.078    11527.887     4740.211        5.321        1.808      264.491       64.891        0.060      340.627       14.773      858.540
05/29/2013  23:02:00     -427.059       10.522      -33.435      184.519      131.655       75.332    34047.218    17332.988     5674.867       12.032        2.853      427.188       71.679        0.028      340.612       14.750      858.548
05/29/2013  23:03:00     -409.446      -62.618      -28.583      158.694      125.714       67.254    25183.883    15804.114     4523.153       10.894        2.276      414.206       77.202        0.035      340.617       14.756      858.562
05/29/2013  23:04:00     -420.639       33.126      -36.708      143.532      125.228       69.741    20601.515    15682.086     4863.868       11.026        2.057      421.942       67.520        0.026      340.615       14.753      858.550
05/29/2013  23:05:00     -326.555     -100.830      -16.708      110.033      106.968       60.799    12107.269    11442.134     3696.506        7.216        1.362      341.767       46.752        0.019      340.595       14.720      858.553
05/29/2013  23:06:00     -450.979      -64.900       -4.788      299.360      168.587       88.339    89616.399    28421.654     7803.750       16.671        6.292      455.625      123.342        0.073      340.604       14.737      858.558
05/29/2013  23:07:00     -328.390      -83.790       11.831      270.249      147.896       96.737    73034.269    21873.085     9358.108       10.962        5.213      338.911      120.456        0.126      340.644       14.805      858.583
05/29/2013  23:08:00     -302.298      -89.245       -1.816      224.284      144.060       73.019    50303.410    20753.177     5331.763        8.786        3.819      315.196       97.684        0.096      340.613       14.751      858.592
05/29/2013  23:09:00     -555.997     -114.872      -39.530      198.350      140.003       97.754    39342.610    19600.839     9555.761       19.618        3.425      567.740       93.612        0.027      340.619       14.760      858.585
05/29/2013  23:10:00     -433.934     -101.496      -21.303      192.044      154.261       81.428    36880.916    23796.572     6630.593       13.317        3.365      445.646       85.777        0.037      340.584       14.701      858.581
05/29/2013  23:11:00     -372.306      -83.900      -12.217      142.030      132.538       71.824    20172.606    17566.411     5158.623        9.434        2.145      381.642       74.780        0.038      340.580       14.696      858.590
05/29/2013  23:12:00     -279.680      -98.410        5.744      165.058      143.124       78.863    27243.983    20484.510     6219.316        7.093        2.697      296.488       89.690        0.092      340.584       14.701      858.614
05/29/2013  23:13:00     -324.081       -8.443      -15.027      148.968      115.467       65.090    22191.484    13332.631     4236.719        7.254        1.988      324.191       69.516        0.046      340.560       14.662      858.628
05/29/2013  23:14:00     -320.393      -12.139      -20.470      163.638       90.719       67.617    26777.319     8229.952     4572.065        7.139        1.979      320.623       71.307        0.049      340.550       14.646      858.636
05/29/2013  23:15:00     -457.113      -94.211      -13.389      157.509      145.838       72.532    24809.099    21268.864     5260.906       13.466        2.567      466.720       80.298        0.030      340.561       14.662      858.642
05/29/2013  23:16:00     -463.407     -121.068       -8.518      189.130      121.553       78.154    35770.203    14775.034     6108.029       14.306        2.833      478.961       88.042        0.034      340.547       14.638      858.656
05/29/2013  23:17:00     -477.523      -19.234      -27.794      228.078      138.981       85.731    52019.601    19315.746     7349.793       15.391        3.934      477.910      110.878        0.054      340.546       14.637      858.685
05/29/2013  23:18:00     -374.221      -62.482      -16.629      199.556      128.038       74.567    39822.602    16393.831     5560.164       10.299        3.089      379.402       92.209        0.059      340.530       14.610      858.705
05/29/2013  23:19:00     -448.290      -75.532      -32.166      201.775      134.864       71.237    40713.159    18188.367     5074.686       13.583        3.199      454.609       63.128        0.019      340.551       14.645      858.720
05/29/2013  23:20:00     -438.202       14.287      -29.996      172.161      100.677       72.822    29639.520    10135.784     5302.997       11.909        2.254      438.435       77.953        0.032      340.561       14.662      858.700
05/29/2013  23:21:00     -392.210     -109.681       -7.805      210.339      151.004       82.081    44242.560    22802.096     6737.286       11.984        3.689      407.257      107.921        0.070      340.545       14.636      858.695
05/29/2013  23:22:00     -507.983     -167.973      -20.201      158.942      147.740       75.529    25262.466    21827.075     5704.608       16.972        2.640      535.034       76.735        0.021      340.549       14.644      858.685
05/29/2013  23:23:00     -450.475      -58.869      -18.850      150.151      123.273       74.069    22545.309    15196.278     5486.246       12.498        2.161      454.305       80.654        0.032      340.515       14.586      858.697
05/29/2013  23:24:00     -258.605      -92.239       -9.504      164.410      124.334       72.228    27030.782    15458.930     5216.841        6.158        2.385      274.563       82.614        0.091      340.533       14.618      858.719
05/29/2013  23:25:00     -377.993      -18.010      -26.400      190.905      141.309       91.285    36444.750    19968.263     8332.934       10.431        3.237      378.421       92.998        0.060      340.521       14.596      858.743
05/29/2013  23:26:00     -355.998      -25.030      -20.907      128.857      120.294       69.497    16604.028    14470.765     4829.899        8.185        1.795      356.877       63.723        0.032      340.539       14.625      858.738
05/29/2013  23:27:00     -331.547       29.197      -23.217      121.584       82.022       51.246    14782.700     6727.553     2626.155        6.772        1.207      332.831       39.559        0.014      340.514       14.586      858.754
05/29/2013  23:28:00     -283.520      -20.074      -14.694      130.380       97.204       74.554    16998.940     9448.662     5558.263        5.650        1.600      284.230       76.813        0.073      340.520       14.595      858.778
05/29/2013  23:29:00     -264.322      -67.916       24.014      159.721      149.884       86.673    25510.749    22465.144     7512.207        6.526        2.774      272.908       84.823        0.097      340.504       14.567      858.781
05/29/2013  23:30:00     -454.800     -150.620      -25.203      196.139      141.975       78.499    38470.473    20157.023     6162.072       14.747        3.239      479.092       71.708        0.022      340.500       14.562      858.784
05/29/2013  23:31:00     -401.021      -46.102      -26.921      144.334      122.951       67.447    20832.382    15116.828     4549.092       10.208        2.025      403.662       62.351        0.024      340.484       14.532      858.812
05/29/2013  23:32:00     -378.205      -89.986      -21.126      180.017      149.720       70.729    32406.055    22416.059     5002.572       10.569        2.991      388.763       83.986        0.047      340.489       14.542      858.819
05/29/2013  23:33:00     -369.863     -131.473       -5.364      266.316      133.168       75.272    70923.987    17733.588     5665.831       12.420        4.716      392.535      107.315        0.075      340.489       14.541      858.836
05/29/2013  23:34:00     -238.923     -116.380      -11.427      119.388       91.141       48.852    14253.484     8306.631     2386.566        4.785        1.247      265.760       49.945        0.035      340.483       14.532      858.838
05/29/2013  23:35:00     -118.654      -63.220        2.486      130.752       90.434       63.732    17096.180     8178.354     4061.830        2.370        1.467      134.445       69.529        0.267      340.473       14.516      858.832
05/29/2013  23:36:00     -310.337     -122.263      -18.513      195.743      113.284       65.937    38315.305    12833.289     4347.641        8.354        2.775      333.553       81.366        0.060      340.479       14.525      858.838
05/29/2013  23:37:00     -313.323      -41.123      -20.511      132.805       87.384       54.874    17637.279     7635.935     3011.165        6.428        1.414      316.010       57.093        0.033      340.446       14.468      858.851
05/29/2013  23:38:00     -314.682      -42.149       -4.601      171.557      143.544       69.604    29431.952    20604.953     4844.687        7.784        2.744      317.493       83.987        0.070      340.460       14.491      858.849
05/29/2013  23:39:00     -319.229     -122.767      -16.867      162.549      116.870       62.729    26422.328    13658.591     3934.866        8.063        2.201      342.022       67.532        0.039      340.490       14.543      858.866
05/29/2013  23:40:00     -180.406      -70.243      -17.693      142.375      113.821       55.484    20270.739    12955.256     3078.455        3.704        1.815      193.599       46.892        0.059      340.495       14.554      858.860
05/29/2013  23:41:00      -84.038       -5.501       17.666      161.054      107.409       55.889    25938.298    11536.646     3123.596        2.399        2.030       84.218       67.414        0.641      340.454       14.484      858.850
05/29/2013  23:42:00     -177.508      -39.374      -11.766      126.445      122.749       62.629    15988.461    15067.320     3922.352        3.408        1.749      181.822       67.358        0.137      340.427       14.438      858.860
05/29/2013  23:43:00     -245.434      -65.088        2.011      148.992      109.179       63.966    22198.531    11920.121     4091.628        5.134        1.911      253.917       63.224        0.062      340.416       14.418      858.863
05/29/2013  23:44:00     -144.511     -109.871       20.161      197.560      137.506       84.263    39029.969    18907.880     7100.234        4.919        3.252      181.535       95.963        0.279      340.409       14.407      858.874
05/29/2013  23:45:00     -321.256      -59.914      -16.351      169.569      112.309       66.678    28753.644    12613.270     4446.004        7.643        2.291      326.796       67.036        0.042      340.422       14.429      858.868
05/29/2013  23:46:00     -246.146      -43.193       -0.960      127.727      105.149       63.308    16314.262    11056.392     4007.883        4.691        1.569      249.907       70.166        0.079      340.417       14.420      858.868
05/29/2013  23:47:00     -261.497      -72.923      -17.755      102.931       85.138       59.607    10594.710     7248.406     3552.990        4.770        1.070      271.475       60.066        0.049      340.421       14.427      858.871
05/29/2013  23:48:00     -230.664      -78.112        0.941      121.002      113.846       57.379    14641.480    12960.896     3292.298        4.510        1.545      243.531       55.969        0.053      340.395       14.384      858.858
05/29/2013  23:49:00     -278.463       -8.431      -16.188      170.848      111.751       65.662    29188.976    12488.345     4311.508        6.192        2.299      278.591       72.838        0.068      340.398       14.387      858.860
05/29/2013  23:50:00     -267.342      -34.363      -21.581       96.620       70.124       42.687     9335.494     4917.434     1822.220        4.459        0.804      269.541       38.617        0.021      340.406       14.400      858.860
05/29/2013  23:51:00     -395.649      -83.991      -29.834      186.326      102.551       67.718    34717.274    10516.759     4585.666       10.714        2.491      404.465       89.066        0.048      340.395       14.384      858.846
05/29/2013  23:52:00     -197.292      -33.281        1.458      139.775       94.899       59.923    19536.963     9005.777     3590.760        3.608        1.607      200.079       66.740        0.111      340.354       14.315      858.854
05/29/2013  23:53:00     -325.349      -75.628       -5.977      147.250      117.035       57.543    21682.554    13697.192     3311.160        7.514        1.935      334.023       55.362        0.027      340.353       14.312      858.866
05/29/2013  23:54:00     -311.004      -23.698      -13.895      173.944      124.868       70.470    30256.445    15592.051     4966.049        7.414        2.541      311.906       86.800        0.077      340.347       14.303      858.860
05/29/2013  23:55:00     -172.438      -65.734        2.015      122.386       98.902       52.678    14978.239     9781.644     2774.933        3.079        1.377      184.542       54.842        0.088      340.322       14.262      858.874
05/29/2013  23:56:00     -134.649        7.675        6.582      128.764       77.762       43.951    16580.048     6046.947     1931.733        2.139        1.228      134.867       46.776        0.120      340.296       14.216      858.860
05/29/2013  23:57:00     -337.093     -122.340      -23.814      163.077      103.173       63.268    26594.031    10644.620     4002.832        8.520        2.062      358.607       58.976        0.027      340.320       14.256      858.850
05/29/2013  23:58:00     -158.326      -45.421        3.905      126.926      101.098       51.049    16110.327    10220.728     2606.024        2.804        1.447      164.713       62.389        0.143      340.295       14.214      858.867
05/29/2013  23:59:00     -210.264      -39.002       -4.592      102.479       97.645       46.539    10501.871     9534.554     2165.903        3.397        1.110      213.851       53.136        0.062      340.285       14.197      858.876
